[[{"header":{"parameterUnit":"m.s-1","parameterCategory":1,"la1":31.0,"la2":29.5877,"lo1":-88.7671,"lo2":-86.6584,"dy":0.0162,"dx":0.0185,"nx":115,"ny":88,"refTime":"2023-08-07T12:00:00:Z","depth":0,"parameterNumber":2,"parameterNumberName":"U-component_of_WINDS"},"data":[0.0,0.0,0.0,0.0,0.0,0.0,0.0,0.0,0.0,0.0,0.0,0.0,0.0,0.0,0.0,0.0,0.0,0.0,0.0,0.0,0.0,0.0,0.0,0.0,0.0,0.0,0.0,0.0,0.0,0.0,0.0,0.0,0.0,0.0,0.0,0.0,0.0,0.0,0.0,0.0,0.0,0.0,0.0,0.0,0.0,0.0,0.0,0.0,0.0,0.0,0.0,0.0,0.0,0.0,0.0,0.0,0.0,0.0,0.0,0.0,0.0,0.0,0.0,0.0,0.0,0.0,0.0,0.0,0.0,0.0,0.0,0.0,0.0,0.0,0.0,0.0,0.0,0.0,0.0,0.0,0.0,0.0,0.0,0.0,0.0,0.0,0.0,0.0,0.0,0.0,0.0,0.0,0.0,0.0,0.0,0.0,0.0,0.0,0.0,0.0,0.0,0.0,0.0,0.0,0.0,0.0,0.0,0.0,0.0,0.0,0.0,0.0,0.0,0.0,0.0,0.0,0.0,0.0,0.0,0.0,0.0,0.0,0.0,0.0,0.0,0.0,0.0,0.0,0.0,0.0,0.0,0.0,0.0,0.0,0.0,0.0,0.0,0.0,0.0,0.0,0.0,0.0,0.0,0.0,0.0,0.0,0.0,0.0,0.0,0.0,0.0,0.0,0.0,0.0,0.0,0.0,0.0,0.0,0.0,0.0,0.0,0.0,0.0,0.0,0.0,0.0,0.0,0.0,0.0,0.0,0.0,0.0,0.0,0.0,0.0,0.0,0.0,0.0,0.0,0.0,0.0,0.0,0.0,0.0,0.0,0.0,0.0,0.0,0.0,0.0,0.0,0.0,0.0,0.0,0.0,0.0,0.0,0.0,0.0,0.0,0.0,0.0,0.0,0.0,0.0,0.0,0.0,0.0,0.0,0.0,0.0,0.0,0.0,0.0,0.0,0.0,0.0,0.0,0.0,0.0,0.0,0.0,0.0,0.0,0.0,0.0,0.0,0.0,0.0,0.0,0.0,0.0,0.0,0.0,0.0,0.0,0.0,0.0,0.0,0.0,0.0,0.0,0.0,0.0,0.0,0.0,0.0,0.0,0.0,0.0,0.0,0.0,0.0,0.0,0.0,0.0,0.0,0.0,0.0,0.0,0.0,0.0,0.0,0.0,0.0,0.0,0.0,0.0,0.0,0.0,0.0,0.0,0.0,0.0,0.0,0.0,0.0,0.0,0.0,0.0,0.0,0.0,0.0,0.0,0.0,0.0,0.0,0.0,0.0,0.0,0.0,0.0,0.0,0.0,0.0,0.0,0.0,0.0,0.0,0.0,0.0,0.0,0.0,0.0,0.0,0.0,0.0,0.0,0.0,0.0,0.0,0.0,0.0,0.0,0.0,0.0,0.0,0.0,0.0,0.0,0.0,0.0,0.0,0.0,0.0,0.0,0.0,0.0,0.0,0.0,0.0,0.0,0.0,0.0,0.0,0.0,0.0,0.0,0.0,0.0,0.0,0.0,0.0,0.0,0.0,0.0,0.0,0.0,0.0,0.0,0.0,0.0,0.0,0.0,0.0,0.0,0.0,0.0,0.0,0.0,0.0,0.0,0.0,0.0,0.0,0.0,0.0,0.0,0.0,0.0,0.0,0.0,0.0,0.0,0.0,0.0,0.0,0.0,0.0,0.0,0.0,0.0,0.0,0.0,0.0,0.0,0.0,0.0,0.0,0.0,0.0,0.0,0.0,0.0,0.0,0.0,0.0,0.0,0.0,0.0,0.0,0.0,0.0,0.0,0.0,0.0,0.0,0.0,0.0,0.0,0.0,0.0,0.0,0.0,0.0,0.0,0.0,0.0,0.0,0.0,0.0,0.0,0.0,0.0,0.0,0.0,0.0,0.0,0.0,0.0,0.0,0.0,0.0,0.0,0.0,0.0,0.0,0.0,0.0,0.0,0.0,0.0,0.0,0.0,0.0,0.0,0.0,0.0,0.0,0.0,0.0,0.0,0.0,0.0,0.0,0.0,0.0,0.0,0.0,0.0,0.0,0.0,0.0,0.0,0.0,0.0,0.0,0.0,0.0,0.0,0.0,0.0,0.0,0.0,0.0,0.0,0.0,0.0,0.0,0.0,0.0,0.0,0.0,0.0,0.0,0.0,0.0,0.0,0.0,0.0,0.0,0.0,0.0,0.0,0.0,0.0,0.0,0.0,0.0,0.0,0.0,0.0,0.0,0.0,0.0,0.0,0.0,0.0,0.0,0.0,0.0,0.0,0.0,0.0,0.0,0.0,0.0,0.0,0.0,0.0,0.0,0.0,0.0,0.0,0.0,0.0,0.0,0.0,0.0,0.0,0.0,0.0,0.0,0.0,0.0,0.0,0.0,0.0,0.0,0.0,0.0,0.0,0.0,0.0,0.0,0.0,0.0,0.0,0.0,0.0,0.0,0.0,0.0,0.0,0.0,0.0,0.0,0.0,0.0,0.0,0.0,0.0,0.0,0.0,0.0,0.0,0.0,0.0,0.0,0.0,0.0,0.0,0.0,0.0,0.0,0.0,0.0,0.0,0.0,0.0,0.0,0.0,0.0,0.0,0.0,0.0,0.0,0.0,0.0,0.0,0.0,0.0,0.0,0.0,0.0,0.0,0.0,0.0,0.0,0.0,0.0,0.0,0.0,0.0,0.0,0.0,0.0,0.0,0.0,0.0,0.0,0.0,0.0,0.0,0.0,0.0,0.0,0.0,0.0,0.0,0.0,0.0,0.0,0.0,0.0,0.0,0.0,0.0,0.0,0.0,0.0,0.0,0.0,0.0,0.0,0.0,0.0,0.0,0.0,0.0,0.0,0.0,0.0,0.0,0.0,0.0,0.0,0.0,0.0,0.0,0.0,0.0,0.0,0.0,0.0,0.0,0.0,0.0,0.0,0.0,0.0,0.0,0.0,0.0,0.0,0.0,0.0,0.0,0.0,0.0,0.0,0.0,0.0,0.0,0.0,0.0,0.0,0.0,0.0,0.0,0.0,0.0,0.0,0.0,0.0,0.0,0.0,0.0,0.0,0.0,0.0,0.0,0.0,0.0,0.0,0.0,0.0,0.0,0.0,0.0,0.0,0.0,0.0,0.0,0.0,0.0,0.0,0.0,0.0,0.0,0.0,0.0,0.0,0.0,0.0,0.0,0.0,0.0,0.0,0.0,0.0,0.0,0.0,0.0,0.0,0.0,0.0,0.0,0.0,0.0,0.0,0.0,0.0,0.0,0.0,0.0,0.0,0.0,0.0,0.0,0.0,0.0,0.0,0.0,0.0,0.0,0.0,0.0,0.0,0.0,0.0,0.0,0.0,0.0,0.0,0.0,0.0,0.0,0.0,0.0,0.0,0.0,0.0,0.0,0.0,0.0,0.0,0.0,0.0,0.0,0.0,0.0,0.0,0.0,0.0,0.0,0.0,0.0,0.0,0.0,0.0,0.0,0.0,0.0,0.0,0.0,0.0,0.0,0.0,0.0,0.0,0.0,0.0,0.0,0.0,0.0,0.0,0.0,0.0,0.0,0.0,0.0,0.0,0.0,0.0,0.0,0.0,0.0,0.0,0.0,0.0,0.0,0.0,0.0,0.0,0.0,0.0,0.0,0.0,0.0,0.0,0.0,0.0,0.0,0.0,0.0,0.0,0.0,0.0,0.0,0.0,0.0,0.0,0.0,0.0,0.0,0.0,0.0,0.0,0.0,0.0,0.0,0.0,0.0,0.0,0.0,0.0,0.0,0.0,0.0,0.0,0.0,0.0,0.0,0.0,0.0,0.0,0.0,0.0,0.0,0.0,0.0,0.0,0.0,0.0,0.0,0.0,0.0,0.0,0.0,0.0,0.0,0.0,0.0,0.0,0.0,0.0,0.0,0.0,0.0,0.0,0.0,0.0,0.0,0.0,0.0,0.0,0.0,0.0,0.0,0.0,0.0,0.0,0.0,0.0,0.0,0.0,0.0,0.0,0.0,0.0,0.0,0.0,0.0,0.0,0.0,0.0,0.0,0.0,0.0,0.0,0.0,0.0,0.0,0.0,0.0,0.0,0.0,0.0,0.0,0.0,0.0,0.0,0.0,0.0,0.0,0.0,0.0,0.0,0.0,0.0,0.0,0.0,0.0,0.0,0.0,0.0,0.0,0.0,0.0,0.0,0.0,0.0,0.0,0.0,0.0,0.0,0.0,0.0,0.0,0.0,0.0,0.0,0.0,0.0,0.0,0.0,0.0,0.0,0.0,0.0,0.0,0.0,0.0,0.0,0.0,-2.0668,0.0,0.0,0.0,0.0,0.0,0.0,0.0,0.0,0.0,0.0,0.0,0.0,0.0,0.0,0.0,0.0,0.0,0.0,0.0,0.0,0.0,0.0,0.0,0.0,0.0,0.0,0.0,0.0,0.0,0.0,0.0,0.0,0.0,0.0,0.0,0.0,0.0,0.0,0.0,0.0,0.0,0.0,0.0,0.0,0.0,0.0,0.0,0.0,0.0,0.0,0.0,0.0,0.0,0.0,0.0,0.0,0.0,0.0,0.0,0.0,0.0,0.0,0.0,0.0,0.0,0.0,0.0,0.0,0.0,0.0,0.0,0.0,0.0,0.0,0.0,0.0,0.0,0.0,0.0,0.0,0.0,0.0,0.0,0.0,0.0,0.0,0.0,0.0,0.0,0.0,0.0,0.0,0.0,0.0,0.0,0.0,0.0,0.0,0.0,0.0,0.0,0.0,0.0,0.0,0.0,0.0,0.0,0.0,0.0,0.0,-2.157,-2.0857,-2.1173,-2.1173,-2.0794,0.0,0.0,0.0,0.0,0.0,0.0,0.0,0.0,0.0,0.0,0.0,0.0,0.0,0.0,0.0,0.0,0.0,0.0,0.0,0.0,0.0,0.0,0.0,0.0,0.0,0.0,0.0,0.0,0.0,0.0,0.0,0.0,0.0,0.0,0.0,0.0,0.0,0.0,0.0,0.0,0.0,0.0,0.0,0.0,0.0,0.0,0.0,0.0,0.0,0.0,0.0,0.0,0.0,0.0,0.0,0.0,0.0,0.0,0.0,0.0,0.0,0.0,0.0,0.0,0.0,0.0,0.0,0.0,0.0,0.0,0.0,0.0,0.0,0.0,0.0,0.0,0.0,0.0,0.0,0.0,0.0,0.0,0.0,0.0,0.0,0.0,0.0,0.0,0.0,0.0,0.0,0.0,0.0,0.0,0.0,0.0,0.0,0.0,0.0,0.0,0.0,0.0,0.0,0.0,0.0,0.0,0.0,0.0,0.0,0.0,0.0,0.0,-2.2736,-2.2767,-2.2248,0.0,0.0,0.0,0.0,0.0,0.0,0.0,0.0,0.0,0.0,0.0,0.0,0.0,0.0,0.0,0.0,0.0,0.0,0.0,0.0,0.0,0.0,0.0,0.0,0.0,0.0,0.0,0.0,0.0,0.0,0.0,0.0,0.0,0.0,0.0,0.0,0.0,0.0,0.0,0.0,0.0,0.0,0.0,0.0,0.0,0.0,0.0,0.0,0.0,0.0,0.0,0.0,0.0,0.0,0.0,0.0,0.0,0.0,0.0,0.0,0.0,0.0,0.0,0.0,0.0,0.0,0.0,0.0,0.0,0.0,0.0,0.0,0.0,0.0,0.0,0.0,0.0,0.0,0.0,0.0,0.0,0.0,0.0,0.0,0.0,0.0,0.0,0.0,0.0,0.0,0.0,0.0,0.0,0.0,0.0,0.0,0.0,0.0,0.0,0.0,0.0,0.0,0.0,0.0,0.0,0.0,0.0,0.0,0.0,0.0,-2.3367,-2.6419,-2.6525,0.0,-2.6462,0.0,0.0,0.0,0.0,0.0,0.0,0.0,0.0,0.0,0.0,0.0,0.0,0.0,0.0,0.0,0.0,0.0,0.0,0.0,0.0,0.0,0.0,0.0,0.0,0.0,0.0,0.0,0.0,0.0,0.0,0.0,0.0,0.0,0.0,0.0,0.0,0.0,0.0,0.0,0.0,0.0,0.0,0.0,0.0,0.0,0.0,0.0,0.0,0.0,0.0,0.0,0.0,0.0,0.0,0.0,0.0,0.0,0.0,0.0,0.0,0.0,0.0,0.0,0.0,0.0,0.0,0.0,0.0,0.0,0.0,0.0,0.0,0.0,0.0,0.0,0.0,0.0,0.0,0.0,0.0,0.0,0.0,0.0,0.0,0.0,0.0,0.0,0.0,0.0,0.0,0.0,0.0,0.0,0.0,0.0,0.0,0.0,0.0,0.0,0.0,0.0,0.0,0.0,0.0,0.0,0.0,0.0,0.0,0.0,0.0,-2.5246,-2.5973,-2.5951,-2.6355,0.0,0.0,0.0,0.0,0.0,0.0,0.0,0.0,0.0,0.0,0.0,0.0,0.0,0.0,0.0,0.0,0.0,0.0,0.0,0.0,0.0,0.0,0.0,0.0,0.0,0.0,0.0,0.0,0.0,0.0,0.0,0.0,0.0,0.0,0.0,0.0,0.0,0.0,0.0,0.0,0.0,0.0,0.0,0.0,0.0,0.0,0.0,0.0,0.0,0.0,0.0,0.0,0.0,0.0,0.0,0.0,0.0,0.0,0.0,0.0,0.0,0.0,0.0,0.0,0.0,0.0,0.0,0.0,0.0,0.0,0.0,0.0,0.0,0.0,0.0,0.0,0.0,0.0,0.0,0.0,0.0,0.0,0.0,0.0,0.0,0.0,0.0,0.0,0.0,0.0,0.0,0.0,0.0,0.0,0.0,0.0,0.0,0.0,0.0,0.0,0.0,0.0,0.0,0.0,0.0,0.0,0.0,0.0,0.0,0.0,-2.556,-2.6767,-2.6772,-2.681,-2.681,-2.6911,0.0,0.0,0.0,0.0,0.0,0.0,0.0,0.0,0.0,0.0,0.0,0.0,0.0,0.0,0.0,0.0,0.0,0.0,0.0,0.0,0.0,0.0,0.0,0.0,0.0,0.0,0.0,0.0,0.0,0.0,0.0,0.0,0.0,0.0,0.0,0.0,0.0,0.0,0.0,0.0,0.0,0.0,0.0,0.0,0.0,0.0,0.0,0.0,0.0,0.0,0.0,0.0,0.0,0.0,0.0,0.0,0.0,0.0,0.0,0.0,0.0,0.0,0.0,0.0,0.0,0.0,0.0,0.0,0.0,0.0,0.0,0.0,0.0,0.0,0.0,0.0,0.0,0.0,0.0,0.0,0.0,0.0,0.0,0.0,0.0,0.0,0.0,0.0,0.0,0.0,0.0,0.0,0.0,0.0,0.0,0.0,0.0,0.0,0.0,0.0,0.0,0.0,0.0,0.0,0.0,0.0,0.0,0.0,-2.9737,-2.7323,-2.7425,-3.0593,-3.0661,-2.9255,0.0,0.0,0.0,0.0,0.0,0.0,0.0,0.0,0.0,0.0,0.0,0.0,0.0,0.0,0.0,0.0,0.0,0.0,0.0,0.0,0.0,0.0,0.0,0.0,0.0,0.0,0.0,0.0,0.0,0.0,0.0,0.0,0.0,0.0,0.0,0.0,0.0,0.0,0.0,0.0,0.0,0.0,0.0,0.0,0.0,0.0,0.0,0.0,0.0,0.0,0.0,0.0,0.0,0.0,0.0,0.0,0.0,0.0,0.0,0.0,0.0,0.0,0.0,0.0,0.0,0.0,0.0,0.0,0.0,0.0,0.0,0.0,0.0,0.0,0.0,0.0,0.0,0.0,0.0,0.0,0.0,0.0,0.0,0.0,0.0,0.0,0.0,0.0,0.0,0.0,0.0,0.0,0.0,0.0,0.0,0.0,0.0,0.0,0.0,0.0,0.0,0.0,0.0,0.0,0.0,0.0,0.0,0.0,0.0,-2.3466,-2.4792,-2.814,-3.3306,-2.9594,-2.7718,0.0,0.0,0.0,0.0,0.0,0.0,0.0,0.0,0.0,0.0,0.0,0.0,0.0,0.0,0.0,0.0,0.0,0.0,0.0,0.0,0.0,0.0,0.0,0.0,0.0,0.0,0.0,0.0,0.0,0.0,0.0,0.0,0.0,0.0,0.0,0.0,0.0,0.0,0.0,0.0,0.0,0.0,0.0,0.0,0.0,0.0,0.0,0.0,0.0,0.0,0.0,0.0,0.0,0.0,0.0,0.0,0.0,0.0,0.0,0.0,0.0,0.0,0.0,0.0,0.0,0.0,0.0,0.0,0.0,0.0,0.0,0.0,0.0,0.0,0.0,0.0,0.0,0.0,0.0,0.0,0.0,0.0,0.0,0.0,0.0,0.0,0.0,0.0,0.0,0.0,0.0,0.0,0.0,0.0,0.0,0.0,0.0,0.0,0.0,0.0,0.0,0.0,0.0,0.0,0.0,0.0,0.0,0.0,0.0,-2.2531,0.0,-3.0153,-3.3053,-2.9072,-2.6755,0.0,0.0,0.0,0.0,0.0,0.0,0.0,0.0,0.0,0.0,0.0,0.0,0.0,0.0,0.0,0.0,0.0,0.0,0.0,0.0,0.0,0.0,0.0,0.0,0.0,0.0,0.0,0.0,0.0,0.0,0.0,0.0,0.0,0.0,0.0,0.0,0.0,0.0,0.0,0.0,0.0,0.0,0.0,0.0,0.0,0.0,0.0,0.0,0.0,0.0,0.0,0.0,0.0,0.0,0.0,0.0,0.0,0.0,0.0,0.0,0.0,0.0,0.0,0.0,0.0,0.0,0.0,0.0,0.0,0.0,0.0,0.0,0.0,0.0,0.0,0.0,0.0,0.0,0.0,0.0,0.0,0.0,0.0,0.0,0.0,0.0,0.0,0.0,0.0,0.0,0.0,0.0,0.0,0.0,0.0,0.0,0.0,0.0,0.0,0.0,0.0,0.0,0.0,0.0,0.0,0.0,0.0,0.0,-2.2518,-2.8359,-3.2669,-3.3201,-2.9871,-2.9552,-2.6591,0.0,0.0,0.0,0.0,0.0,0.0,0.0,0.0,0.0,0.0,0.0,0.0,0.0,0.0,0.0,0.0,0.0,0.0,0.0,0.0,0.0,0.0,0.0,0.0,0.0,0.0,0.0,0.0,0.0,0.0,0.0,0.0,0.0,0.0,0.0,0.0,0.0,0.0,0.0,0.0,0.0,0.0,0.0,0.0,0.0,0.0,0.0,0.0,0.0,0.0,0.0,0.0,0.0,0.0,0.0,0.0,0.0,0.0,0.0,0.0,0.0,0.0,0.0,0.0,0.0,0.0,0.0,0.0,0.0,0.0,0.0,0.0,0.0,0.0,0.0,0.0,0.0,0.0,0.0,0.0,0.0,0.0,0.0,0.0,0.0,0.0,0.0,0.0,0.0,0.0,0.0,0.0,0.0,0.0,0.0,0.0,0.0,0.0,0.0,0.0,0.0,0.0,0.0,0.0,0.0,0.0,0.0,0.0,0.0,-2.6068,-2.9521,-3.2295,-3.3964,-2.9116,-2.6678,0.0,0.0,0.0,0.0,0.0,0.0,0.0,0.0,0.0,0.0,0.0,0.0,0.0,0.0,0.0,0.0,0.0,0.0,0.0,0.0,0.0,0.0,0.0,0.0,0.0,0.0,0.0,0.0,0.0,0.0,0.0,0.0,0.0,0.0,0.0,0.0,0.0,0.0,0.0,0.0,0.0,0.0,0.0,0.0,0.0,0.0,0.0,0.0,0.0,0.0,0.0,0.0,0.0,0.0,0.0,0.0,0.0,0.0,0.0,0.0,0.0,0.0,0.0,0.0,0.0,0.0,0.0,0.0,0.0,0.0,0.0,0.0,0.0,0.0,0.0,0.0,0.0,0.0,0.0,0.0,0.0,0.0,0.0,0.0,0.0,0.0,0.0,0.0,0.0,0.0,0.0,0.0,0.0,0.0,0.0,0.0,0.0,0.0,0.0,0.0,0.0,0.0,0.0,0.0,0.0,0.0,0.0,0.0,0.0,-2.8942,-3.1874,-3.4399,-3.6257,-3.0945,-2.8418,-2.9028,0.0,0.0,0.0,0.0,0.0,0.0,0.0,0.0,0.0,0.0,0.0,0.0,0.0,0.0,0.0,0.0,0.0,0.0,0.0,0.0,0.0,0.0,0.0,0.0,0.0,0.0,0.0,0.0,0.0,0.0,0.0,0.0,0.0,0.0,0.0,0.0,0.0,0.0,0.0,0.0,0.0,0.0,0.0,0.0,0.0,0.0,0.0,0.0,0.0,0.0,0.0,0.0,0.0,0.0,0.0,0.0,0.0,0.0,0.0,0.0,0.0,0.0,0.0,0.0,0.0,0.0,0.0,0.0,0.0,0.0,0.0,0.0,0.0,0.0,0.0,0.0,0.0,0.0,0.0,0.0,0.0,0.0,0.0,0.0,0.0,0.0,0.0,0.0,0.0,0.0,0.0,0.0,0.0,0.0,0.0,0.0,0.0,0.0,0.0,0.0,0.0,0.0,0.0,0.0,0.0,0.0,0.0,0.0,-3.5683,-3.8783,-3.9247,-3.6867,-3.4695,-3.1586,0.0,0.0,0.0,0.0,0.0,0.0,0.0,0.0,0.0,0.0,0.0,0.0,0.0,0.0,0.0,0.0,0.0,0.0,0.0,0.0,0.0,0.0,0.0,0.0,0.0,0.0,0.0,0.0,0.0,0.0,0.0,0.0,0.0,0.0,0.0,0.0,0.0,0.0,0.0,0.0,0.0,0.0,0.0,0.0,0.0,0.0,0.0,0.0,0.0,0.0,0.0,0.0,0.0,0.0,0.0,0.0,0.0,0.0,0.0,0.0,0.0,0.0,0.0,0.0,0.0,0.0,0.0,0.0,0.0,0.0,0.0,0.0,0.0,0.0,0.0,0.0,0.0,0.0,0.0,0.0,0.0,0.0,0.0,0.0,0.0,0.0,0.0,0.0,0.0,0.0,0.0,0.0,0.0,0.0,0.0,0.0,0.0,0.0,0.0,0.0,0.0,0.0,0.0,0.0,0.0,0.0,0.0,0.0,0.0,-3.9538,-4.2731,-4.3602,-4.1947,-3.7397,-3.391,0.0,0.0,0.0,0.0,0.0,0.0,0.0,0.0,0.0,0.0,0.0,0.0,0.0,0.0,0.0,0.0,0.0,0.0,0.0,0.0,0.0,0.0,0.0,0.0,0.0,0.0,0.0,0.0,0.0,0.0,0.0,0.0,0.0,0.0,0.0,0.0,0.0,0.0,0.0,0.0,0.0,0.0,0.0,0.0,0.0,0.0,0.0,0.0,0.0,0.0,0.0,0.0,0.0,0.0,0.0,0.0,0.0,0.0,0.0,0.0,0.0,0.0,0.0,0.0,0.0,0.0,0.0,0.0,0.0,0.0,0.0,0.0,0.0,0.0,0.0,0.0,0.0,0.0,0.0,0.0,0.0,0.0,0.0,0.0,0.0,0.0,0.0,0.0,0.0,0.0,0.0,0.0,0.0,0.0,0.0,0.0,0.0,0.0,0.0,0.0,0.0,0.0,0.0,0.0,0.0,0.0,0.0,0.0,-3.8463,-4.2615,-4.5576,-4.6708,-4.5982,-4.1453,-3.7513,0.0,0.0,0.0,0.0,0.0,0.0,0.0,0.0,0.0,0.0,0.0,0.0,0.0,0.0,0.0,0.0,0.0,0.0,0.0,0.0,0.0,0.0,0.0,0.0,0.0,0.0,0.0,0.0,0.0,0.0,0.0,0.0,0.0,0.0,0.0,0.0,0.0,0.0,0.0,0.0,0.0,0.0,0.0,0.0,0.0,0.0,0.0,0.0,0.0,0.0,0.0,0.0,0.0,0.0,0.0,0.0,0.0,0.0,0.0,0.0,0.0,0.0,0.0,0.0,0.0,0.0,0.0,0.0,0.0,0.0,0.0,0.0,0.0,0.0,0.0,0.0,0.0,0.0,0.0,0.0,0.0,0.0,0.0,0.0,0.0,0.0,0.0,0.0,0.0,0.0,0.0,0.0,0.0,0.0,0.0,0.0,0.0,0.0,0.0,0.0,0.0,0.0,0.0,0.0,0.0,0.0,0.0,0.0,-4.1366,-4.5024,-4.7666,-4.9001,-4.8827,-4.5721,-4.1366,0.0,0.0,0.0,0.0,0.0,0.0,0.0,0.0,0.0,0.0,0.0,0.0,0.0,0.0,0.0,0.0,0.0,0.0,0.0,0.0,0.0,0.0,0.0,0.0,0.0,0.0,0.0,0.0,0.0,0.0,0.0,0.0,0.0,0.0,0.0,0.0,0.0,0.0,0.0,0.0,0.0,0.0,0.0,0.0,0.0,0.0,0.0,0.0,0.0,0.0,0.0,0.0,0.0,0.0,0.0,0.0,0.0,0.0,0.0,0.0,0.0,0.0,0.0,0.0,0.0,0.0,0.0,0.0,0.0,0.0,0.0,0.0,0.0,0.0,0.0,0.0,0.0,0.0,0.0,0.0,0.0,0.0,0.0,0.0,0.0,0.0,0.0,0.0,0.0,0.0,0.0,0.0,0.0,0.0,0.0,0.0,0.0,0.0,0.0,0.0,0.0,0.0,0.0,0.0,0.0,0.0,0.0,0.0,-4.3573,-4.6343,-4.9407,-5.0772,-5.0249,-4.6185,-4.1976,0.0,0.0,0.0,0.0,0.0,0.0,0.0,0.0,0.0,0.0,0.0,0.0,0.0,0.0,0.0,0.0,0.0,0.0,0.0,0.0,0.0,0.0,0.0,0.0,0.0,0.0,0.0,0.0,0.0,0.0,0.0,0.0,0.0,0.0,0.0,0.0,0.0,0.0,0.0,0.0,0.0,0.0,0.0,0.0,0.0,0.0,0.0,0.0,-2.1278,0.0,0.0,0.0,0.0,0.0,0.0,0.0,0.0,0.0,0.0,0.0,0.0,0.0,0.0,0.0,0.0,0.0,0.0,0.0,0.0,0.0,0.0,0.0,0.0,0.0,0.0,0.0,0.0,0.0,0.0,0.0,0.0,0.0,0.0,0.0,0.0,0.0,0.0,0.0,0.0,0.0,0.0,0.0,0.0,0.0,0.0,0.0,0.0,0.0,0.0,0.0,0.0,0.0,0.0,0.0,0.0,0.0,0.0,0.0,-4.5285,-4.8101,-5.0423,-5.1468,-5.1004,-4.7637,-4.366,0.0,0.0,0.0,0.0,0.0,0.0,0.0,0.0,0.0,0.0,0.0,0.0,0.0,0.0,0.0,0.0,0.0,0.0,0.0,0.0,0.0,0.0,0.0,0.0,0.0,0.0,0.0,0.0,0.0,0.0,0.0,0.0,0.0,0.0,0.0,0.0,0.0,0.0,0.0,0.0,0.0,0.0,0.0,0.0,0.0,0.0,0.0,0.0,0.0,0.0,0.0,0.0,0.0,0.0,0.0,0.0,0.0,0.0,0.0,0.0,0.0,0.0,0.0,0.0,0.0,0.0,0.0,0.0,0.0,0.0,0.0,0.0,0.0,0.0,0.0,0.0,0.0,0.0,0.0,0.0,0.0,0.0,0.0,0.0,0.0,0.0,0.0,0.0,0.0,0.0,0.0,0.0,0.0,0.0,0.0,0.0,0.0,0.0,0.0,0.0,0.0,0.0,0.0,0.0,0.0,0.0,0.0,-4.1918,-4.6388,-4.9698,-5.1178,-5.1817,-5.1585,-4.932,-4.5663,-4.0612,0.0,0.0,0.0,0.0,0.0,0.0,0.0,0.0,0.0,0.0,0.0,0.0,0.0,0.0,0.0,0.0,0.0,0.0,0.0,0.0,0.0,0.0,0.0,0.0,0.0,0.0,0.0,0.0,0.0,0.0,0.0,0.0,0.0,0.0,0.0,0.0,0.0,0.0,-2.1228,-2.4176,0.0,0.0,0.0,0.0,0.0,0.0,0.0,0.0,-2.3368,0.0,0.0,0.0,0.0,0.0,0.0,0.0,0.0,0.0,0.0,0.0,0.0,0.0,0.0,0.0,0.0,0.0,0.0,0.0,0.0,0.0,0.0,0.0,0.0,0.0,0.0,0.0,0.0,0.0,0.0,0.0,0.0,0.0,0.0,0.0,0.0,0.0,0.0,0.0,0.0,0.0,0.0,0.0,0.0,0.0,0.0,0.0,0.0,0.0,0.0,0.0,0.0,0.0,0.0,0.0,0.0,-4.0873,-4.3079,-4.6214,-5.0473,-5.2281,-5.2688,-5.1643,-5.0191,-4.6998,-4.1947,0.0,0.0,0.0,0.0,0.0,0.0,0.0,0.0,0.0,0.0,0.0,0.0,0.0,0.0,0.0,0.0,0.0,0.0,0.0,0.0,0.0,0.0,0.0,0.0,0.0,0.0,0.0,0.0,0.0,0.0,0.0,0.0,0.0,0.0,0.0,0.0,0.0,0.0,0.0,-2.749,-2.8302,0.0,0.0,0.0,0.0,0.0,0.0,0.0,0.0,-2.3722,0.0,0.0,0.0,0.0,0.0,0.0,0.0,0.0,0.0,0.0,0.0,0.0,0.0,0.0,0.0,0.0,0.0,0.0,0.0,0.0,0.0,0.0,0.0,0.0,0.0,0.0,0.0,0.0,0.0,0.0,0.0,0.0,0.0,0.0,0.0,0.0,0.0,0.0,0.0,0.0,0.0,0.0,0.0,0.0,0.0,0.0,0.0,0.0,0.0,0.0,0.0,0.0,0.0,0.0,0.0,-4.0786,-4.4618,-4.7985,-5.1091,-5.2688,-5.2891,-5.1614,-4.9088,-4.5953,0.0,0.0,0.0,0.0,0.0,0.0,0.0,0.0,0.0,0.0,0.0,0.0,0.0,0.0,0.0,0.0,0.0,0.0,0.0,0.0,0.0,0.0,0.0,0.0,0.0,0.0,0.0,0.0,0.0,0.0,0.0,0.0,0.0,0.0,0.0,0.0,0.0,0.0,0.0,0.0,-2.8768,-2.9523,-3.0539,0.0,0.0,0.0,0.0,0.0,0.0,-2.5865,-2.4849,0.0,0.0,0.0,0.0,0.0,0.0,0.0,0.0,0.0,0.0,0.0,0.0,0.0,0.0,0.0,0.0,0.0,0.0,0.0,0.0,0.0,0.0,0.0,0.0,0.0,0.0,0.0,0.0,0.0,0.0,0.0,0.0,0.0,0.0,0.0,0.0,0.0,0.0,0.0,0.0,0.0,0.0,0.0,0.0,0.0,0.0,0.0,0.0,0.0,0.0,0.0,0.0,0.0,0.0,0.0,-4.0205,-4.5488,-4.9349,-5.173,-5.2804,-5.2775,-5.1585,-4.813,-4.4879,0.0,0.0,0.0,0.0,0.0,0.0,0.0,0.0,0.0,0.0,0.0,0.0,0.0,0.0,0.0,0.0,0.0,0.0,0.0,0.0,0.0,0.0,0.0,0.0,0.0,0.0,0.0,0.0,0.0,0.0,0.0,0.0,0.0,0.0,0.0,0.0,0.0,0.0,0.0,0.0,0.0,-3.1061,-3.2278,-3.106,0.0,0.0,0.0,0.0,-2.8884,-2.7984,0.0,0.0,0.0,0.0,0.0,0.0,0.0,0.0,0.0,0.0,0.0,0.0,0.0,0.0,0.0,0.0,0.0,0.0,0.0,0.0,0.0,0.0,0.0,0.0,0.0,0.0,0.0,0.0,0.0,0.0,0.0,0.0,0.0,0.0,0.0,0.0,0.0,0.0,0.0,0.0,0.0,0.0,0.0,0.0,0.0,0.0,0.0,0.0,0.0,0.0,0.0,0.0,0.0,0.0,0.0,0.0,-4.0757,-4.4414,-4.8246,-5.2274,-5.2652,-5.2339,-5.1614,-4.8972,-4.5576,0.0,0.0,0.0,0.0,0.0,0.0,0.0,0.0,0.0,0.0,0.0,0.0,0.0,0.0,0.0,0.0,0.0,0.0,0.0,0.0,0.0,0.0,0.0,0.0,0.0,0.0,0.0,0.0,0.0,0.0,0.0,0.0,0.0,0.0,0.0,0.0,0.0,0.0,0.0,0.0,0.0,-3.3496,-3.2597,-3.1816,-3.1611,0.0,0.0,-3.0974,-3.3267,-3.2571,0.0,0.0,0.0,0.0,0.0,0.0,0.0,0.0,0.0,0.0,0.0,0.0,0.0,0.0,0.0,0.0,0.0,0.0,0.0,0.0,0.0,0.0,0.0,0.0,0.0,0.0,0.0,0.0,0.0,0.0,0.0,0.0,0.0,0.0,0.0,0.0,0.0,0.0,0.0,0.0,0.0,0.0,0.0,0.0,0.0,0.0,0.0,0.0,0.0,0.0,0.0,0.0,0.0,0.0,0.0,-3.4428,-4.1512,-4.5866,-4.9524,-5.2426,-5.292,-5.263,-5.1643,-4.8072,-4.456,0.0,0.0,0.0,0.0,0.0,0.0,0.0,0.0,0.0,0.0,0.0,0.0,0.0,0.0,0.0,0.0,0.0,0.0,0.0,0.0,0.0,0.0,0.0,0.0,0.0,0.0,0.0,0.0,0.0,0.0,0.0,0.0,0.0,0.0,0.0,0.0,0.0,0.0,0.0,0.0,0.0,0.0,-3.4603,-3.4428,0.0,0.0,0.0,-3.359,-3.4312,0.0,0.0,0.0,0.0,0.0,0.0,0.0,0.0,0.0,0.0,0.0,0.0,0.0,0.0,0.0,0.0,0.0,0.0,0.0,0.0,0.0,0.0,0.0,0.0,0.0,0.0,0.0,0.0,0.0,0.0,0.0,0.0,0.0,0.0,0.0,0.0,0.0,0.0,0.0,0.0,0.0,0.0,0.0,0.0,0.0,0.0,0.0,0.0,0.0,0.0,0.0,0.0,0.0,0.0,0.0,0.0,0.0,-4.2005,-4.7114,-5.054,-5.2281,-5.2775,-5.2514,-5.1352,-4.7317,0.0,0.0,0.0,0.0,0.0,0.0,0.0,0.0,0.0,0.0,0.0,0.0,0.0,0.0,0.0,0.0,0.0,0.0,0.0,0.0,0.0,0.0,0.0,0.0,0.0,0.0,0.0,-1.9478,0.0,0.0,0.0,0.0,0.0,0.0,0.0,0.0,0.0,0.0,0.0,0.0,0.0,0.0,-3.4549,-3.6083,-3.6722,-3.6925,0.0,0.0,-3.617,-3.5677,-3.5619,-3.437,0.0,0.0,0.0,0.0,0.0,0.0,0.0,0.0,0.0,0.0,0.0,0.0,0.0,0.0,0.0,0.0,0.0,0.0,0.0,0.0,0.0,0.0,0.0,0.0,0.0,0.0,0.0,0.0,0.0,0.0,0.0,0.0,0.0,0.0,0.0,0.0,0.0,0.0,0.0,0.0,0.0,0.0,0.0,0.0,0.0,0.0,0.0,0.0,0.0,0.0,0.0,0.0,0.0,0.0,-3.5677,-4.2005,-4.7114,-5.0365,-5.1614,-5.173,-5.141,-5.0714,-4.755,-4.4037,0.0,0.0,0.0,0.0,0.0,0.0,0.0,0.0,0.0,0.0,0.0,0.0,0.0,0.0,0.0,0.0,0.0,0.0,0.0,0.0,0.0,0.0,0.0,0.0,0.0,0.0,0.0,0.0,0.0,0.0,0.0,0.0,0.0,0.0,0.0,0.0,0.0,0.0,0.0,0.0,0.0,-3.5537,-3.6199,-3.7854,-3.9189,0.0,-3.9305,-3.8928,-3.887,-3.887,-3.7186,-3.2162,0.0,0.0,0.0,0.0,0.0,0.0,0.0,0.0,0.0,0.0,0.0,0.0,0.0,0.0,0.0,0.0,0.0,0.0,0.0,0.0,0.0,0.0,0.0,0.0,0.0,0.0,0.0,0.0,0.0,0.0,0.0,0.0,0.0,0.0,0.0,0.0,0.0,0.0,0.0,0.0,0.0,0.0,0.0,0.0,0.0,0.0,0.0,0.0,0.0,0.0,0.0,0.0,0.0,-3.588,-4.2557,-4.6911,-4.9901,-5.1527,-5.1643,-5.1323,-5.0685,-4.8333,-4.5053,0.0,0.0,0.0,0.0,0.0,0.0,0.0,0.0,0.0,0.0,0.0,0.0,0.0,0.0,0.0,0.0,0.0,0.0,0.0,0.0,0.0,0.0,0.0,0.0,0.0,0.0,0.0,0.0,-2.2962,-2.3484,-2.2301,0.0,0.0,0.0,0.0,0.0,0.0,0.0,0.0,0.0,0.0,-3.7622,-3.9073,-4.0263,0.0,0.0,-4.0176,-3.9741,-3.9741,-3.8434,-3.6489,-3.3761,-3.1211,0.0,0.0,0.0,0.0,0.0,0.0,0.0,0.0,0.0,0.0,0.0,0.0,0.0,0.0,0.0,0.0,0.0,0.0,0.0,0.0,0.0,0.0,0.0,0.0,0.0,0.0,0.0,0.0,0.0,0.0,0.0,0.0,0.0,0.0,0.0,0.0,0.0,0.0,0.0,0.0,0.0,0.0,0.0,0.0,0.0,0.0,0.0,0.0,0.0,0.0,0.0,0.0,-3.6054,-4.2673,-4.6679,-4.9465,-5.1004,-5.1236,-5.1033,-5.0336,-4.8508,-4.5663,0.0,0.0,0.0,0.0,0.0,0.0,0.0,0.0,0.0,0.0,0.0,0.0,0.0,0.0,0.0,0.0,0.0,0.0,0.0,0.0,0.0,0.0,0.0,0.0,0.0,0.0,0.0,0.0,-2.4099,-2.4268,-2.2504,0.0,0.0,0.0,0.0,0.0,0.0,0.0,0.0,0.0,0.0,-3.9218,-4.1105,-4.1802,-4.1947,-4.1453,-4.0815,-4.0263,-3.9886,-3.8492,-3.6751,-3.4748,0.0,0.0,0.0,0.0,0.0,0.0,0.0,0.0,0.0,0.0,0.0,0.0,0.0,0.0,0.0,0.0,0.0,0.0,0.0,0.0,0.0,0.0,0.0,0.0,0.0,0.0,0.0,-1.823,0.0,0.0,-1.9072,0.0,0.0,0.0,0.0,0.0,0.0,0.0,0.0,0.0,0.0,0.0,0.0,0.0,0.0,0.0,0.0,0.0,0.0,0.0,0.0,0.0,0.0,-3.6351,-4.2063,-4.6475,-4.9059,-4.9727,-5.0365,-5.0415,-4.9698,-4.7869,-4.5634,-4.2963,0.0,0.0,0.0,0.0,0.0,0.0,0.0,0.0,0.0,0.0,0.0,0.0,0.0,0.0,0.0,0.0,0.0,0.0,0.0,0.0,0.0,0.0,0.0,0.0,0.0,0.0,-2.2859,-2.2946,-2.2533,0.0,0.0,0.0,0.0,0.0,0.0,0.0,0.0,0.0,-3.5851,-3.797,-3.9886,-4.1802,-4.2092,-4.215,-4.2092,-4.1512,-4.067,-3.9479,-3.9625,-3.8725,0.0,0.0,0.0,0.0,0.0,0.0,0.0,0.0,0.0,0.0,0.0,0.0,0.0,0.0,0.0,0.0,0.0,0.0,0.0,0.0,0.0,0.0,0.0,0.0,0.0,0.0,0.0,-2.4878,-2.392,0.0,0.0,0.0,0.0,0.0,0.0,0.0,0.0,0.0,0.0,0.0,-3.4806,-3.6693,0.0,0.0,0.0,0.0,0.0,0.0,0.0,0.0,0.0,0.0,0.0,0.0,-3.6286,-4.1976,-4.604,-4.8624,-4.964,-4.9901,-4.9901,-4.9717,-4.8653,-4.6301,-4.2498,0.0,0.0,0.0,0.0,0.0,0.0,0.0,0.0,0.0,0.0,0.0,0.0,0.0,0.0,0.0,0.0,0.0,0.0,0.0,0.0,0.0,0.0,0.0,0.0,0.0,-2.2852,0.0,0.0,0.0,0.0,0.0,0.0,0.0,0.0,0.0,0.0,-3.2164,-3.5561,-3.7912,-4.0234,-4.1976,-4.2615,-4.3079,-4.3195,0.0,0.0,0.0,0.0,0.0,0.0,0.0,0.0,0.0,0.0,0.0,0.0,0.0,0.0,-3.1853,-2.5879,-2.433,-2.3879,-2.3889,0.0,0.0,0.0,0.0,0.0,0.0,0.0,0.0,0.0,0.0,0.0,0.0,0.0,0.0,-2.9697,-2.9087,-2.8158,0.0,0.0,0.0,0.0,0.0,0.0,0.0,0.0,-3.6409,-3.8812,-3.9712,-4.1541,-4.1541,-3.9944,-3.9102,-3.5764,0.0,0.0,0.0,0.0,0.0,0.0,0.0,0.0,-3.7622,-4.2644,-4.6301,-4.8624,-4.9688,-4.9746,-4.9746,-4.9717,-4.8624,-4.6388,-4.2847,-3.9547,-3.6809,0.0,0.0,0.0,0.0,0.0,0.0,0.0,0.0,0.0,0.0,0.0,0.0,0.0,0.0,0.0,0.0,0.0,0.0,0.0,0.0,0.0,0.0,0.0,-2.4331,0.0,0.0,0.0,0.0,0.0,0.0,0.0,0.0,0.0,-3.1932,-3.5241,-3.8492,-4.0873,-4.2237,-4.3224,-4.3921,0.0,0.0,0.0,0.0,0.0,0.0,0.0,-3.7856,-3.9244,-3.6428,-3.4079,-3.4187,-3.5426,-3.5984,-3.481,0.0,0.0,-2.9674,-2.8126,-2.7766,-2.7903,-2.8486,-2.8933,-2.8849,-2.9585,-3.0188,0.0,0.0,0.0,0.0,-3.019,0.0,0.0,0.0,-3.2803,-3.3383,0.0,-3.2454,0.0,0.0,0.0,0.0,-2.9261,-3.3416,0.0,0.0,-4.1628,-4.4066,-4.4124,-4.4705,-4.4995,-4.5082,-4.6098,-4.4385,-3.9944,-3.3441,0.0,0.0,0.0,0.0,0.0,0.0,-4.0176,-4.4008,-4.7114,-4.903,-4.9688,-4.9746,-4.9746,-4.964,-4.7869,-4.604,-4.4182,-4.2818,-4.0118,-3.5886,-3.4346,0.0,0.0,0.0,0.0,0.0,0.0,0.0,0.0,0.0,0.0,0.0,0.0,0.0,0.0,0.0,0.0,0.0,0.0,0.0,0.0,-2.6065,0.0,0.0,0.0,0.0,0.0,0.0,0.0,0.0,0.0,-3.6649,-3.4894,-3.7866,-4.1366,-4.4371,0.0,0.0,0.0,0.0,-4.3282,-4.3849,-4.3456,-4.2847,-4.2225,-4.1682,-4.1254,-4.111,0.0,0.0,-3.5082,-3.6538,-3.7338,-3.5027,-3.6213,-3.7086,-3.6505,-3.471,-3.3726,-3.4105,-3.3408,-3.3134,-3.3582,-3.404,-3.4605,-4.276,0.0,0.0,0.0,0.0,-3.8405,-4.0176,-4.3079,-4.2353,-4.1366,-4.0176,-3.8928,0.0,0.0,0.0,0.0,0.0,0.0,-3.916,-4.1192,-4.4037,-4.5837,-4.6708,-4.7346,-4.7608,-4.7561,-4.7085,-4.5924,-4.4182,-4.1744,-3.7099,-3.0567,0.0,0.0,0.0,0.0,-4.1947,-4.5256,-4.7579,-4.903,-4.9669,-4.9746,-4.9746,-4.9717,-4.8275,-4.723,-4.6679,-4.4618,-4.2644,-4.0844,-3.7854,0.0,0.0,0.0,0.0,0.0,0.0,0.0,0.0,0.0,0.0,0.0,0.0,0.0,0.0,0.0,0.0,0.0,0.0,0.0,-2.5342,-2.6326,-2.6907,0.0,0.0,0.0,0.0,0.0,0.0,0.0,0.0,0.0,-3.8901,-4.1213,-4.3113,0.0,0.0,-4.4094,-4.3515,-4.3947,-4.3979,-4.2988,-4.3717,0.0,-4.2505,-4.1012,-4.0316,-4.1432,-4.0377,-3.932,-3.9252,-3.927,-3.8994,-3.8216,-3.8592,-3.8919,-3.8668,-3.7061,-3.5784,-3.5787,-3.5837,-3.5984,-3.6185,-3.6636,-3.7061,-4.9901,-4.5634,-4.3485,-4.3427,-4.4705,-4.456,-4.604,-4.8526,-4.7724,-4.6882,-4.5953,-4.4676,-4.2208,-3.887,-3.7215,0.0,0.0,0.0,-4.2818,-4.5314,-4.6475,-4.755,-4.8537,-4.8943,-4.9088,-4.9059,-4.8333,-4.7753,-4.7375,-4.6998,-4.3573,-3.7418,0.0,-3.7941,-3.8289,-4.1395,-4.4182,-4.6592,-4.8275,-4.9291,-4.9717,-4.9746,-4.9582,-4.9262,-4.8304,-4.7666,-4.7375,-4.5692,-4.4327,-4.3398,-4.0728,-3.7506,0.0,0.0,0.0,0.0,0.0,0.0,0.0,0.0,0.0,0.0,0.0,-2.3891,-2.122,0.0,0.0,0.0,-2.4907,-2.6736,-2.868,-2.9406,0.0,0.0,0.0,0.0,0.0,0.0,0.0,-3.7234,-4.0293,-4.2105,-4.1743,-4.3873,-4.5195,-4.4288,-4.5057,-4.5216,-4.404,0.0,-4.4962,-4.3934,-4.4669,-4.4962,-4.3906,-4.239,-4.137,-4.1507,-4.0885,-4.0313,-4.0516,-4.0083,-3.9697,-3.9697,-3.9697,-3.9697,-3.9697,-3.8567,-3.7737,-3.7713,-3.7965,-3.8165,-3.8165,-3.8442,-3.8668,-5.5242,-5.4371,-5.0249,-4.8798,-4.9233,-4.9814,-5.0124,-5.0104,-5.0017,-5.0357,-5.0714,-4.9436,-4.7869,-4.6011,-4.3166,0.0,-4.5343,-4.5343,-4.6621,-4.8885,-4.8779,-4.9117,-4.9717,-4.9717,-4.9746,-4.9717,-4.9746,-4.9746,-4.9717,-4.9688,-4.8526,-4.6185,-4.4414,-4.3747,-4.4182,-4.543,-4.6708,-4.7927,-4.9136,-4.9746,-4.9746,-4.9611,-4.932,-4.874,-4.8043,-4.7404,-4.672,-4.6127,-4.5227,-4.4037,-4.2731,-4.0089,-3.5915,0.0,0.0,0.0,0.0,0.0,0.0,0.0,0.0,0.0,0.0,0.0,0.0,0.0,0.0,0.0,-2.9406,0.0,-3.3561,-3.4225,0.0,0.0,0.0,-3.5444,-3.6925,-3.9625,-4.1083,-4.0287,0.0,0.0,-4.3384,-4.5663,-4.702,-4.5656,-4.6305,-4.6667,-4.6055,-4.6013,-4.604,-4.583,-4.5995,-4.5966,-4.5396,-4.4414,-4.3006,-4.1538,-4.1119,-4.0693,-4.0083,-3.9749,-3.9749,-3.9697,-3.9697,-3.9697,-3.9697,-3.9597,-3.9697,-3.9572,-3.9622,-3.9647,-3.9572,-3.9597,-3.9597,-5.6781,-5.6549,-5.5474,-5.4313,-5.3152,-5.3297,-5.3617,-5.3936,-5.3007,-5.2426,-5.2071,-5.0772,-4.9669,-4.874,-4.8508,-4.8788,-4.9291,-4.9291,-4.9611,-5.0162,-4.9698,-4.9524,-4.9669,-4.9746,-4.9746,-4.9746,-4.9746,-4.9746,-4.9746,-4.9746,-4.9378,-4.8769,-4.8352,-4.7201,-4.5576,-4.7172,-4.8449,-4.9233,-4.9572,-4.9746,-4.9717,-4.9204,-4.8885,-4.8711,-4.7637,-4.6766,-4.6127,-4.5459,-4.4763,-4.3979,-4.2295,-4.0408,-3.8347,-3.3416,0.0,0.0,0.0,0.0,0.0,0.0,0.0,0.0,0.0,-2.8855,-2.3548,0.0,-3.0364,0.0,-3.199,-3.408,-3.5503,-3.5764,0.0,0.0,-3.9363,-4.0031,-4.3224,-4.3834,-4.3694,-4.2828,-4.4519,-4.5224,-4.3756,-4.4652,-4.5602,-4.6023,-4.6925,-4.6938,-4.5327,-4.6404,-4.7009,-4.6386,-4.6839,-4.6602,-4.4614,-4.2917,-4.1864,-4.1269,-4.0567,-4.0211,-4.0743,-4.0236,-3.9697,-3.9697,-3.9697,-3.9697,-3.9697,-3.9697,-3.9697,-3.9697,-3.9697,-3.9697,-3.9697,-3.9697,-3.9697,-5.7303,-5.7303,-5.7303,-5.6694,-5.5765,-5.5765,-5.5794,-5.5794,-5.5126,-5.4429,-5.3762,-5.2484,-5.173,-5.1352,-5.1178,-5.1265,-5.1519,-5.0967,-5.083,-5.1033,-5.0104,-4.9746,-4.9746,-4.9746,-4.9746,-4.9746,-4.9746,-4.9746,-4.9746,-5.0008,-5.0037,-4.9746,-5.0008,-4.9311,-4.7695,-4.8624,-4.932,-4.9717,-4.9746,-4.9456,-4.8856,-4.8769,-4.8333,-4.7491,-4.6795,-4.5837,-4.4647,-4.3979,-4.334,-4.2702,-4.1134,-3.9799,-3.8754,-3.4956,-3.2167,0.0,0.0,0.0,0.0,0.0,0.0,0.0,0.0,0.0,0.0,0.0,-3.3325,-3.3558,-3.588,-3.7912,-3.916,-4.006,-4.1453,-4.3573,-4.3631,-4.4385,-4.6505,-4.665,-4.6336,-4.5674,-4.6618,-4.6703,-4.5153,-4.6077,-4.6712,-4.6372,-4.768,-4.7951,-4.6299,-4.7153,-4.7912,-4.7119,-4.7423,-4.7051,-4.4699,-4.3025,-4.1766,-4.1219,-4.0364,-3.9878,-4.0415,-4.0083,-3.9697,-3.9697,-3.9697,-3.9697,-3.9697,-3.9697,-3.9697,-3.9697,-3.9697,-3.9697,-3.9697,-3.9697,-3.9697,-5.7419,-5.7448,-5.7419,-5.7419,-5.7419,-5.7332,-5.7013,-5.652,-5.6432,-5.6026,-5.5329,-5.4139,-5.3646,-5.3559,-5.2397,-5.2165,-5.2652,-5.1381,-5.1091,-5.1527,-5.0278,-4.9746,-4.9746,-4.9746,-4.9746,-4.9746,-4.9746,-4.9746,-4.9746,-5.0328,-5.0299,-4.9776,-5.0328,-5.0299,-4.9746,-4.9746,-4.9688,-4.9553,-4.9465,-4.8933,-4.7858,-4.8246,-4.7666,-4.5982,-4.5721,-4.4734,-4.2847,-4.2382,-4.1802,-4.0989,-4.006,-3.9218,-3.8463,-3.6671,-3.5043,0.0,-3.2367,0.0,0.0,0.0,0.0,0.0,0.0,0.0,0.0,-3.6177,-3.6932,-3.7941,-4.0263,-4.215,-4.3253,-4.4966,-4.6069,-4.6272,-4.723,-4.7927,-4.8061,-4.8508,-4.8594,-4.8066,-4.8852,-4.8674,-4.6892,-4.8195,-4.8474,-4.7252,-4.8217,-4.8763,-4.7843,-4.8247,-4.8634,-4.8072,-4.7691,-4.6747,-4.5232,-4.3579,-4.2069,-4.1272,-4.0364,-3.9749,-3.9749,-3.9749,-3.9697,-3.9697,-3.9697,-3.9697,-3.9697,-3.9697,-3.9697,-3.9697,-3.9697,-3.9697,-3.9697,-3.9697,-3.9697,-5.8116,-5.8116,-5.8116,-5.8116,-5.8058,-5.7536,-5.7245,-5.71,-5.6636,-5.6026,-5.5358,-5.4633,-5.4313,-5.4255,-5.35,-5.3239,-5.3268,-5.202,-5.1497,-5.1556,-5.0278,-4.9746,-4.9746,-4.9746,-4.9746,-4.9746,-4.9746,-4.9746,-4.9746,-4.9863,-4.9785,-4.9746,-4.9863,-4.9814,-4.9746,0.0,0.0,0.0,-4.8391,-4.8014,-4.7782,-4.7375,-4.672,-4.5895,-4.4879,0.0,-4.1599,-4.2324,-4.2034,-4.0437,-4.1105,0.0,0.0,0.0,0.0,0.0,0.0,0.0,0.0,0.0,0.0,0.0,-3.7912,-3.7389,-3.7099,-4.0263,-4.2237,-4.2005,-4.3776,-4.5082,-4.5314,-4.6127,-4.7056,-4.8072,-4.842,-4.874,-4.9282,-4.9485,-4.9133,-4.8094,-4.8252,-4.8173,-4.7791,-4.7331,-4.7536,-4.8724,-4.8624,-4.8596,-4.9153,-4.9319,-4.9436,-4.9243,-4.7574,-4.5829,-4.4852,-4.2699,-4.1336,-4.1,-4.0364,-3.9749,-3.9697,-3.9697,-3.9697,-3.9697,-3.9697,-3.9697,-3.9697,-3.9697,-3.9697,-3.9697,-3.9697,-3.9697,-3.9697,-3.9697,-3.9697,-5.829,-5.8319,-5.8668,-5.8813,0.0,-5.8435,-5.829,-5.8232,-5.7274,-5.6665,-5.6316,-5.5707,-5.5271,-5.4923,-5.4284,-5.3849,-5.3471,-5.2514,-5.1904,-5.1556,-5.0627,-4.9988,-4.9746,-4.9746,-4.9746,-4.9746,-4.9746,-4.9746,-4.9746,-4.9746,-4.9746,-4.9746,-4.9746,-4.9746,-4.9717,-4.9059,-4.8566,-4.8246,-4.7927,-4.7538,-4.6882,-4.6824,-4.6359,-4.5401,-4.4472,0.0,0.0,0.0,0.0,0.0,0.0,0.0,0.0,-3.9509,0.0,-3.8667,-3.8057,-3.7825,-3.8173,-3.8783,-3.9973,-4.186,-4.2905,-4.2644,-4.0757,-4.3544,-4.5401,-4.5401,-4.6534,-4.7288,-4.7288,-4.7869,-4.8508,-4.9117,-4.9175,-4.932,-4.9611,-4.9746,-4.9473,-4.9001,-4.8852,-4.8852,-4.8852,-4.8374,-4.8424,-4.9473,-4.9227,-4.905,-4.9571,-4.9746,-4.9746,-4.9669,-4.8358,-4.6634,-4.5193,-4.3475,-4.1698,-4.1055,-4.0209,-3.9774,-3.9697,-3.9697,-3.9697,-3.9697,-3.9697,-3.9697,-3.9697,-3.9697,-3.9697,-3.9697,-3.9697,-3.9697,-3.9697,-3.9697,-3.9697,-5.8639,-5.8697,-5.9248,-5.9451,-5.9451,-5.9335,-5.9219,-5.9045,-5.7942,0.0,0.0,-5.6665,-5.6026,-5.5387,-5.4778,-5.4139,-5.35,-5.2862,-5.2281,-5.1759,-5.1004,-5.0394,-4.9892,-4.9756,-4.9746,-4.9746,-4.9746,-4.9746,-4.9746,-4.9746,-4.9746,-4.9746,-4.9746,-4.9746,-4.9611,-4.8537,-4.7898,-4.7829,-4.7596,-4.694,-4.5953,-4.6388,-4.6098,-4.4908,-4.4298,-4.3631,-4.2847,-4.1512,-4.067,-4.0466,-4.0292,-4.0321,-4.0612,-4.125,-4.2005,-4.2905,-4.3108,-4.3195,-4.3311,-4.3834,-4.4211,-4.4298,-4.6446,-4.694,-4.4937,-4.6359,-4.755,-4.8072,-4.8595,-4.8885,-4.8885,-4.9349,-4.9746,-4.9746,-4.9746,-4.9717,-4.9746,-4.9746,-4.9669,-4.9746,-4.962,-4.9698,-4.9669,-4.962,-4.9746,-4.9669,-4.9649,-4.9746,-4.9746,-4.9746,-4.9571,-4.9268,-4.86,-4.7807,-4.6206,-4.4633,-4.3252,-4.1929,-4.0901,-4.0211,-4.0032,-3.9981,-3.9878,-3.9697,-3.9697,-3.9697,-3.9697,-3.9697,-3.9697,-3.9697,-3.9697,-3.9697,-3.9697,-3.9697,-3.9697,-5.9916,-5.9945,-6.0032,-6.0061,-6.0032,-5.951,-5.8987,-5.8435,-5.8232,-5.7855,-5.7245,-5.6665,-5.6026,-5.5387,-5.4778,-5.4139,-5.3471,-5.2862,-5.2565,-5.2368,-5.1257,-5.0676,-5.056,-4.9959,-4.9746,-4.9746,-4.9746,-4.9746,-4.9746,-4.9746,-4.9746,-4.9746,-4.9746,-4.9717,-4.9611,-4.8972,-4.8333,-4.7782,-4.6708,-4.6069,-4.5895,-4.5982,-4.5663,-4.4908,-4.4327,-4.3427,-4.2266,-4.2992,-4.2934,-4.1918,-4.3282,-4.3631,-4.2673,-4.3195,-4.3427,-4.305,-4.3544,-4.4066,-4.456,-4.4705,-4.5024,-4.5605,-4.7015,-4.784,-4.8072,-4.8798,-4.9369,-4.9407,-4.9465,-4.9553,-4.9553,-4.964,-4.9746,-4.9746,-4.9746,-4.9746,-4.9746,-4.9746,-4.9746,-4.9746,-4.9746,-4.9746,-4.9746,-4.9746,-4.9746,-4.9746,-4.9746,-4.9746,-4.9746,-4.9746,-4.9277,-4.8503,-4.8167,-4.7734,-4.6907,-4.5513,-4.4507,-4.465,-4.315,-4.1864,-4.1119,-4.0969,-4.0693,-3.9878,-3.9852,-3.9749,-3.9749,-3.9697,-3.9697,-3.9697,-3.9697,-3.9697,-3.9697,-3.9697,-3.9697,-6.0206,-6.0235,-6.0584,-6.0729,-6.07,-6.0438,-5.9945,-5.9306,-5.8987,-5.8261,-5.7332,-5.7013,-5.6345,-5.5416,-5.5126,-5.4458,-5.35,-5.321,-5.2891,-5.2543,-5.2013,-5.1527,-5.1149,-5.0511,-5.0394,-5.0656,-4.9988,-5.0046,-5.0656,-5.0394,-5.022,-5.0191,-4.9892,-4.9494,-4.9146,-4.8885,-4.842,-4.7782,-4.6853,-4.6243,-4.5895,-4.5895,-4.575,-4.543,-4.4821,-4.4414,-4.4153,-4.4037,-4.3863,-4.3602,-4.4414,-4.4618,-4.4066,-4.4647,-4.4879,-4.4589,-4.485,-4.514,-4.5401,-4.543,-4.5866,-4.687,-4.7462,-4.8217,-4.9175,-4.9524,-4.9717,-4.9746,-4.9746,-4.9746,-4.9746,-4.9746,-4.9746,-4.9746,-4.9746,-4.9746,-4.9746,-4.9746,-4.9746,-4.9746,-4.9746,-4.9746,-4.9746,-4.9746,-4.9746,-4.9746,-4.9746,-4.9746,-4.9746,-4.9698,-4.9522,-4.905,-4.8951,-4.8539,-4.77,-4.6411,-4.5475,-4.5044,-4.3731,-4.2728,-4.211,-4.2061,-4.1617,-4.0743,-4.0491,-4.0262,-3.9878,-3.9697,-3.9697,-3.9697,-3.9697,-3.9697,-3.9697,-3.9697,-3.9697,-6.0409,-6.0467,-6.099,-6.1193,-6.1164,-6.0903,-6.0467,-5.9945,-5.9161,-5.8261,-5.739,-5.7303,-5.6665,-5.5707,-5.5649,-5.4952,-5.3849,-5.3733,-5.3413,-5.2804,-5.2681,-5.2223,-5.1614,-5.112,-5.1062,-5.1294,-5.0511,-5.0627,-5.1468,-5.112,-5.0801,-5.0676,-5.0211,-4.9582,-4.8895,-4.8943,-4.8624,-4.8014,-4.7375,-4.6737,-4.6127,-4.5953,-4.5895,-4.5837,-4.5372,-4.5388,-4.5808,-4.4937,-4.4647,-4.5082,-4.5111,-4.5111,-4.5111,-4.5605,-4.5895,-4.5895,-4.5895,-4.5895,-4.5895,-4.5895,-4.6301,-4.7259,-4.7491,-4.7985,-4.8885,-4.9223,-4.9378,-4.9659,-4.9553,-4.9494,-4.9688,-4.9746,-4.9746,-4.9746,-4.9746,-4.9746,-4.9746,-4.9746,-4.9746,-4.9746,-4.9746,-4.9746,-4.9746,-4.9746,-4.9746,-4.9746,-4.9746,-4.9746,-4.9746,-4.9746,-4.9746,-4.9746,-4.9746,-4.9259,-4.8326,-4.7291,-4.6264,-4.5216,-4.4277,-4.3649,-4.3273,-4.3129,-4.2744,-4.1864,-4.1568,-4.1319,-4.0618,-4.0465,-4.0415,-4.0262,-4.0185,-4.0083,-4.0134,-4.0134,-4.0083,-6.1077,-6.1106,-6.1164,-6.1193,-6.1077,-6.0003,-5.951,-5.9306,-5.8058,-5.7448,-5.739,-5.7303,-5.6955,-5.6374,-5.6287,-5.5591,-5.4458,-5.4429,-5.4052,-5.3384,-5.2833,-5.2223,-5.173,-5.1556,-5.1265,-5.0946,-5.1207,-5.1439,-5.173,-5.1585,-5.1265,-5.0743,-5.0647,-5.0249,-4.9669,-4.963,-4.9262,-4.8653,-4.8014,-4.7375,-4.672,-4.6185,-4.5895,-4.5895,-4.5837,-4.5837,-4.5895,-4.5824,-4.5721,-4.5779,-4.5779,-4.5779,-4.5779,-4.5866,-4.5895,-4.5895,-4.5895,-4.5895,-4.5895,-4.5895,-4.5953,-4.6069,-4.665,-4.7027,-4.723,-4.7695,-4.8478,-4.9262,-4.9146,-4.9088,-4.9582,-4.9746,-4.9746,-4.9746,-4.9746,-4.9746,-4.9746,-4.9746,-4.9746,-4.9746,-4.9746,-4.9746,-4.9746,-4.9746,-4.9746,-4.9746,-4.9746,-4.9746,-4.9746,-4.9746,-4.964,-4.9688,-4.9717,-4.9407,-4.8673,-4.8104,-4.7174,-4.6534,-4.5993,-4.5149,-4.4434,-4.4125,-4.3843,-4.2909,-4.2647,-4.255,-4.2404,-4.2452,-4.2061,-4.1269,-4.1095,-4.1069,-4.1069,-4.1069,-4.1069,-6.1193,-6.1193,-6.1193,-6.1193,-6.1048,-6.0206,-6.0061,-6.0293,-5.9045,-5.8493,-5.8435,-5.8058,-5.7332,-5.6432,-5.6403,-5.591,-5.5039,-5.4691,-5.4371,-5.4052,-5.3442,-5.2978,-5.2746,-5.2339,-5.2223,-5.2281,-5.1875,-5.202,-5.2572,-5.2368,-5.2049,-5.173,-5.1062,-5.0589,-5.0299,-4.9872,-4.9553,-4.9262,-4.8275,-4.7637,-4.7317,-4.6417,-4.5895,-4.5895,-4.5895,-4.5895,-4.5895,-4.5895,-4.5895,-4.5895,-4.5895,-4.5895,-4.5895,-4.5895,-4.5895,-4.5895,-4.5895,-4.5895,-4.5895,-4.5895,-4.604,-4.6417,-4.6633,-4.6969,-4.7375,-4.7637,-4.8159,-4.8885,-4.8885,-4.8972,-4.9582,-4.9746,-4.9746,-4.9746,-4.9746,-4.9746,-4.9746,-4.9746,-4.9746,-4.9746,-4.9746,-4.9746,-4.9746,-4.9746,-4.9746,-4.9746,-4.9746,-4.9746,-4.9746,-4.9746,-4.9524,-4.9204,-4.9117,-4.903,-4.8653,-4.7793,-4.723,-4.6824,-4.6301,-4.5623,-4.5384,-4.5247,-4.4897,-4.3843,-4.3748,-4.3416,-4.2792,-4.284,-4.2598,-4.2159,-4.2208,-4.2306,-4.2909,-4.2523,-4.2425,-6.1193,-6.1193,-6.1193,-6.1193,-6.1135,-6.0467,-6.0467,-6.0729,-5.9568,-5.9045,-5.8958,-5.8319,-5.7536,-5.6752,-5.6636,-5.6316,-5.5678,-5.5242,-5.4836,-5.4517,-5.3994,-5.3588,-5.3268,-5.3007,-5.2978,-5.3094,-5.2514,-5.263,-5.3384,-5.3094,-5.2746,-5.2426,-5.1468,-5.083,-5.0647,-5.0066,-4.9746,-4.9582,-4.8566,-4.8043,-4.7869,-4.6795,-4.6069,-4.5895,-4.5895,-4.5895,-4.5895,-4.5895,-4.5895,-4.5895,-4.5895,-4.5895,-4.5895,-4.5895,-4.5895,-4.5895,-4.5895,-4.5895,-4.5895,-4.5895,-4.6069,-4.6505,-4.6563,-4.6766,-4.7172,-4.7404,-4.7811,-4.8391,-4.8624,-4.8972,-4.9553,-4.9746,-4.9746,-4.9746,-4.9746,-4.9746,-4.9746,-4.9746,-4.9746,-4.9746,-4.9746,-4.9746,-4.9746,-4.9746,-4.9746,-4.9746,-4.9746,-4.9746,-4.9746,-4.9717,-4.9465,-4.8827,-4.8595,-4.8362,-4.8188,-4.7474,-4.6836,-4.6505,-4.6098,-4.5895,-4.5895,-4.5895,-4.5821,-4.4805,-4.4759,-4.4666,-4.4294,-4.389,-4.3416,-4.3225,-4.3129,-4.3225,-4.3843,-4.3559,-4.3748,-6.1193,-6.1193,-6.1193,-6.1193,-6.1135,-6.0467,-6.0235,-6.0293,-5.8987,-5.8406,-5.8377,-5.7768,-5.7361,-5.7245,-5.7216,-5.6926,-5.6403,-5.6258,-5.5649,-5.4691,-5.4517,-5.382,-5.2688,-5.3181,-5.321,-5.2949,-5.3152,-5.3355,-5.35,-5.3471,-5.3181,-5.2572,-5.1875,-5.1236,-5.0714,-5.0095,-4.9746,-4.9611,-4.8943,-4.8624,-4.8431,-4.7358,-4.6475,-4.5982,-4.5895,-4.5895,-4.5895,-4.5895,-4.5895,-4.5895,-4.5895,-4.5895,-4.5895,-4.5895,-4.5895,-4.5895,-4.5895,-4.5895,-4.5895,-4.5895,-4.5924,-4.5953,-4.6011,-4.5982,-4.6272,-4.6737,-4.7288,-4.7782,-4.8478,-4.9059,-4.9494,-4.964,-4.9746,-4.9746,-4.9746,-4.9746,-4.9746,-4.9746,-4.9746,-4.9746,-4.9746,-4.9746,-4.9746,-4.9746,-4.9746,-4.9746,-4.9746,-4.9746,-4.9746,-4.9746,-4.9378,-4.8769,-4.8188,-4.7637,-4.7039,-4.6749,-4.6505,-4.6243,-4.604,-4.5895,-4.5895,-4.5895,-4.5821,-4.5776,-4.564,-4.5595,-4.5685,-4.5504,-4.5018,-4.448,-4.3701,-4.3796,-4.4573,-4.4406,-4.4545,-6.1193,-6.1193,-6.1193,-6.1193,-6.1106,-6.0467,-6.0438,-6.0758,-5.9916,-5.9306,-5.8929,-5.8668,-5.8116,-5.7303,-5.7303,-5.7187,-5.6955,-5.6578,-5.6171,-5.5678,-5.5271,-5.4836,-5.4429,-5.4255,-5.4052,-5.382,-5.3617,-5.35,-5.35,-5.35,-5.3413,-5.3036,-5.2107,-5.1497,-5.112,-5.022,-4.9746,-4.9582,-4.8653,-4.813,-4.8101,-4.7259,-4.6708,-4.6475,-4.6098,-4.5895,-4.5895,-4.5895,-4.5895,-4.5895,-4.5895,-4.5895,-4.5895,-4.5895,-4.5895,-4.5895,-4.5895,-4.5895,-4.5895,-4.5895,-4.5895,-4.5895,-4.5895,-4.6098,-4.6505,-4.7056,-4.755,-4.7898,-4.8769,-4.9291,-4.9146,-4.9407,-4.9746,-4.9746,-4.9746,-4.9746,-4.9746,-4.9746,-4.9746,-4.9746,-4.9746,-4.9746,-4.9746,-4.9746,-4.9746,-4.9746,-4.9746,-4.9746,-4.9746,-4.9746,-4.9398,-4.8391,-4.7898,-4.7404,-4.633,-4.6243,-4.6127,-4.6011,-4.5895,-4.5895,-4.5895,-4.5895,-4.5821,-4.5821,-4.5895,-4.5895,-4.5821,-4.5776,-4.5549,-4.5384,-4.4573,-4.4527,-4.5247,-4.5081,-4.5338,-6.1193,-6.1193,-6.1193,-6.1193,-6.1135,-6.0729,-6.0787,-6.1106,-6.0496,-5.9974,-5.9626,-5.9393,-5.8668,-5.7768,-5.7623,-5.7623,-5.7565,-5.6984,-5.6607,-5.6374,-5.5939,-5.562,-5.5329,-5.4807,-5.4517,-5.44,-5.382,-5.35,-5.35,-5.35,-5.35,-5.3413,-5.2252,-5.1643,-5.141,-5.0307,-4.9746,-4.9514,-4.8624,-4.8188,-4.8246,-4.7346,-4.701,-4.7184,-4.6446,-4.5982,-4.6156,-4.6011,-4.5895,-4.5895,-4.5895,-4.5895,-4.5895,-4.5895,-4.5895,-4.5895,-4.5895,-4.5895,-4.5895,-4.5895,-4.5982,-4.6185,-4.6185,-4.6417,-4.6824,-4.7404,-4.7637,-4.7782,-4.8362,-4.8856,-4.8624,-4.8798,-4.9233,-4.9553,-4.9746,-4.9746,-4.9717,-4.9465,-4.9349,-4.9349,-4.9553,-4.9717,-4.9746,-4.9746,-4.9746,-4.9746,-4.9746,-4.9746,-4.9746,-4.9688,-4.9282,-4.8119,-4.7811,-4.7201,-4.6359,-4.6011,-4.6011,-4.5924,-4.5895,-4.5895,-4.5895,-4.5895,-4.5895,-4.5895,-4.5895,-4.5895,-4.5895,-4.5895,-4.5895,-4.5895,-4.564,-4.5384,-4.573,-4.5821,-4.5866,-6.1193,-6.1193,-6.1193,-6.1193,-6.1193,-6.1135,-6.1164,-6.1077,-6.0526,-6.0235,-6.0032,-5.9568,-5.89,-5.8348,-5.8174,-5.8232,-5.8029,-5.7536,-5.7071,-5.6607,-5.6461,-5.6055,-5.5503,-5.4894,-5.4517,-5.44,-5.382,-5.35,-5.35,-5.35,-5.35,-5.3268,-5.2194,-5.1585,-5.1585,-5.0336,-4.9746,-4.9524,-4.8972,-4.8943,-4.9349,-4.7869,-4.7416,-4.8217,-4.6911,-4.6272,-4.672,-4.6214,-4.5895,-4.5895,-4.5895,-4.5895,-4.5895,-4.5895,-4.5895,-4.5895,-4.5895,-4.5895,-4.5895,-4.5895,-4.6127,-4.6475,-4.6737,-4.6679,-4.6882,-4.7346,-4.7462,-4.7143,-4.7521,-4.784,-4.7811,-4.7898,-4.8362,-4.9427,-4.9436,-4.9485,-4.9407,-4.9088,-4.874,-4.8856,-4.9291,-4.9717,-4.9746,-4.9746,-4.9746,-4.9746,-4.9746,-4.9746,-4.9669,-4.9611,-4.9059,-4.8206,-4.7608,-4.7056,-4.6417,-4.5895,-4.5895,-4.5895,-4.5895,-4.5895,-4.5895,-4.5895,-4.5895,-4.5895,-4.5895,-4.5895,-4.5895,-4.5895,-4.5895,-4.5895,-4.5895,-4.5895,-4.5895,-4.5895,-4.5895,-6.1193,-6.1193,-6.1193,-6.1193,-6.1193,-6.1193,-6.1193,-6.1164,-6.0961,-6.0642,-6.0148,-5.9568,-5.8929,-5.8435,-5.829,-5.8058,-5.7652,-5.7826,-5.7855,-5.7623,-5.7216,-5.6665,-5.6055,-5.5416,-5.4662,-5.3936,-5.3646,-5.35,-5.35,-5.35,-5.3326,-5.2775,-5.2049,-5.141,-5.0975,-5.0133,-4.9746,-4.9659,-4.9059,-4.8856,-4.8972,-4.8449,-4.813,-4.7985,-4.7491,-4.7114,-4.6778,-4.6214,-4.5895,-4.5895,-4.5895,-4.5895,-4.5895,-4.5895,-4.5895,-4.5895,-4.5895,-4.5895,-4.5895,-4.5895,-4.5953,-4.6156,-4.6214,-4.6417,-4.672,-4.6998,-4.7056,-4.6836,-4.7404,-4.7637,-4.7288,-4.755,-4.7927,-4.8333,-4.8391,-4.8468,-4.8449,-4.8595,-4.8711,-4.8798,-4.9291,-4.9688,-4.9746,-4.9746,-4.9746,-4.9746,-4.9698,-4.9669,-4.9611,-4.9291,-4.8769,-4.7956,-4.7491,-4.694,-4.6272,-4.5895,-4.5895,-4.5895,-4.5895,-4.5895,-4.5895,-4.5895,-4.5895,-4.5895,-4.5895,-4.5895,-4.5895,-4.5895,-4.5895,-4.5895,-4.5895,-4.5895,-4.5895,-4.5895,-4.5895,-6.1193,-6.1193,-6.1193,-6.1193,-6.1193,-6.1193,-6.1193,-6.1164,-6.0932,-6.07,-6.0409,-5.9655,-5.9219,-5.8987,-5.8784,-5.8464,-5.8087,-5.8261,-5.829,-5.8203,-5.7623,-5.6984,-5.6316,-5.5474,-5.4575,-5.3704,-5.35,-5.35,-5.35,-5.3268,-5.2978,-5.2514,-5.1701,-5.1091,-5.0705,-5.0017,-4.9746,-4.9582,-4.9059,-4.8856,-4.8943,-4.8624,-4.842,-4.8439,-4.809,-4.7608,-4.7172,-4.6563,-4.6127,-4.5953,-4.5895,-4.5895,-4.5895,-4.5895,-4.5895,-4.5895,-4.5895,-4.5895,-4.5895,-4.5895,-4.6011,-4.6185,-4.6243,-4.6388,-4.672,-4.6778,-4.672,-4.6592,-4.6795,-4.6911,-4.6621,-4.6795,-4.7056,-4.7085,-4.7579,-4.7637,-4.7608,-4.7985,-4.8333,-4.8478,-4.8914,-4.9349,-4.9611,-4.9746,-4.9746,-4.9746,-4.9669,-4.9494,-4.9349,-4.8972,-4.8362,-4.7753,-4.7201,-4.6621,-4.6069,-4.5895,-4.5895,-4.5895,-4.5895,-4.5895,-4.5895,-4.5895,-4.5895,-4.5895,-4.5895,-4.5895,-4.5895,-4.5895,-4.5895,-4.5895,-4.5895,-4.5895,-4.5895,-4.5895,-4.5895,-6.1193,-6.1193,-6.1193,-6.1193,-6.1193,-6.1193,-6.1135,-6.099,-6.0526,-6.0555,-6.07,-5.98,-5.9597,-5.9916,-5.9451,-5.9103,-5.9103,-5.8523,-5.8203,-5.8029,-5.7565,-5.6955,-5.6171,-5.501,-5.411,-5.3588,-5.35,-5.35,-5.3471,-5.2949,-5.2623,-5.2507,-5.1497,-5.0822,-5.0714,-5.0153,-4.9901,-4.9756,-4.9233,-4.9233,-4.9582,-4.8624,-4.842,-4.9398,-4.8391,-4.7724,-4.7462,-4.6911,-4.6388,-4.5982,-4.5895,-4.5895,-4.5895,-4.5895,-4.5895,-4.5895,-4.5895,-4.5895,-4.5895,-4.5895,-4.6069,-4.6505,-4.6563,-4.672,-4.6633,-4.665,-4.6475,-4.604,-4.604,-4.6011,-4.5982,-4.6011,-4.604,-4.6114,-4.6853,-4.7201,-4.6911,-4.7346,-4.7666,-4.784,-4.8275,-4.8856,-4.9349,-4.9465,-4.9553,-4.9582,-4.9582,-4.9465,-4.9088,-4.874,-4.8101,-4.7521,-4.6998,-4.6446,-4.5924,-4.5895,-4.5895,-4.5895,-4.5895,-4.5895,-4.5895,-4.5895,-4.5895,-4.5895,-4.5895,-4.5895,-4.5895,-4.5895,-4.5895,-4.5895,-4.5895,-4.5895,-4.5895,-4.5895,-4.5895,-6.1193,-6.1193,-6.1193,-6.1193,-6.1193,-6.1193,-6.0903,-6.0467,-6.0293,-6.0322,-6.0293,-5.9655,-5.9655,-6.009,-5.9568,-5.9045,-5.8668,-5.8406,-5.7971,-5.7594,-5.7419,-5.6665,-5.562,-5.4429,-5.3733,-5.353,-5.3559,-5.35,-5.3471,-5.2862,-5.2652,-5.2543,-5.1759,-5.1323,-5.1323,-5.1091,-5.0859,-5.0481,-5.0249,-4.9901,-4.964,-4.9427,-4.9088,-4.8827,-4.8246,-4.7608,-4.7114,-4.6475,-4.6098,-4.5924,-4.5895,-4.5895,-4.5895,-4.5895,-4.5895,-4.5895,-4.5895,-4.5895,-4.5895,-4.5895,-4.5982,-4.6098,-4.6214,-4.6127,-4.6127,-4.6127,-4.604,-4.5895,-4.5895,-4.5895,-4.5895,-4.5895,-4.5895,-4.5924,-4.6359,-4.6475,-4.633,-4.6679,-4.7085,-4.7143,-4.7666,-4.8072,-4.8391,-4.8711,-4.8972,-4.9088,-4.932,-4.9553,-4.9146,-4.8478,-4.784,-4.7433,-4.694,-4.633,-4.5924,-4.5895,-4.5895,-4.5895,-4.5895,-4.5895,-4.5895,-4.5895,-4.5895,-4.5895,-4.5895,-4.5895,-4.5895,-4.5895,-4.5895,-4.5895,-4.5895,-4.5895,-4.5895,-4.5895,-4.5895,-6.1193,-6.1193,-6.1193,-6.1193,-6.1193,-6.1193,-6.0961,-6.0613,-6.0322,-6.038,-6.038,-5.9655,-5.98,-6.0496,-5.9713,-5.9103,-5.8726,-5.8435,-5.7942,-5.7332,-5.7042,-5.6345,-5.5416,-5.4575,-5.4052,-5.3588,-5.382,-5.3762,-5.3442,-5.2862,-5.2652,-5.2455,-5.1933,-5.1497,-5.1149,-5.1207,-5.0917,-5.0415,-5.0249,-5.0095,-4.9746,-4.9746,-4.9524,-4.9117,-4.8711,-4.8188,-4.7317,-4.6388,-4.5895,-4.5895,-4.5895,-4.5895,-4.5895,-4.5895,-4.5895,-4.5895,-4.5895,-4.5895,-4.5895,-4.5895,-4.5895,-4.5895,-4.5895,-4.5895,-4.5895,-4.5895,-4.5895,-4.5895,-4.5895,-4.5895,-4.5924,-4.6098,-4.6272,-4.633,-4.6272,-4.6185,-4.5924,-4.6214,-4.6488,-4.6778,-4.7143,-4.7521,-4.7724,-4.813,-4.842,-4.8711,-4.903,-4.9175,-4.9088,-4.8304,-4.7637,-4.723,-4.6766,-4.6185,-4.5924,-4.5895,-4.5895,-4.5895,-4.5895,-4.5895,-4.5895,-4.5895,-4.5895,-4.5895,-4.5895,-4.5895,-4.5895,-4.5895,-4.5895,-4.5895,-4.5895,-4.5895,-4.5895,-4.5895,-4.5895,-6.1193,-6.1193,-6.1193,-6.1193,-6.1193,-6.1193,-6.1106,-6.0932,-6.0438,-6.0496,-6.0671,-5.9858,-6.0119,-6.1106,-5.9858,-5.9277,-5.9219,-5.8435,-5.7855,-5.7303,-5.6839,-5.6258,-5.5678,-5.5329,-5.4633,-5.3936,-5.4284,-5.4052,-5.35,-5.2862,-5.2659,-5.2572,-5.2107,-5.1585,-5.1439,-5.1149,-5.0589,-5.022,-5.0046,-4.995,-4.9776,-4.9746,-4.9688,-4.9553,-4.932,-4.8711,-4.7724,-4.6795,-4.6214,-4.6098,-4.6011,-4.5982,-4.5953,-4.5895,-4.5924,-4.5895,-4.5895,-4.5895,-4.5895,-4.5895,-4.5895,-4.5895,-4.5895,-4.5895,-4.5895,-4.5895,-4.5895,-4.5895,-4.5895,-4.5895,-4.5953,-4.6359,-4.6575,-4.6604,-4.672,-4.6534,-4.6156,-4.5924,-4.6127,-4.6662,-4.6749,-4.7027,-4.7462,-4.7724,-4.7869,-4.7938,-4.8362,-4.8595,-4.8478,-4.7898,-4.7375,-4.6998,-4.6505,-4.5982,-4.5895,-4.5895,-4.5895,-4.5895,-4.5895,-4.5895,-4.5895,-4.5895,-4.5895,-4.5895,-4.5895,-4.5895,-4.5895,-4.5895,-4.5895,-4.5895,-4.5895,-4.5895,-4.5895,-4.5895,-4.5895,-6.1193,-6.1193,-6.1193,-6.1193,-6.1193,-6.1164,-6.0903,-6.0438,-6.0293,-6.0351,-6.0351,-6.0119,-6.0467,-6.1135,-5.9916,-5.9306,-5.9132,-5.8174,-5.7419,-5.7332,-5.7216,-5.6781,-5.6171,-5.5736,-5.5039,-5.4487,-5.4429,-5.4197,-5.3588,-5.3152,-5.2862,-5.3181,-5.2804,-5.2514,-5.2659,-5.2049,-5.1817,-5.1236,-5.0685,-5.0104,-4.9776,-4.9746,-4.9746,-4.9688,-4.9233,-4.8595,-4.7956,-4.7567,-4.7422,-4.7259,-4.6911,-4.6505,-4.6156,-4.633,-4.6272,-4.5982,-4.5895,-4.5895,-4.5895,-4.5953,-4.5895,-4.6011,-4.5982,-4.5895,-4.5895,-4.5895,-4.5895,-4.5895,-4.5895,-4.5895,-4.6069,-4.604,-4.6475,-4.6807,-4.6923,-4.6853,-4.6592,-4.6185,-4.6272,-4.6534,-4.6417,-4.633,-4.694,-4.7027,-4.7172,-4.7271,-4.7608,-4.7927,-4.7782,-4.7491,-4.7172,-4.6778,-4.6359,-4.5895,-4.5895,-4.5895,-4.5895,-4.5895,-4.5895,-4.5895,-4.5895,-4.5895,-4.5895,-4.5895,-4.5895,-4.5895,-4.5895,-4.5895,-4.5895,-4.5895,-4.5895,-4.5895,-4.5895,-4.5895,-4.5895,-6.1672,-6.1583,-6.1642,-6.1583,-6.1583,-6.1583,-6.1319,-6.0908,-6.0879,-6.0761,-6.0671,-6.0671,-6.0874,-6.1077,-5.9916,-5.9306,-5.8987,-5.7942,-5.7303,-5.7303,-5.7303,-5.7129,-5.6897,-5.6403,-5.5881,-5.5126,-5.53,-5.501,-5.4458,-5.4052,-5.3994,-5.3965,-5.3588,-5.3007,-5.2688,-5.231,-5.1527,-5.0743,-5.0423,-5.0017,-4.9776,-4.9746,-4.9746,-4.9582,-4.9088,-4.8537,-4.8275,-4.7898,-4.7782,-4.7782,-4.7724,-4.7259,-4.6446,-4.6359,-4.6185,-4.5982,-4.5895,-4.6069,-4.6214,-4.6359,-4.6475,-4.6708,-4.6505,-4.6359,-4.6214,-4.6098,-4.5895,-4.5895,-4.5953,-4.6069,-4.6679,-4.6795,-4.7085,-4.7503,-4.7648,-4.7608,-4.723,-4.6708,-4.6272,-4.6388,-4.6098,-4.6098,-4.6272,-4.6505,-4.6679,-4.694,-4.701,-4.7375,-4.7695,-4.7404,-4.7039,-4.6662,-4.6214,-4.5924,-4.5895,-4.5895,-4.5895,-4.5895,-4.5895,-4.5895,-4.5895,-4.5895,-4.5895,-4.5895,-4.5895,-4.5895,-4.5895,-4.5895,-4.5895,-4.5895,-4.5895,-4.5895,-4.5895,-4.5895,-4.5895,-6.2116,-6.2116,-6.2116,-6.2116,-6.2116,-6.2116,-6.191,-6.1703,-6.1673,-6.1495,-6.1284,-6.1253,-6.1108,-6.0787,-5.9829,-5.9277,-5.8668,-5.8,-5.7303,-5.7303,-5.7303,-5.7274,-5.7187,-5.7042,-5.6694,-5.5823,-5.6055,-5.591,-5.5445,-5.5358,-5.4807,-5.4575,-5.4487,-5.3675,-5.2339,-5.1643,-5.1294,-5.0481,-4.9988,-4.9756,-4.9746,-4.9746,-4.9746,-4.9582,-4.9262,-4.8972,-4.8798,-4.8478,-4.8159,-4.8101,-4.8508,-4.8101,-4.7317,-4.6534,-4.5982,-4.5982,-4.6011,-4.633,-4.6679,-4.6911,-4.7201,-4.7724,-4.7317,-4.6998,-4.6853,-4.6621,-4.633,-4.6127,-4.6156,-4.6388,-4.7346,-4.7317,-4.7666,-4.8101,-4.8286,-4.8217,-4.784,-4.7288,-4.6853,-4.6475,-4.6359,-4.633,-4.6185,-4.6214,-4.6388,-4.6534,-4.665,-4.6795,-4.7114,-4.7201,-4.6766,-4.6488,-4.6098,-4.5924,-4.5895,-4.5895,-4.5895,-4.5895,-4.5895,-4.5895,-4.5895,-4.5895,-4.5895,-4.5895,-4.5895,-4.5895,-4.5895,-4.5895,-4.5895,-4.5895,-4.5895,-4.5895,-4.5895,-4.5895,-4.5895,-6.2116,-6.2116,-6.2116,-6.2116,-6.2116,-6.2116,-6.2116,-6.2057,-6.2057,-6.1791,-6.1554,-6.1554,-6.1112,-6.0411,-5.9684,-5.8726,-5.7942,-5.7476,-5.7303,-5.7303,-5.7303,-5.736,-5.7303,-5.7416,-5.7156,-5.6955,-5.6694,-5.6197,-5.5678,-5.5358,-5.5184,-5.4691,-5.4517,-5.3907,-5.2978,-5.2223,-5.1497,-5.083,-5.0133,-4.9746,-4.9746,-4.9746,-4.9746,-4.9717,-4.9494,-4.9436,-4.9465,-4.9407,-4.9427,-4.932,-4.8943,-4.8653,-4.8246,-4.7695,-4.6969,-4.6359,-4.6388,-4.6708,-4.6981,-4.7375,-4.7608,-4.7753,-4.7695,-4.7637,-4.7608,-4.7462,-4.7085,-4.6795,-4.6621,-4.6621,-4.6214,-4.6998,-4.7039,-4.7184,-4.7491,-4.7579,-4.7753,-4.7782,-4.7608,-4.7346,-4.7027,-4.6592,-4.6417,-4.6156,-4.6098,-4.6185,-4.6243,-4.6272,-4.6417,-4.6417,-4.6185,-4.6069,-4.5953,-4.5895,-4.5895,-4.5895,-4.5895,-4.5895,-4.5895,-4.5895,-4.5895,-4.5895,-4.5895,-4.5895,-4.5895,-4.5895,-4.5895,-4.5895,-4.5895,-4.5895,-4.5895,-4.5895,-4.5895,-4.5895,-4.5895,-6.2585,-6.2585,-6.2585,-6.2585,-6.2615,-6.2585,-6.2526,-6.2351,-6.2351,-6.2175,-6.191,-6.185,-6.1526,-6.0793,-5.9859,-5.8724,-5.765,-5.7472,-5.7472,-5.736,-5.7472,-5.7416,-5.7416,-5.7584,-5.7528,-5.7328,-5.7152,-5.6834,-5.6374,-5.6084,-5.5562,-5.5039,-5.4691,-5.4023,-5.3065,-5.2078,-5.1497,-5.1033,-5.0249,-4.9746,-4.9746,-4.9746,-4.9746,-4.9746,-4.9746,-4.9746,-4.9746,-4.9746,-4.9717,-4.9611,-4.9378,-4.9059,-4.874,-4.8391,-4.7869,-4.7085,-4.6911,-4.7155,-4.7619,-4.8159,-4.8391,-4.8711,-4.8478,-4.8275,-4.8188,-4.7956,-4.7695,-4.7433,-4.7346,-4.7375,-4.7462,-4.7532,-4.7735,-4.7822,-4.7938,-4.813,-4.8304,-4.8537,-4.8449,-4.8159,-4.7433,-4.6865,-4.665,-4.6359,-4.6011,-4.5895,-4.5895,-4.5895,-4.5895,-4.5895,-4.5895,-4.5895,-4.5895,-4.5895,-4.5895,-4.5895,-4.5895,-4.5895,-4.5895,-4.5895,-4.5895,-4.5895,-4.5895,-4.5895,-4.5895,-4.5895,-4.5895,-4.5895,-4.5895,-4.5895,-4.5895,-4.5895,-4.5895,-4.5895,-4.5895,-6.3137,-6.3137,-6.3137,-6.3137,-6.3137,-6.3137,-6.2963,-6.2731,-6.2673,-6.2498,-6.2234,-6.2145,-6.188,-6.1087,-5.9916,-5.8688,-5.7528,-5.7781,-5.7725,-5.764,-5.7751,-5.7725,-5.7696,-5.7778,-5.783,-5.7236,-5.7581,-5.7584,-5.7098,-5.6607,-5.6026,-5.5358,-5.4778,-5.3965,-5.292,-5.2281,-5.1497,-5.0859,-5.027,-4.9921,-4.9776,-4.9746,-4.9746,-4.9746,-4.9746,-4.9746,-4.9746,-4.9746,-4.9746,-4.9746,-4.9611,-4.9436,-4.9001,-4.8798,-4.8566,-4.813,-4.7579,-4.7851,-4.8315,-4.8885,-4.9088,-4.9456,-4.9146,-4.8972,-4.8769,-4.8449,-4.8014,-4.7985,-4.7985,-4.7985,-4.8159,-4.8518,-4.8537,-4.842,-4.8624,-4.8972,-4.8769,-4.8769,-4.8856,-4.842,-4.7619,-4.7155,-4.6911,-4.6359,-4.5924,-4.5895,-4.5895,-4.5895,-4.5895,-4.5895,-4.5895,-4.5895,-4.5895,-4.5895,-4.5895,-4.5895,-4.5895,-4.5895,-4.5895,-4.5895,-4.5895,-4.5895,-4.5895,-4.5895,-4.5895,-4.5895,-4.5895,-4.5895,-4.5895,-4.5895,-4.5895,-4.5895,-4.5895,-4.5895,-4.5895,-6.3137,-6.3137,-6.3137,-6.3137,-6.3137,-6.3137,-6.3079,-6.3021,-6.3021,-6.2847,-6.2556,-6.2437,-6.17,-6.0406,-5.9141,-5.8405,-5.8114,-5.8085,-5.8114,-5.8029,-5.8085,-5.8055,-5.8055,-5.814,-5.7731,-5.7196,-5.7517,-5.7555,-5.7183,-5.6607,-5.6026,-5.5358,-5.4691,-5.411,-5.3297,-5.263,-5.2165,-5.1497,-5.083,-5.027,-4.9834,-4.9746,-4.9746,-4.9746,-4.9746,-4.9746,-4.9746,-4.9746,-4.9746,-4.9746,-4.9746,-4.964,-4.9465,-4.9001,-4.9117,-4.9088,-4.8943,-4.8518,-4.8827,-4.9175,-4.9465,-4.9717,-4.9524,-4.9553,-4.932,-4.9001,-4.8624,-4.8624,-4.8624,-4.8478,-4.8391,-4.8508,-4.8391,-4.8159,-4.8072,-4.8362,-4.8478,-4.8972,-4.9059,-4.903,-4.842,-4.7666,-4.7114,-4.6446,-4.5895,-4.5895,-4.5895,-4.5924,-4.5895,-4.5895,-4.5895,-4.5895,-4.5895,-4.5895,-4.5895,-4.5895,-4.5895,-4.5895,-4.5895,-4.5895,-4.5895,-4.5895,-4.5895,-4.5895,-4.5895,-4.5895,-4.5895,-4.5895,-4.5895,-4.5895,-4.5895,-4.5895,-4.5895,-4.5895,-4.5895,-6.3137,-6.3137,-6.3137,-6.3137,-6.3137,-6.3137,-6.3137,-6.3137,-6.3137,-6.3021,-6.2816,-6.243,-6.1451,-6.0007,-5.9185,-5.8689,-5.8339,-5.839,-5.839,-5.8305,-5.8331,-5.8183,-5.7803,-5.7937,-5.773,-5.7231,-5.7269,-5.7276,-5.6855,-5.6168,-5.5533,-5.4923,-5.4313,-5.382,-5.35,-5.2891,-5.2252,-5.1497,-5.0685,-5.0037,-4.9805,-4.9746,-4.9746,-4.9746,-4.9746,-4.9746,-4.9746,-4.9746,-4.9746,-4.9746,-4.9746,-4.9746,-4.964,-4.9436,-4.9407,-4.9553,-4.9436,-4.9262,-4.932,-4.9553,-4.964,-4.9746,-4.9746,-4.9717,-4.9611,-4.9436,-4.9233,-4.9262,-4.9262,-4.9088,-4.8885,-4.9117,-4.8827,-4.8478,-4.8159,-4.8304,-4.8682,-4.8914,-4.9253,-4.9204,-4.9117,-4.8246,-4.7462,-4.6882,-4.6301,-4.5953,-4.6069,-4.6243,-4.6069,-4.5895,-4.5895,-4.5895,-4.5895,-4.5895,-4.5895,-4.5895,-4.5895,-4.5895,-4.5895,-4.5895,-4.5895,-4.5895,-4.5895,-4.5895,-4.5895,-4.5895,-4.5895,-4.5895,-4.5895,-4.5895,-4.5895,-4.5895,-4.5895,-4.5895,-4.5895,-6.3137,-6.3137,-6.3137,-6.3137,-6.3049,-6.2899,-6.281,-6.281,-6.26,-6.254,-6.2421,-6.1852,-6.0872,-5.996,-5.9547,-5.902,-5.85,-5.8664,-5.8609,-5.858,-5.8402,-5.8075,-5.7803,-5.7785,-5.7434,-5.6834,-5.6952,-5.6613,-5.6045,-5.5625,-5.5114,-5.4487,-5.3936,-5.3588,-5.3413,-5.3065,-5.2514,-5.1585,-5.0394,-4.9785,-4.9746,-4.9746,-4.9746,-4.9746,-4.9746,-4.9746,-4.9746,-4.9746,-4.9746,-4.9746,-4.9746,-4.9746,-4.9669,-4.964,-4.9659,-4.9717,-4.9582,-4.9611,-4.9582,-4.9717,-4.9746,-4.9746,-4.9746,-4.9746,-4.9717,-4.9746,-4.9717,-4.9611,-4.9611,-4.9688,-4.9717,-4.964,-4.9378,-4.9175,-4.9059,-4.9059,-4.9059,-4.9117,-4.934,-4.9485,-4.9233,-4.8653,-4.7927,-4.7404,-4.6824,-4.6185,-4.6185,-4.6459,-4.6417,-4.6185,-4.5982,-4.6011,-4.5895,-4.5895,-4.5895,-4.5895,-4.5895,-4.5895,-4.5895,-4.5895,-4.5895,-4.5895,-4.5895,-4.5895,-4.5895,-4.5895,-4.5895,-4.5895,-4.5895,-4.5895,-4.5895,-4.5895,-4.5895,-4.5895,-4.5895,-6.3137,-6.3137,-6.3079,-6.3107,-6.2989,-6.2421,-6.2181,-6.2121,-6.1553,-6.1343,-6.1253,-6.0625,-6.0326,-5.9882,-5.9463,-5.911,-5.8991,-5.9045,-5.8991,-5.8782,-5.8477,-5.8124,-5.7766,-5.7318,-5.6788,-5.6199,-5.639,-5.5847,-5.507,-5.5383,-5.4972,-5.4483,-5.3844,-5.3588,-5.3442,-5.3239,-5.2601,-5.1614,-5.0423,-4.9785,-4.9746,-4.9746,-4.9746,-4.9746,-4.9746,-4.9746,-4.9746,-4.9746,-4.9746,-4.9746,-4.9746,-4.9746,-4.9746,-4.9746,-4.9746,-4.9746,-4.9746,-4.9746,-4.9746,-4.9746,-4.9746,-4.9746,-4.9746,-4.9746,-4.9746,-4.9746,-4.9746,-4.9746,-4.9746,-4.9746,-4.9746,-4.9669,-4.9582,-4.9494,-4.9378,-4.932,-4.9204,-4.9059,-4.9233,-4.9553,-4.9349,-4.8885,-4.842,-4.7898,-4.6911,-4.6214,-4.6446,-4.6691,-4.6969,-4.6766,-4.6359,-4.6156,-4.5953,-4.5895,-4.5895,-4.5895,-4.5895,-4.5895,-4.5895,-4.5895,-4.5895,-4.5895,-4.5895,-4.5895,-4.5895,-4.5895,-4.5895,-4.5895,-4.5895,-4.5895,-4.5895,-4.5895,-4.5895,-4.5895,-4.5895,-6.2839,-6.248,-6.248,-6.248,-6.2421,-6.1762,-6.1493,-6.1463,-6.1224,-6.0864,-6.0475,-6.0206,-5.9847,-5.9488,-5.9308,-5.9099,-5.9099,-5.9099,-5.9099,-5.889,-5.8501,-5.7932,-5.7453,-5.6885,-5.6324,-5.602,-5.6095,-5.5939,-5.539,-5.5286,-5.4714,-5.4276,-5.3879,-5.3664,-5.3495,-5.3152,-5.2455,-5.173,-5.0772,-5.0133,-4.9746,-4.9746,-4.9746,-4.9746,-4.9746,-4.9746,-4.9746,-4.9746,-4.9746,-4.9746,-4.9746,-4.9746,-4.9746,-4.9746,-4.9746,-4.9746,-4.9746,-4.9746,-4.9746,-4.9746,-4.9746,-4.9746,-4.9746,-4.9746,-4.9746,-4.9746,-4.9746,-4.9746,-4.9746,-4.9746,-4.9746,-4.9746,-4.964,-4.9611,-4.9553,-4.9494,-4.9407,-4.9262,-4.9262,-4.9611,-4.9553,-4.9262,-4.8827,-4.8391,-4.7259,-4.6301,-4.665,-4.6981,-4.7288,-4.7259,-4.6795,-4.633,-4.6098,-4.5895,-4.5895,-4.5895,-4.5895,-4.5895,-4.5895,-4.5895,-4.5895,-4.5895,-4.5895,-4.5895,-4.5895,-4.5895,-4.5895,-4.5895,-4.5895,-4.5895,-4.5895,-4.5895,-4.5895,-4.5895,-4.5895,-6.2211,-6.1792,-6.1583,-6.1642,-6.1702,-6.1074,-6.0805,-6.0775,-6.0565,-6.0296,-5.9787,-5.9757,-5.9548,-5.9189,-5.9099,-5.9099,-5.9039,-5.889,-5.88,-5.8441,-5.7872,-5.7334,-5.6735,-5.6256,-5.5837,-5.5816,-5.5714,-5.547,-5.541,-5.5375,-5.4827,-5.4325,-5.4023,-5.3867,-5.3408,-5.2891,-5.2339,-5.1846,-5.1062,-5.0511,-5.0066,-4.9834,-4.9746,-4.9746,-4.9746,-4.9746,-4.9746,-4.9746,-4.9746,-4.9746,-4.9746,-4.9746,-4.9746,-4.9746,-4.9746,-4.9746,-4.9746,-4.9746,-4.9746,-4.9746,-4.9746,-4.9746,-4.9746,-4.9746,-4.9746,-4.9746,-4.9746,-4.9746,-4.9746,-4.9746,-4.9746,-4.9746,-4.9746,-4.964,-4.964,-4.9611,-4.9611,-4.9524,-4.9553,-4.9717,-4.9553,-4.9436,-4.8856,-4.842,-4.8014,-4.723,-4.7579,-4.7822,-4.7938,-4.7753,-4.7114,-4.665,-4.6243,-4.604,-4.5895,-4.5895,-4.5895,-4.5895,-4.5895,-4.5895,-4.5895,-4.5895,-4.5895,-4.5895,-4.5895,-4.5895,-4.5895,-4.5895,-4.5895,-4.5895,-4.5895,-4.5895,-4.5895,-4.5895,-4.5895,-6.1164,-6.1044,-6.0475,-6.0565,-6.0954,-6.0386,-6.0116,-6.0057,-5.9548,-5.9279,-5.9249,-5.9219,-5.9219,-5.9099,-5.9039,-5.8949,-5.88,-5.8411,-5.8141,-5.7872,-5.7094,-5.6406,-5.6077,-5.5718,-5.5418,-5.5269,-5.5278,-5.5338,-5.5248,-5.5236,-5.4832,-5.4414,-5.4149,-5.3942,-5.3495,-5.2891,-5.2572,-5.242,-5.1294,-5.0967,-5.0502,-5.0095,-4.9921,-4.9746,-4.9746,-4.9746,-4.9746,-4.9746,-4.9776,-4.9921,-4.9776,-4.9776,-4.9892,-4.9776,-4.9746,-4.9746,-4.9746,-4.9746,-4.9746,-4.9746,-4.9746,-4.9746,-4.9746,-4.9746,-4.9746,-4.9746,-4.9746,-4.9746,-4.9746,-4.9746,-4.9746,-4.9746,-4.9746,-4.9746,-4.9746,-4.9746,-4.9746,-4.9746,-4.9746,-4.9746,-4.964,-4.9465,-4.8856,-4.8391,-4.8391,-4.8304,-4.8566,-4.8682,-4.8682,-4.813,-4.7433,-4.6969,-4.6475,-4.604,-4.5895,-4.5895,-4.5895,-4.5895,-4.5895,-4.5895,-4.5895,-4.5895,-4.5895,-4.5895,-4.5895,-4.5895,-4.5895,-4.5895,-4.5895,-4.5895,-4.5895,-4.5895,-4.5895,-4.5895,-4.5895,-6.0835,-6.0416,-6.0176,-5.9967,-5.9787,-5.9548,-5.9428,-5.9398,-5.9219,-5.9099,-5.9099,-5.9099,-5.9099,-5.9009,-5.868,-5.8501,-5.8351,-5.7782,-5.7453,-5.7304,-5.6496,-5.6338,-5.6008,-5.5538,-5.5209,-5.5209,-5.5209,-5.5209,-5.5209,-5.5209,-5.5027,-5.4671,-5.423,-5.3867,-5.3576,-5.321,-5.3065,-5.2601,-5.2049,-5.1635,-5.0772,-5.0502,-5.0211,-4.9834,-4.9785,-4.9805,-4.9776,-4.9805,-4.9892,-5.0095,-4.9979,-4.9892,-5.0066,-4.9959,-4.9746,-4.9746,-4.9746,-4.9746,-4.9746,-4.9746,-4.9746,-4.9746,-4.9746,-4.9746,-4.9746,-4.9746,-4.9746,-4.9746,-4.9746,-4.9746,-4.9746,-4.9746,-4.9746,-4.9746,-4.9746,-4.9746,-4.9746,-4.9746,-4.9746,-4.9746,-4.964,-4.964,-4.9262,-4.8653,-4.8508,-4.8449,-4.8595,-4.8914,-4.8972,-4.8304,-4.7608,-4.7201,-4.6766,-4.6214,-4.5895,-4.5895,-4.5895,-4.5895,-4.5895,-4.5895,-4.5895,-4.5895,-4.5895,-4.5895,-4.5895,-4.5895,-4.5895,-4.5895,-4.5895,-4.5895,-4.5895,-4.5895,-4.5895,-4.5895,-4.5895,-6.0717,-6.0271,-5.9891,-5.9518,-5.9129,-5.9099,-5.9099,-5.9099,-5.9099,-5.9099,-5.9099,-5.9099,-5.9099,-5.8919,-5.8471,-5.8141,-5.8022,-5.7184,-5.6765,-5.6675,-5.6107,-5.5837,-5.5628,-5.5448,-5.5239,-5.5209,-5.5209,-5.5209,-5.5209,-5.5209,-5.5027,-5.4671,-5.423,-5.3919,-5.3658,-5.3518,-5.3326,-5.292,-5.2572,-5.2136,-5.1527,-5.112,-5.0801,-5.0481,-5.0249,-5.0075,-5.0008,-4.995,-4.9921,-5.0153,-5.0124,-4.995,-5.0075,-4.9988,-4.9746,-4.9746,-4.9746,-4.9746,-4.9746,-4.9746,-4.9746,-4.9746,-4.9746,-4.9746,-4.9746,-4.9746,-4.9746,-4.9746,-4.9746,-4.9746,-4.9746,-4.9746,-4.9746,-4.9746,-4.9746,-4.9746,-4.9746,-4.9746,-4.9746,-4.9746,-4.9746,-4.9746,-4.9611,-4.9117,-4.8653,-4.8595,-4.8537,-4.8769,-4.8914,-4.8188,-4.7521,-4.7201,-4.6766,-4.6185,-4.5895,-4.5895,-4.5895,-4.5895,-4.5895,-4.5895,-4.5895,-4.5895,-4.5895,-4.5895,-4.5895,-4.5895,-4.5895,-4.5895,-4.5895,-4.5895,-4.5895,-4.5895,-4.5895,-4.5895,-4.5895,-6.0753,-6.0567,-5.9606,-5.9207,-5.9147,-5.9033,-5.9039,-5.9039,-5.9039,-5.9009,-5.8979,-5.8919,-5.8949,-5.889,-5.8351,-5.8022,-5.7723,-5.6705,-5.6256,-5.6017,-5.5598,-5.5388,-5.5299,-5.5239,-5.5209,-5.5209,-5.5209,-5.5209,-5.5209,-5.5209,-5.5027,-5.4722,-5.423,-5.3971,-5.3815,-5.3658,-5.3442,-5.3239,-5.2978,-5.2601,-5.2165,-5.1846,-5.1556,-5.1236,-5.0946,-5.0656,-5.0423,-5.024,-4.993,-4.9872,-4.9805,-4.9776,-4.9776,-4.9746,-4.9746,-4.9746,-4.9746,-4.9746,-4.9746,-4.9746,-4.9746,-4.9746,-4.9746,-4.9746,-4.9746,-4.9746,-4.9746,-4.9746,-4.9746,-4.9746,-4.9746,-4.9746,-4.9746,-4.9746,-4.9746,-4.9746,-4.9746,-4.9746,-4.9746,-4.9746,-4.9746,-4.9717,-4.9601,-4.9175,-4.8508,-4.8188,-4.7956,-4.7579,-4.7666,-4.7608,-4.7056,-4.6969,-4.6534,-4.6069,-4.5895,-4.5895,-4.5895,-4.5895,-4.5895,-4.5895,-4.5895,-4.5895,-4.5895,-4.5895,-4.5895,-4.5895,-4.5895,-4.5895,-4.5895,-4.5895,-4.5895,-4.5895,-4.5895,-4.5895,-4.5895,-6.1558,-6.1033,-6.0434,-5.9936,-5.9405,-5.87,-5.8411,-5.8411,-5.8411,-5.8171,-5.7693,-5.8201,-5.8411,-5.8351,-5.7693,-5.7453,-5.6915,-5.6226,-5.5658,-5.5359,-5.5329,-5.5239,-5.5209,-5.5209,-5.5209,-5.5209,-5.5209,-5.5209,-5.5209,-5.5209,-5.5057,-5.4751,-5.4385,-5.4126,-5.3867,-5.3605,-5.3553,-5.3471,-5.3239,-5.3007,-5.2717,-5.2426,-5.2107,-5.1788,-5.1527,-5.1207,-5.0743,-5.0511,-5.0307,-5.0328,-4.9921,-4.9892,-5.0415,-5.0037,-4.9746,-4.9746,-4.9746,-4.9746,-4.9746,-4.9746,-4.9746,-4.9746,-4.9746,-4.9746,-4.9746,-4.9746,-4.9746,-4.9746,-4.9746,-4.9746,-4.9746,-4.9746,-4.9746,-4.9746,-4.9746,-4.9746,-4.9746,-4.9746,-4.9746,-4.9746,-4.9746,-4.9717,-4.9572,-4.8827,-4.8217,-4.7811,-4.7404,-4.694,-4.665,-4.6679,-4.665,-4.6517,-4.6388,-4.5953,-4.5895,-4.5895,-4.5895,-4.5895,-4.5895,-4.5895,-4.5895,-4.5895,-4.5895,-4.5895,-4.5895,-4.5895,-4.5895,-4.5895,-4.5895,-4.5895,-4.5895,-4.5895,-4.5895,-4.5895,-4.5895,-6.179,-6.1265,-6.0241,-5.9369,-5.8611,-5.8256,-5.7872,-5.7483,-5.7603,-5.7453,-5.7184,-5.7543,-5.7723,-5.7603,-5.7064,-5.6705,-5.6615,-5.5807,-5.5269,-5.5269,-5.5209,-5.5209,-5.5209,-5.5209,-5.5209,-5.5209,-5.5209,-5.5209,-5.5209,-5.5179,-5.5108,-5.4926,-5.4539,-5.4252,-5.3993,-5.371,-5.35,-5.35,-5.3442,-5.3268,-5.3065,-5.292,-5.2659,-5.2368,-5.2165,-5.1643,-5.1091,-5.0917,-5.0598,-5.0415,-4.9834,-4.9892,-5.0357,-5.0124,-5.0124,-5.0182,-5.0133,-4.993,-4.9785,-4.9746,-4.9746,-4.9746,-4.9746,-4.9746,-4.9746,-4.9746,-4.9746,-4.9746,-4.9746,-4.9746,-4.9746,-4.9746,-4.9746,-4.9746,-4.9746,-4.9746,-4.9746,-4.9746,-4.9746,-4.9746,-4.9746,-4.9746,-4.9291,-4.8566,-4.7985,-4.7695,-4.723,-4.665,-4.6359,-4.6272,-4.6272,-4.6243,-4.6098,-4.5895,-4.5911,-4.5911,-4.5911,-4.5911,-4.5895,-4.5895,-4.5895,-4.5895,-4.5895,-4.5895,-4.5895,-4.5895,-4.5895,-4.5895,-4.5895,-4.5895,-4.5895,-4.5895,-4.5895,-4.5895,-4.5895,-6.1815,-6.1569,-5.9513,-5.8197,-5.7288,-5.7663,-5.7274,-5.6286,-5.6705,-5.6915,-5.6885,-5.7004,-5.7034,-5.6944,-5.6526,-5.6368,-5.6107,-5.5538,-5.5209,-5.5209,-5.5209,-5.5209,-5.5209,-5.5209,-5.5209,-5.5209,-5.5209,-5.5209,-5.5209,-5.5179,-5.5179,-5.5128,-5.459,-5.4252,-5.4149,-5.371,-5.35,-5.35,-5.35,-5.3413,-5.3442,-5.3471,-5.35,-5.3326,-5.2891,-5.2339,-5.1701,-5.112,-5.0452,-5.0017,-4.9746,-4.9776,-5.0095,-5.0357,-5.0589,-5.0647,-5.0511,-5.0162,-4.9843,-4.9746,-4.9746,-4.9746,-4.9746,-4.9746,-4.9746,-4.9746,-4.9746,-4.9746,-4.9746,-4.9746,-4.9746,-4.9746,-4.9746,-4.9746,-4.9746,-4.9795,-4.9844,-4.9892,-4.999,-4.999,-4.999,-4.999,-4.9844,-4.9143,-4.8471,-4.7969,-4.734,-4.667,-4.6321,-4.6146,-4.6072,-4.6101,-4.5953,-4.5911,-4.6001,-4.6001,-4.6001,-4.5956,-4.6001,-4.5956,-4.6001,-4.5956,-4.5895,-4.5895,-4.5895,-4.5895,-4.5895,-4.5895,-4.5895,-4.5895,-4.5895,-4.5895,-4.5895,-4.5895,-4.5895,-6.2606,-6.1862,-5.9833,-5.8276,-5.7109,-5.6765,-5.6547,-5.6188,-5.5777,-5.5718,-5.5748,-5.6137,-5.6376,-5.6316,-5.6196,-5.6128,-5.5957,-5.5508,-5.5239,-5.5209,-5.5209,-5.5209,-5.5209,-5.5209,-5.5209,-5.5209,-5.5209,-5.5209,-5.5209,-5.5209,-5.5179,-5.5128,-5.4641,-5.4355,-5.4304,-5.3815,-5.3553,-5.3553,-5.35,-5.35,-5.35,-5.35,-5.35,-5.3471,-5.3181,-5.2862,-5.2281,-5.173,-5.1091,-5.054,-4.993,-4.9988,-5.0423,-5.0598,-5.0656,-5.0685,-5.0714,-5.0365,-4.9901,-4.9746,-4.9746,-4.9746,-4.9746,-4.9746,-4.9746,-4.9746,-4.9746,-4.9746,-4.9746,-4.9746,-4.9746,-4.9746,-4.9746,-4.9746,-4.9746,-4.9892,-4.999,-5.0135,-5.026,-5.0309,-5.0279,-5.022,-5.0114,-4.9703,-4.9075,-4.8429,-4.7829,-4.7241,-4.6755,-4.6475,-4.6194,-4.6149,-4.5969,-4.5956,-4.6046,-4.6135,-4.618,-4.6269,-4.6314,-4.6269,-4.6135,-4.6046,-4.5956,-4.5911,-4.5895,-4.5895,-4.5895,-4.5895,-4.5895,-4.5895,-4.5895,-4.5895,-4.5895,-4.5895,-4.5895,-6.208,-6.1546,-6.0303,-5.8623,-5.7051,-5.6819,-5.6445,-5.5739,-5.5329,-5.5209,-5.5209,-5.5568,-5.5748,-5.5748,-5.5748,-5.5777,-5.5718,-5.5388,-5.5239,-5.5209,-5.5209,-5.5209,-5.5209,-5.5209,-5.5209,-5.5209,-5.5209,-5.5209,-5.5209,-5.5209,-5.5179,-5.5128,-5.4692,-5.4487,-5.4436,-5.4023,-5.3658,-5.3658,-5.3553,-5.35,-5.35,-5.35,-5.35,-5.35,-5.3413,-5.3123,-5.2717,-5.2165,-5.173,-5.112,-5.0511,-5.0598,-5.0917,-5.112,-5.112,-5.112,-5.1033,-5.0685,-5.0046,-4.9746,-4.9746,-4.9746,-4.9746,-4.9746,-4.9746,-4.9746,-4.9746,-4.9746,-4.9746,-4.9746,-4.9746,-4.9746,-4.9844,-4.9892,-4.9941,-5.0038,-5.0183,-5.0357,-5.0405,-5.0405,-5.0405,-5.0375,-5.0316,-5.0287,-4.961,-4.9068,-4.8407,-4.7775,-4.7273,-4.6756,-4.6521,-4.6314,-4.6225,-4.6209,-4.6314,-4.6403,-4.6403,-4.6491,-4.6653,-4.6447,-4.6269,-4.6135,-4.6046,-4.6001,-4.5985,-4.5895,-4.5895,-4.5985,-4.594,-4.5895,-4.5895,-4.5895,-4.5895,-4.5895,-4.5895,-6.1069,-6.0891,-6.0532,-5.9055,-5.7098,-5.74,-5.6831,-5.5591,-5.5381,-5.533,-5.5179,-5.5209,-5.5209,-5.5209,-5.5209,-5.5209,-5.5209,-5.5239,-5.5209,-5.5209,-5.5209,-5.5209,-5.5209,-5.5209,-5.5209,-5.5209,-5.5209,-5.5209,-5.5209,-5.5209,-5.5179,-5.5128,-5.4976,-5.4803,-5.4619,-5.423,-5.3867,-5.3762,-5.3658,-5.35,-5.35,-5.35,-5.35,-5.35,-5.3471,-5.321,-5.2862,-5.2514,-5.2223,-5.1911,-5.1379,-5.1645,-5.1879,-5.2084,-5.2033,-5.2033,-5.1577,-5.0967,-5.0191,-4.9756,-4.9776,-4.9746,-4.9746,-4.9746,-4.9795,-4.9795,-4.9795,-4.9844,-4.9844,-4.9795,-4.9795,-4.9844,-4.999,-5.0135,-5.0183,-5.0279,-5.0423,-5.0596,-5.0596,-5.0644,-5.0644,-5.0644,-5.0596,-5.0567,-5.0212,-4.9651,-4.9031,-4.8381,-4.7776,-4.7259,-4.6829,-4.6756,-4.6741,-4.6697,-4.6668,-4.6624,-4.6624,-4.6785,-4.6873,-4.658,-4.6403,-4.6314,-4.6225,-4.609,-4.6075,-4.609,-4.612,-4.6164,-4.6075,-4.5956,-4.6001,-4.6001,-4.5895,-4.5895,-4.5895,-6.0633,-5.9881,-5.9825,-5.9017,-5.7963,-5.7996,-5.7322,-5.6427,-5.628,-5.5918,-5.533,-5.5209,-5.5209,-5.5209,-5.5209,-5.5209,-5.5209,-5.5209,-5.5209,-5.5209,-5.5209,-5.5209,-5.5209,-5.5209,-5.5209,-5.5209,-5.5209,-5.5209,-5.5209,-5.5209,-5.5179,-5.5179,-5.4955,-5.4803,-5.4671,-5.4282,-5.3919,-5.3867,-5.3762,-5.3658,-5.3605,-5.3553,-5.35,-5.35,-5.35,-5.3442,-5.3239,-5.2833,-5.2572,-5.2428,-5.2473,-5.2723,-5.297,-5.3127,-5.3157,-5.2779,-5.2272,-5.1625,-5.0953,-5.0389,-5.034,-5.03,-5.0271,-5.0096,-5.0145,-5.0174,-5.0193,-5.026,-5.0183,-5.0086,-5.0086,-5.026,-5.0357,-5.0423,-5.0519,-5.0585,-5.0728,-5.0899,-5.0994,-5.0994,-5.0994,-5.0994,-5.0994,-5.0905,-5.0756,-5.016,-4.9594,-4.8939,-4.8298,-4.7717,-4.7165,-4.7135,-4.7092,-4.7019,-4.6887,-4.6887,-4.6887,-4.7019,-4.7092,-4.6844,-4.6712,-4.658,-4.6491,-4.6314,-4.6358,-4.6403,-4.6432,-4.6343,-4.6269,-4.6225,-4.618,-4.6135,-4.6001,-4.594,-4.5911]},{"header":{"parameterUnit":"m.s-1","parameterCategory":1,"la1":31.0,"la2":29.5877,"lo1":-88.7671,"lo2":-86.6584,"dy":0.0162,"dx":0.0185,"nx":115,"ny":88,"refTime":"2023-08-07T12:00:00:Z","depth":0,"parameterNumber":3,"parameterNumberName":"V-component_of_WINDS"},"data":[0.0,0.0,0.0,0.0,0.0,0.0,0.0,0.0,0.0,0.0,0.0,0.0,0.0,0.0,0.0,0.0,0.0,0.0,0.0,0.0,0.0,0.0,0.0,0.0,0.0,0.0,0.0,0.0,0.0,0.0,0.0,0.0,0.0,0.0,0.0,0.0,0.0,0.0,0.0,0.0,0.0,0.0,0.0,0.0,0.0,0.0,0.0,0.0,0.0,0.0,0.0,0.0,0.0,0.0,0.0,0.0,0.0,0.0,0.0,0.0,0.0,0.0,0.0,0.0,0.0,0.0,0.0,0.0,0.0,0.0,0.0,0.0,0.0,0.0,0.0,0.0,0.0,0.0,0.0,0.0,0.0,0.0,0.0,0.0,0.0,0.0,0.0,0.0,0.0,0.0,0.0,0.0,0.0,0.0,0.0,0.0,0.0,0.0,0.0,0.0,0.0,0.0,0.0,0.0,0.0,0.0,0.0,0.0,0.0,0.0,0.0,0.0,0.0,0.0,0.0,0.0,0.0,0.0,0.0,0.0,0.0,0.0,0.0,0.0,0.0,0.0,0.0,0.0,0.0,0.0,0.0,0.0,0.0,0.0,0.0,0.0,0.0,0.0,0.0,0.0,0.0,0.0,0.0,0.0,0.0,0.0,0.0,0.0,0.0,0.0,0.0,0.0,0.0,0.0,0.0,0.0,0.0,0.0,0.0,0.0,0.0,0.0,0.0,0.0,0.0,0.0,0.0,0.0,0.0,0.0,0.0,0.0,0.0,0.0,0.0,0.0,0.0,0.0,0.0,0.0,0.0,0.0,0.0,0.0,0.0,0.0,0.0,0.0,0.0,0.0,0.0,0.0,0.0,0.0,0.0,0.0,0.0,0.0,0.0,0.0,0.0,0.0,0.0,0.0,0.0,0.0,0.0,0.0,0.0,0.0,0.0,0.0,0.0,0.0,0.0,0.0,0.0,0.0,0.0,0.0,0.0,0.0,0.0,0.0,0.0,0.0,0.0,0.0,0.0,0.0,0.0,0.0,0.0,0.0,0.0,0.0,0.0,0.0,0.0,0.0,0.0,0.0,0.0,0.0,0.0,0.0,0.0,0.0,0.0,0.0,0.0,0.0,0.0,0.0,0.0,0.0,0.0,0.0,0.0,0.0,0.0,0.0,0.0,0.0,0.0,0.0,0.0,0.0,0.0,0.0,0.0,0.0,0.0,0.0,0.0,0.0,0.0,0.0,0.0,0.0,0.0,0.0,0.0,0.0,0.0,0.0,0.0,0.0,0.0,0.0,0.0,0.0,0.0,0.0,0.0,0.0,0.0,0.0,0.0,0.0,0.0,0.0,0.0,0.0,0.0,0.0,0.0,0.0,0.0,0.0,0.0,0.0,0.0,0.0,0.0,0.0,0.0,0.0,0.0,0.0,0.0,0.0,0.0,0.0,0.0,0.0,0.0,0.0,0.0,0.0,0.0,0.0,0.0,0.0,0.0,0.0,0.0,0.0,0.0,0.0,0.0,0.0,0.0,0.0,0.0,0.0,0.0,0.0,0.0,0.0,0.0,0.0,0.0,0.0,0.0,0.0,0.0,0.0,0.0,0.0,0.0,0.0,0.0,0.0,0.0,0.0,0.0,0.0,0.0,0.0,0.0,0.0,0.0,0.0,0.0,0.0,0.0,0.0,0.0,0.0,0.0,0.0,0.0,0.0,0.0,0.0,0.0,0.0,0.0,0.0,0.0,0.0,0.0,0.0,0.0,0.0,0.0,0.0,0.0,0.0,0.0,0.0,0.0,0.0,0.0,0.0,0.0,0.0,0.0,0.0,0.0,0.0,0.0,0.0,0.0,0.0,0.0,0.0,0.0,0.0,0.0,0.0,0.0,0.0,0.0,0.0,0.0,0.0,0.0,0.0,0.0,0.0,0.0,0.0,0.0,0.0,0.0,0.0,0.0,0.0,0.0,0.0,0.0,0.0,0.0,0.0,0.0,0.0,0.0,0.0,0.0,0.0,0.0,0.0,0.0,0.0,0.0,0.0,0.0,0.0,0.0,0.0,0.0,0.0,0.0,0.0,0.0,0.0,0.0,0.0,0.0,0.0,0.0,0.0,0.0,0.0,0.0,0.0,0.0,0.0,0.0,0.0,0.0,0.0,0.0,0.0,0.0,0.0,0.0,0.0,0.0,0.0,0.0,0.0,0.0,0.0,0.0,0.0,0.0,0.0,0.0,0.0,0.0,0.0,0.0,0.0,0.0,0.0,0.0,0.0,0.0,0.0,0.0,0.0,0.0,0.0,0.0,0.0,0.0,0.0,0.0,0.0,0.0,0.0,0.0,0.0,0.0,0.0,0.0,0.0,0.0,0.0,0.0,0.0,0.0,0.0,0.0,0.0,0.0,0.0,0.0,0.0,0.0,0.0,0.0,0.0,0.0,0.0,0.0,0.0,0.0,0.0,0.0,0.0,0.0,0.0,0.0,0.0,0.0,0.0,0.0,0.0,0.0,0.0,0.0,0.0,0.0,0.0,0.0,0.0,0.0,0.0,0.0,0.0,0.0,0.0,0.0,0.0,0.0,0.0,0.0,0.0,0.0,0.0,0.0,0.0,0.0,0.0,0.0,0.0,0.0,0.0,0.0,0.0,0.0,0.0,0.0,0.0,0.0,0.0,0.0,0.0,0.0,0.0,0.0,0.0,0.0,0.0,0.0,0.0,0.0,0.0,0.0,0.0,0.0,0.0,0.0,0.0,0.0,0.0,0.0,0.0,0.0,0.0,0.0,0.0,0.0,0.0,0.0,0.0,0.0,0.0,0.0,0.0,0.0,0.0,0.0,0.0,0.0,0.0,0.0,0.0,0.0,0.0,0.0,0.0,0.0,0.0,0.0,0.0,0.0,0.0,0.0,0.0,0.0,0.0,0.0,0.0,0.0,0.0,0.0,0.0,0.0,0.0,0.0,0.0,0.0,0.0,0.0,0.0,0.0,0.0,0.0,0.0,0.0,0.0,0.0,0.0,0.0,0.0,0.0,0.0,0.0,0.0,0.0,0.0,0.0,0.0,0.0,0.0,0.0,0.0,0.0,0.0,0.0,0.0,0.0,0.0,0.0,0.0,0.0,0.0,0.0,0.0,0.0,0.0,0.0,0.0,0.0,0.0,0.0,0.0,0.0,0.0,0.0,0.0,0.0,0.0,0.0,0.0,0.0,0.0,0.0,0.0,0.0,0.0,0.0,0.0,0.0,0.0,0.0,0.0,0.0,0.0,0.0,0.0,0.0,0.0,0.0,0.0,0.0,0.0,0.0,0.0,0.0,0.0,0.0,0.0,0.0,0.0,0.0,0.0,0.0,0.0,0.0,0.0,0.0,0.0,0.0,0.0,0.0,0.0,0.0,0.0,0.0,0.0,0.0,0.0,0.0,0.0,0.0,0.0,0.0,0.0,0.0,0.0,0.0,0.0,0.0,0.0,0.0,0.0,0.0,0.0,0.0,0.0,0.0,0.0,0.0,0.0,0.0,0.0,0.0,0.0,0.0,0.0,0.0,0.0,0.0,0.0,0.0,0.0,0.0,0.0,0.0,0.0,0.0,0.0,0.0,0.0,0.0,0.0,0.0,0.0,0.0,0.0,0.0,0.0,0.0,0.0,0.0,0.0,0.0,0.0,0.0,0.0,0.0,0.0,0.0,0.0,0.0,0.0,0.0,0.0,0.0,0.0,0.0,0.0,0.0,0.0,0.0,0.0,0.0,0.0,0.0,0.0,0.0,0.0,0.0,0.0,0.0,0.0,0.0,0.0,0.0,0.0,0.0,0.0,0.0,0.0,0.0,0.0,0.0,0.0,0.0,0.0,0.0,0.0,0.0,0.0,0.0,0.0,0.0,0.0,0.0,0.0,0.0,0.0,0.0,0.0,0.0,0.0,0.0,0.0,0.0,0.0,0.0,0.0,0.0,0.0,0.0,0.0,0.0,0.0,0.0,0.0,0.0,0.0,0.0,0.0,0.0,0.0,0.0,0.0,0.0,0.0,0.0,0.0,0.0,0.0,0.0,0.0,0.0,0.0,0.0,0.0,0.0,0.0,0.0,0.0,0.0,0.0,0.0,0.0,0.0,0.0,0.0,0.0,0.0,0.0,0.0,0.0,0.0,0.0,0.0,0.0,0.0,0.0,0.0,0.0,0.0,0.0,0.0,0.0,0.0,0.0,0.0,0.0,0.0,0.0,0.0,0.0,0.0,0.0,0.0,0.0,0.0,0.0,0.0,0.0,0.0,0.0,0.0,0.0,0.0,0.0,-1.5016,0.0,0.0,0.0,0.0,0.0,0.0,0.0,0.0,0.0,0.0,0.0,0.0,0.0,0.0,0.0,0.0,0.0,0.0,0.0,0.0,0.0,0.0,0.0,0.0,0.0,0.0,0.0,0.0,0.0,0.0,0.0,0.0,0.0,0.0,0.0,0.0,0.0,0.0,0.0,0.0,0.0,0.0,0.0,0.0,0.0,0.0,0.0,0.0,0.0,0.0,0.0,0.0,0.0,0.0,0.0,0.0,0.0,0.0,0.0,0.0,0.0,0.0,0.0,0.0,0.0,0.0,0.0,0.0,0.0,0.0,0.0,0.0,0.0,0.0,0.0,0.0,0.0,0.0,0.0,0.0,0.0,0.0,0.0,0.0,0.0,0.0,0.0,0.0,0.0,0.0,0.0,0.0,0.0,0.0,0.0,0.0,0.0,0.0,0.0,0.0,0.0,0.0,0.0,0.0,0.0,0.0,0.0,0.0,0.0,0.0,-1.5635,-1.5154,-1.5383,-1.5383,-1.5108,0.0,0.0,0.0,0.0,0.0,0.0,0.0,0.0,0.0,0.0,0.0,0.0,0.0,0.0,0.0,0.0,0.0,0.0,0.0,0.0,0.0,0.0,0.0,0.0,0.0,0.0,0.0,0.0,0.0,0.0,0.0,0.0,0.0,0.0,0.0,0.0,0.0,0.0,0.0,0.0,0.0,0.0,0.0,0.0,0.0,0.0,0.0,0.0,0.0,0.0,0.0,0.0,0.0,0.0,0.0,0.0,0.0,0.0,0.0,0.0,0.0,0.0,0.0,0.0,0.0,0.0,0.0,0.0,0.0,0.0,0.0,0.0,0.0,0.0,0.0,0.0,0.0,0.0,0.0,0.0,0.0,0.0,0.0,0.0,0.0,0.0,0.0,0.0,0.0,0.0,0.0,0.0,0.0,0.0,0.0,0.0,0.0,0.0,0.0,0.0,0.0,0.0,0.0,0.0,0.0,0.0,0.0,0.0,0.0,0.0,0.0,0.0,-1.6556,-1.6579,-1.6164,0.0,0.0,0.0,0.0,0.0,0.0,0.0,0.0,0.0,0.0,0.0,0.0,0.0,0.0,0.0,0.0,0.0,0.0,0.0,0.0,0.0,0.0,0.0,0.0,0.0,0.0,0.0,0.0,0.0,0.0,0.0,0.0,0.0,0.0,0.0,0.0,0.0,0.0,0.0,0.0,0.0,0.0,0.0,0.0,0.0,0.0,0.0,0.0,0.0,0.0,0.0,0.0,0.0,0.0,0.0,0.0,0.0,0.0,0.0,0.0,0.0,0.0,0.0,0.0,0.0,0.0,0.0,0.0,0.0,0.0,0.0,0.0,0.0,0.0,0.0,0.0,0.0,0.0,0.0,0.0,0.0,0.0,0.0,0.0,0.0,0.0,0.0,0.0,0.0,0.0,0.0,0.0,0.0,0.0,0.0,0.0,0.0,0.0,0.0,0.0,0.0,0.0,0.0,0.0,0.0,0.0,0.0,0.0,0.0,0.0,-1.7016,-1.9195,-1.9316,0.0,-1.927,0.0,0.0,0.0,0.0,0.0,0.0,0.0,0.0,0.0,0.0,0.0,0.0,0.0,0.0,0.0,0.0,0.0,0.0,0.0,0.0,0.0,0.0,0.0,0.0,0.0,0.0,0.0,0.0,0.0,0.0,0.0,0.0,0.0,0.0,0.0,0.0,0.0,0.0,0.0,0.0,0.0,0.0,0.0,0.0,0.0,0.0,0.0,0.0,0.0,0.0,0.0,0.0,0.0,0.0,0.0,0.0,0.0,0.0,0.0,0.0,0.0,0.0,0.0,0.0,0.0,0.0,0.0,0.0,0.0,0.0,0.0,0.0,0.0,0.0,0.0,0.0,0.0,0.0,0.0,0.0,0.0,0.0,0.0,0.0,0.0,0.0,0.0,0.0,0.0,0.0,0.0,0.0,0.0,0.0,0.0,0.0,0.0,0.0,0.0,0.0,0.0,0.0,0.0,0.0,0.0,0.0,0.0,0.0,0.0,0.0,-1.8681,-1.9795,-1.9823,-2.0132,0.0,0.0,0.0,0.0,0.0,0.0,0.0,0.0,0.0,0.0,0.0,0.0,0.0,0.0,0.0,0.0,0.0,0.0,0.0,0.0,0.0,0.0,0.0,0.0,0.0,0.0,0.0,0.0,0.0,0.0,0.0,0.0,0.0,0.0,0.0,0.0,0.0,0.0,0.0,0.0,0.0,0.0,0.0,0.0,0.0,0.0,0.0,0.0,0.0,0.0,0.0,0.0,0.0,0.0,0.0,0.0,0.0,0.0,0.0,0.0,0.0,0.0,0.0,0.0,0.0,0.0,0.0,0.0,0.0,0.0,0.0,0.0,0.0,0.0,0.0,0.0,0.0,0.0,0.0,0.0,0.0,0.0,0.0,0.0,0.0,0.0,0.0,0.0,0.0,0.0,0.0,0.0,0.0,0.0,0.0,0.0,0.0,0.0,0.0,0.0,0.0,0.0,0.0,0.0,0.0,0.0,0.0,0.0,0.0,0.0,-1.9305,-2.0493,-2.1248,-2.1326,-2.1326,-2.1262,0.0,0.0,0.0,0.0,0.0,0.0,0.0,0.0,0.0,0.0,0.0,0.0,0.0,0.0,0.0,0.0,0.0,0.0,0.0,0.0,0.0,0.0,0.0,0.0,0.0,0.0,0.0,0.0,0.0,0.0,0.0,0.0,0.0,0.0,0.0,0.0,0.0,0.0,0.0,0.0,0.0,0.0,0.0,0.0,0.0,0.0,0.0,0.0,0.0,0.0,0.0,0.0,0.0,0.0,0.0,0.0,0.0,0.0,0.0,0.0,0.0,0.0,0.0,0.0,0.0,0.0,0.0,0.0,0.0,0.0,0.0,0.0,0.0,0.0,0.0,0.0,0.0,0.0,0.0,0.0,0.0,0.0,0.0,0.0,0.0,0.0,0.0,0.0,0.0,0.0,0.0,0.0,0.0,0.0,0.0,0.0,0.0,0.0,0.0,0.0,0.0,0.0,0.0,0.0,0.0,0.0,0.0,0.0,-2.2459,-2.1685,-2.2307,-2.4664,-2.4829,-2.3585,0.0,0.0,0.0,0.0,0.0,0.0,0.0,0.0,0.0,0.0,0.0,0.0,0.0,0.0,0.0,0.0,0.0,0.0,0.0,0.0,0.0,0.0,0.0,0.0,0.0,0.0,0.0,0.0,0.0,0.0,0.0,0.0,0.0,0.0,0.0,0.0,0.0,0.0,0.0,0.0,0.0,0.0,0.0,0.0,0.0,0.0,0.0,0.0,0.0,0.0,0.0,0.0,0.0,0.0,0.0,0.0,0.0,0.0,0.0,0.0,0.0,0.0,0.0,0.0,0.0,0.0,0.0,0.0,0.0,0.0,0.0,0.0,0.0,0.0,0.0,0.0,0.0,0.0,0.0,0.0,0.0,0.0,0.0,0.0,0.0,0.0,0.0,0.0,0.0,0.0,0.0,0.0,0.0,0.0,0.0,0.0,0.0,0.0,0.0,0.0,0.0,0.0,0.0,0.0,0.0,0.0,0.0,0.0,0.0,-1.9002,-2.0711,-2.377,-2.7823,-2.4833,-2.3362,0.0,0.0,0.0,0.0,0.0,0.0,0.0,0.0,0.0,0.0,0.0,0.0,0.0,0.0,0.0,0.0,0.0,0.0,0.0,0.0,0.0,0.0,0.0,0.0,0.0,0.0,0.0,0.0,0.0,0.0,0.0,0.0,0.0,0.0,0.0,0.0,0.0,0.0,0.0,0.0,0.0,0.0,0.0,0.0,0.0,0.0,0.0,0.0,0.0,0.0,0.0,0.0,0.0,0.0,0.0,0.0,0.0,0.0,0.0,0.0,0.0,0.0,0.0,0.0,0.0,0.0,0.0,0.0,0.0,0.0,0.0,0.0,0.0,0.0,0.0,0.0,0.0,0.0,0.0,0.0,0.0,0.0,0.0,0.0,0.0,0.0,0.0,0.0,0.0,0.0,0.0,0.0,0.0,0.0,0.0,0.0,0.0,0.0,0.0,0.0,0.0,0.0,0.0,0.0,0.0,0.0,0.0,0.0,0.0,-1.9629,0.0,-2.5924,-2.8543,-2.5383,-2.3463,0.0,0.0,0.0,0.0,0.0,0.0,0.0,0.0,0.0,0.0,0.0,0.0,0.0,0.0,0.0,0.0,0.0,0.0,0.0,0.0,0.0,0.0,0.0,0.0,0.0,0.0,0.0,0.0,0.0,0.0,0.0,0.0,0.0,0.0,0.0,0.0,0.0,0.0,0.0,0.0,0.0,0.0,0.0,0.0,0.0,0.0,0.0,0.0,0.0,0.0,0.0,0.0,0.0,0.0,0.0,0.0,0.0,0.0,0.0,0.0,0.0,0.0,0.0,0.0,0.0,0.0,0.0,0.0,0.0,0.0,0.0,0.0,0.0,0.0,0.0,0.0,0.0,0.0,0.0,0.0,0.0,0.0,0.0,0.0,0.0,0.0,0.0,0.0,0.0,0.0,0.0,0.0,0.0,0.0,0.0,0.0,0.0,0.0,0.0,0.0,0.0,0.0,0.0,0.0,0.0,0.0,0.0,0.0,-1.9704,-2.5423,-2.8211,-2.8671,-2.6896,-2.6608,-2.3942,0.0,0.0,0.0,0.0,0.0,0.0,0.0,0.0,0.0,0.0,0.0,0.0,0.0,0.0,0.0,0.0,0.0,0.0,0.0,0.0,0.0,0.0,0.0,0.0,0.0,0.0,0.0,0.0,0.0,0.0,0.0,0.0,0.0,0.0,0.0,0.0,0.0,0.0,0.0,0.0,0.0,0.0,0.0,0.0,0.0,0.0,0.0,0.0,0.0,0.0,0.0,0.0,0.0,0.0,0.0,0.0,0.0,0.0,0.0,0.0,0.0,0.0,0.0,0.0,0.0,0.0,0.0,0.0,0.0,0.0,0.0,0.0,0.0,0.0,0.0,0.0,0.0,0.0,0.0,0.0,0.0,0.0,0.0,0.0,0.0,0.0,0.0,0.0,0.0,0.0,0.0,0.0,0.0,0.0,0.0,0.0,0.0,0.0,0.0,0.0,0.0,0.0,0.0,0.0,0.0,0.0,0.0,0.0,0.0,-2.3472,-2.6233,-2.8698,-3.0581,-2.6216,-2.4021,0.0,0.0,0.0,0.0,0.0,0.0,0.0,0.0,0.0,0.0,0.0,0.0,0.0,0.0,0.0,0.0,0.0,0.0,0.0,0.0,0.0,0.0,0.0,0.0,0.0,0.0,0.0,0.0,0.0,0.0,0.0,0.0,0.0,0.0,0.0,0.0,0.0,0.0,0.0,0.0,0.0,0.0,0.0,0.0,0.0,0.0,0.0,0.0,0.0,0.0,0.0,0.0,0.0,0.0,0.0,0.0,0.0,0.0,0.0,0.0,0.0,0.0,0.0,0.0,0.0,0.0,0.0,0.0,0.0,0.0,0.0,0.0,0.0,0.0,0.0,0.0,0.0,0.0,0.0,0.0,0.0,0.0,0.0,0.0,0.0,0.0,0.0,0.0,0.0,0.0,0.0,0.0,0.0,0.0,0.0,0.0,0.0,0.0,0.0,0.0,0.0,0.0,0.0,0.0,0.0,0.0,0.0,0.0,0.0,-2.6059,-2.8699,-3.0973,-3.2646,-2.7863,-2.5532,-2.608,0.0,0.0,0.0,0.0,0.0,0.0,0.0,0.0,0.0,0.0,0.0,0.0,0.0,0.0,0.0,0.0,0.0,0.0,0.0,0.0,0.0,0.0,0.0,0.0,0.0,0.0,0.0,0.0,0.0,0.0,0.0,0.0,0.0,0.0,0.0,0.0,0.0,0.0,0.0,0.0,0.0,0.0,0.0,0.0,0.0,0.0,0.0,0.0,0.0,0.0,0.0,0.0,0.0,0.0,0.0,0.0,0.0,0.0,0.0,0.0,0.0,0.0,0.0,0.0,0.0,0.0,0.0,0.0,0.0,0.0,0.0,0.0,0.0,0.0,0.0,0.0,0.0,0.0,0.0,0.0,0.0,0.0,0.0,0.0,0.0,0.0,0.0,0.0,0.0,0.0,0.0,0.0,0.0,0.0,0.0,0.0,0.0,0.0,0.0,0.0,0.0,0.0,0.0,0.0,0.0,0.0,0.0,0.0,-3.2058,-3.492,-3.5338,-3.3195,-3.1171,-2.8377,0.0,0.0,0.0,0.0,0.0,0.0,0.0,0.0,0.0,0.0,0.0,0.0,0.0,0.0,0.0,0.0,0.0,0.0,0.0,0.0,0.0,0.0,0.0,0.0,0.0,0.0,0.0,0.0,0.0,0.0,0.0,0.0,0.0,0.0,0.0,0.0,0.0,0.0,0.0,0.0,0.0,0.0,0.0,0.0,0.0,0.0,0.0,0.0,0.0,0.0,0.0,0.0,0.0,0.0,0.0,0.0,0.0,0.0,0.0,0.0,0.0,0.0,0.0,0.0,0.0,0.0,0.0,0.0,0.0,0.0,0.0,0.0,0.0,0.0,0.0,0.0,0.0,0.0,0.0,0.0,0.0,0.0,0.0,0.0,0.0,0.0,0.0,0.0,0.0,0.0,0.0,0.0,0.0,0.0,0.0,0.0,0.0,0.0,0.0,0.0,0.0,0.0,0.0,0.0,0.0,0.0,0.0,0.0,0.0,-3.56,-3.8475,-3.9259,-3.7769,-3.3599,-3.0466,0.0,0.0,0.0,0.0,0.0,0.0,0.0,0.0,0.0,0.0,0.0,0.0,0.0,0.0,0.0,0.0,0.0,0.0,0.0,0.0,0.0,0.0,0.0,0.0,0.0,0.0,0.0,0.0,0.0,0.0,0.0,0.0,0.0,0.0,0.0,0.0,0.0,0.0,0.0,0.0,0.0,0.0,0.0,0.0,0.0,0.0,0.0,0.0,0.0,0.0,0.0,0.0,0.0,0.0,0.0,0.0,0.0,0.0,0.0,0.0,0.0,0.0,0.0,0.0,0.0,0.0,0.0,0.0,0.0,0.0,0.0,0.0,0.0,0.0,0.0,0.0,0.0,0.0,0.0,0.0,0.0,0.0,0.0,0.0,0.0,0.0,0.0,0.0,0.0,0.0,0.0,0.0,0.0,0.0,0.0,0.0,0.0,0.0,0.0,0.0,0.0,0.0,0.0,0.0,0.0,0.0,0.0,0.0,-3.4633,-3.837,-4.1036,-4.2056,-4.1402,-3.7325,-3.3703,0.0,0.0,0.0,0.0,0.0,0.0,0.0,0.0,0.0,0.0,0.0,0.0,0.0,0.0,0.0,0.0,0.0,0.0,0.0,0.0,0.0,0.0,0.0,0.0,0.0,0.0,0.0,0.0,0.0,0.0,0.0,0.0,0.0,0.0,0.0,0.0,0.0,0.0,0.0,0.0,0.0,0.0,0.0,0.0,0.0,0.0,0.0,0.0,0.0,0.0,0.0,0.0,0.0,0.0,0.0,0.0,0.0,0.0,0.0,0.0,0.0,0.0,0.0,0.0,0.0,0.0,0.0,0.0,0.0,0.0,0.0,0.0,0.0,0.0,0.0,0.0,0.0,0.0,0.0,0.0,0.0,0.0,0.0,0.0,0.0,0.0,0.0,0.0,0.0,0.0,0.0,0.0,0.0,0.0,0.0,0.0,0.0,0.0,0.0,0.0,0.0,0.0,0.0,0.0,0.0,0.0,0.0,0.0,-3.7246,-4.054,-4.2918,-4.4121,-4.3964,-4.1167,-3.7246,0.0,0.0,0.0,0.0,0.0,0.0,0.0,0.0,0.0,0.0,0.0,0.0,0.0,0.0,0.0,0.0,0.0,0.0,0.0,0.0,0.0,0.0,0.0,0.0,0.0,0.0,0.0,0.0,0.0,0.0,0.0,0.0,0.0,0.0,0.0,0.0,0.0,0.0,0.0,0.0,0.0,0.0,0.0,0.0,0.0,0.0,0.0,0.0,0.0,0.0,0.0,0.0,0.0,0.0,0.0,0.0,0.0,0.0,0.0,0.0,0.0,0.0,0.0,0.0,0.0,0.0,0.0,0.0,0.0,0.0,0.0,0.0,0.0,0.0,0.0,0.0,0.0,0.0,0.0,0.0,0.0,0.0,0.0,0.0,0.0,0.0,0.0,0.0,0.0,0.0,0.0,0.0,0.0,0.0,0.0,0.0,0.0,0.0,0.0,0.0,0.0,0.0,0.0,0.0,0.0,0.0,0.0,0.0,-3.9233,-4.1819,-4.4487,-4.5715,-4.5245,-4.1585,-3.7795,0.0,0.0,0.0,0.0,0.0,0.0,0.0,0.0,0.0,0.0,0.0,0.0,0.0,0.0,0.0,0.0,0.0,0.0,0.0,0.0,0.0,0.0,0.0,0.0,0.0,0.0,0.0,0.0,0.0,0.0,0.0,0.0,0.0,0.0,0.0,0.0,0.0,0.0,0.0,0.0,0.0,0.0,0.0,0.0,0.0,0.0,0.0,0.0,-1.9159,0.0,0.0,0.0,0.0,0.0,0.0,0.0,0.0,0.0,0.0,0.0,0.0,0.0,0.0,0.0,0.0,0.0,0.0,0.0,0.0,0.0,0.0,0.0,0.0,0.0,0.0,0.0,0.0,0.0,0.0,0.0,0.0,0.0,0.0,0.0,0.0,0.0,0.0,0.0,0.0,0.0,0.0,0.0,0.0,0.0,0.0,0.0,0.0,0.0,0.0,0.0,0.0,0.0,0.0,0.0,0.0,0.0,0.0,0.0,-4.0775,-4.331,-4.5401,-4.6342,-4.5924,-4.2892,-3.9311,0.0,0.0,0.0,0.0,0.0,0.0,0.0,0.0,0.0,0.0,0.0,0.0,0.0,0.0,0.0,0.0,0.0,0.0,0.0,0.0,0.0,0.0,0.0,0.0,0.0,0.0,0.0,0.0,0.0,0.0,0.0,0.0,0.0,0.0,0.0,0.0,0.0,0.0,0.0,0.0,0.0,0.0,0.0,0.0,0.0,0.0,0.0,0.0,0.0,0.0,0.0,0.0,0.0,0.0,0.0,0.0,0.0,0.0,0.0,0.0,0.0,0.0,0.0,0.0,0.0,0.0,0.0,0.0,0.0,0.0,0.0,0.0,0.0,0.0,0.0,0.0,0.0,0.0,0.0,0.0,0.0,0.0,0.0,0.0,0.0,0.0,0.0,0.0,0.0,0.0,0.0,0.0,0.0,0.0,0.0,0.0,0.0,0.0,0.0,0.0,0.0,0.0,0.0,0.0,0.0,0.0,0.0,-3.7743,-4.1768,-4.4748,-4.6081,-4.6656,-4.6447,-4.4408,-4.1115,-3.6567,0.0,0.0,0.0,0.0,0.0,0.0,0.0,0.0,0.0,0.0,0.0,0.0,0.0,0.0,0.0,0.0,0.0,0.0,0.0,0.0,0.0,0.0,0.0,0.0,0.0,0.0,0.0,0.0,0.0,0.0,0.0,0.0,0.0,0.0,0.0,0.0,0.0,0.0,-1.9156,-2.172,0.0,0.0,0.0,0.0,0.0,0.0,0.0,0.0,-2.1041,0.0,0.0,0.0,0.0,0.0,0.0,0.0,0.0,0.0,0.0,0.0,0.0,0.0,0.0,0.0,0.0,0.0,0.0,0.0,0.0,0.0,0.0,0.0,0.0,0.0,0.0,0.0,0.0,0.0,0.0,0.0,0.0,0.0,0.0,0.0,0.0,0.0,0.0,0.0,0.0,0.0,0.0,0.0,0.0,0.0,0.0,0.0,0.0,0.0,0.0,0.0,0.0,0.0,0.0,0.0,0.0,-3.6802,-3.8789,-4.1611,-4.5346,-4.7074,-4.744,-4.6499,-4.5192,-4.2317,-3.7769,0.0,0.0,0.0,0.0,0.0,0.0,0.0,0.0,0.0,0.0,0.0,0.0,0.0,0.0,0.0,0.0,0.0,0.0,0.0,0.0,0.0,0.0,0.0,0.0,0.0,0.0,0.0,0.0,0.0,0.0,0.0,0.0,0.0,0.0,0.0,0.0,0.0,0.0,0.0,-2.4753,-2.5427,0.0,0.0,0.0,0.0,0.0,0.0,0.0,0.0,-2.1407,0.0,0.0,0.0,0.0,0.0,0.0,0.0,0.0,0.0,0.0,0.0,0.0,0.0,0.0,0.0,0.0,0.0,0.0,0.0,0.0,0.0,0.0,0.0,0.0,0.0,0.0,0.0,0.0,0.0,0.0,0.0,0.0,0.0,0.0,0.0,0.0,0.0,0.0,0.0,0.0,0.0,0.0,0.0,0.0,0.0,0.0,0.0,0.0,0.0,0.0,0.0,0.0,0.0,0.0,0.0,-3.6724,-4.0174,-4.3206,-4.6003,-4.744,-4.7623,-4.6473,-4.4199,-4.1376,0.0,0.0,0.0,0.0,0.0,0.0,0.0,0.0,0.0,0.0,0.0,0.0,0.0,0.0,0.0,0.0,0.0,0.0,0.0,0.0,0.0,0.0,0.0,0.0,0.0,0.0,0.0,0.0,0.0,0.0,0.0,0.0,0.0,0.0,0.0,0.0,0.0,0.0,0.0,0.0,-2.5903,-2.6582,-2.7497,0.0,0.0,0.0,0.0,0.0,0.0,-2.3289,-2.2374,0.0,0.0,0.0,0.0,0.0,0.0,0.0,0.0,0.0,0.0,0.0,0.0,0.0,0.0,0.0,0.0,0.0,0.0,0.0,0.0,0.0,0.0,0.0,0.0,0.0,0.0,0.0,0.0,0.0,0.0,0.0,0.0,0.0,0.0,0.0,0.0,0.0,0.0,0.0,0.0,0.0,0.0,0.0,0.0,0.0,0.0,0.0,0.0,0.0,0.0,0.0,0.0,0.0,0.0,0.0,-3.6201,-4.0958,-4.4434,-4.6578,-4.7545,-4.7519,-4.6447,-4.3337,-4.0409,0.0,0.0,0.0,0.0,0.0,0.0,0.0,0.0,0.0,0.0,0.0,0.0,0.0,0.0,0.0,0.0,0.0,0.0,0.0,0.0,0.0,0.0,0.0,0.0,0.0,0.0,0.0,0.0,0.0,0.0,0.0,0.0,0.0,0.0,0.0,0.0,0.0,0.0,0.0,0.0,0.0,-2.7968,-2.9127,-2.8028,0.0,0.0,0.0,0.0,-2.6065,-2.5197,0.0,0.0,0.0,0.0,0.0,0.0,0.0,0.0,0.0,0.0,0.0,0.0,0.0,0.0,0.0,0.0,0.0,0.0,0.0,0.0,0.0,0.0,0.0,0.0,0.0,0.0,0.0,0.0,0.0,0.0,0.0,0.0,0.0,0.0,0.0,0.0,0.0,0.0,0.0,0.0,0.0,0.0,0.0,0.0,0.0,0.0,0.0,0.0,0.0,0.0,0.0,0.0,0.0,0.0,0.0,0.0,-3.6698,-3.9991,-4.3441,-4.6965,-4.7304,-4.7127,-4.6473,-4.4095,-4.1036,0.0,0.0,0.0,0.0,0.0,0.0,0.0,0.0,0.0,0.0,0.0,0.0,0.0,0.0,0.0,0.0,0.0,0.0,0.0,0.0,0.0,0.0,0.0,0.0,0.0,0.0,0.0,0.0,0.0,0.0,0.0,0.0,0.0,0.0,0.0,0.0,0.0,0.0,0.0,0.0,0.0,-3.0226,-2.9415,-2.8647,-2.8525,0.0,0.0,-2.7889,-2.9954,-2.9327,0.0,0.0,0.0,0.0,0.0,0.0,0.0,0.0,0.0,0.0,0.0,0.0,0.0,0.0,0.0,0.0,0.0,0.0,0.0,0.0,0.0,0.0,0.0,0.0,0.0,0.0,0.0,0.0,0.0,0.0,0.0,0.0,0.0,0.0,0.0,0.0,0.0,0.0,0.0,0.0,0.0,0.0,0.0,0.0,0.0,0.0,0.0,0.0,0.0,0.0,0.0,0.0,0.0,0.0,0.0,-3.0999,-3.7377,-4.1298,-4.4591,-4.7205,-4.7649,-4.7388,-4.6499,-4.3284,-4.0122,0.0,0.0,0.0,0.0,0.0,0.0,0.0,0.0,0.0,0.0,0.0,0.0,0.0,0.0,0.0,0.0,0.0,0.0,0.0,0.0,0.0,0.0,0.0,0.0,0.0,0.0,0.0,0.0,0.0,0.0,0.0,0.0,0.0,0.0,0.0,0.0,0.0,0.0,0.0,0.0,0.0,0.0,-3.1156,-3.0999,0.0,0.0,0.0,-3.0179,-3.0895,0.0,0.0,0.0,0.0,0.0,0.0,0.0,0.0,0.0,0.0,0.0,0.0,0.0,0.0,0.0,0.0,0.0,0.0,0.0,0.0,0.0,0.0,0.0,0.0,0.0,0.0,0.0,0.0,0.0,0.0,0.0,0.0,0.0,0.0,0.0,0.0,0.0,0.0,0.0,0.0,0.0,0.0,0.0,0.0,0.0,0.0,0.0,0.0,0.0,0.0,0.0,0.0,0.0,0.0,0.0,0.0,0.0,-3.7821,-4.2422,-4.5506,-4.7074,-4.7519,-4.7283,-4.6238,-4.2605,0.0,0.0,0.0,0.0,0.0,0.0,0.0,0.0,0.0,0.0,0.0,0.0,0.0,0.0,0.0,0.0,0.0,0.0,0.0,0.0,0.0,0.0,0.0,0.0,0.0,0.0,0.0,-1.7539,0.0,0.0,0.0,0.0,0.0,0.0,0.0,0.0,0.0,0.0,0.0,0.0,0.0,0.0,-3.104,-3.2489,-3.3064,-3.3247,0.0,0.0,-3.2568,-3.2123,-3.2071,-3.0947,0.0,0.0,0.0,0.0,0.0,0.0,0.0,0.0,0.0,0.0,0.0,0.0,0.0,0.0,0.0,0.0,0.0,0.0,0.0,0.0,0.0,0.0,0.0,0.0,0.0,0.0,0.0,0.0,0.0,0.0,0.0,0.0,0.0,0.0,0.0,0.0,0.0,0.0,0.0,0.0,0.0,0.0,0.0,0.0,0.0,0.0,0.0,0.0,0.0,0.0,0.0,0.0,0.0,0.0,-3.2123,-3.7821,-4.2422,-4.5349,-4.6473,-4.6578,-4.629,-4.5663,-4.2814,-3.9651,0.0,0.0,0.0,0.0,0.0,0.0,0.0,0.0,0.0,0.0,0.0,0.0,0.0,0.0,0.0,0.0,0.0,0.0,0.0,0.0,0.0,0.0,0.0,0.0,0.0,0.0,0.0,0.0,0.0,0.0,0.0,0.0,0.0,0.0,0.0,0.0,0.0,0.0,0.0,0.0,0.0,-3.1928,-3.2594,-3.4084,-3.5286,0.0,-3.5391,-3.5051,-3.4999,-3.4999,-3.3483,-2.9022,0.0,0.0,0.0,0.0,0.0,0.0,0.0,0.0,0.0,0.0,0.0,0.0,0.0,0.0,0.0,0.0,0.0,0.0,0.0,0.0,0.0,0.0,0.0,0.0,0.0,0.0,0.0,0.0,0.0,0.0,0.0,0.0,0.0,0.0,0.0,0.0,0.0,0.0,0.0,0.0,0.0,0.0,0.0,0.0,0.0,0.0,0.0,0.0,0.0,0.0,0.0,0.0,0.0,-3.2306,-3.8318,-4.2239,-4.4931,-4.6395,-4.6499,-4.6212,-4.5637,-4.352,-4.0566,0.0,0.0,0.0,0.0,0.0,0.0,0.0,0.0,0.0,0.0,0.0,0.0,0.0,0.0,0.0,0.0,0.0,0.0,0.0,0.0,0.0,0.0,0.0,0.0,0.0,0.0,0.0,0.0,-2.0675,-2.1146,-2.0124,0.0,0.0,0.0,0.0,0.0,0.0,0.0,0.0,0.0,0.0,-3.3875,-3.5182,-3.6253,0.0,0.0,-3.6175,-3.5783,-3.5783,-3.4607,-3.2855,-3.0398,-2.8788,0.0,0.0,0.0,0.0,0.0,0.0,0.0,0.0,0.0,0.0,0.0,0.0,0.0,0.0,0.0,0.0,0.0,0.0,0.0,0.0,0.0,0.0,0.0,0.0,0.0,0.0,0.0,0.0,0.0,0.0,0.0,0.0,0.0,0.0,0.0,0.0,0.0,0.0,0.0,0.0,0.0,0.0,0.0,0.0,0.0,0.0,0.0,0.0,0.0,0.0,0.0,0.0,-3.2463,-3.8423,-4.203,-4.4539,-4.5924,-4.6133,-4.595,-4.5323,-4.3676,-4.1115,0.0,0.0,0.0,0.0,0.0,0.0,0.0,0.0,0.0,0.0,0.0,0.0,0.0,0.0,0.0,0.0,0.0,0.0,0.0,0.0,0.0,0.0,0.0,0.0,0.0,0.0,0.0,0.0,-2.1747,-2.1851,-2.0308,0.0,0.0,0.0,0.0,0.0,0.0,0.0,0.0,0.0,0.0,-3.5312,-3.7011,-3.7639,-3.7769,-3.7325,-3.675,-3.6253,-3.5913,-3.4659,-3.3091,-3.1287,0.0,0.0,0.0,0.0,0.0,0.0,0.0,0.0,0.0,0.0,0.0,0.0,0.0,0.0,0.0,0.0,0.0,0.0,0.0,0.0,0.0,0.0,0.0,0.0,0.0,0.0,0.0,-1.6415,0.0,0.0,-1.7173,0.0,0.0,0.0,0.0,0.0,0.0,0.0,0.0,0.0,0.0,0.0,0.0,0.0,0.0,0.0,0.0,0.0,0.0,0.0,0.0,0.0,0.0,-3.2659,-3.7874,-4.1847,-4.4173,-4.4774,-4.5349,-4.5294,-4.4748,-4.3101,-4.1089,-3.8684,0.0,0.0,0.0,0.0,0.0,0.0,0.0,0.0,0.0,0.0,0.0,0.0,0.0,0.0,0.0,0.0,0.0,0.0,0.0,0.0,0.0,0.0,0.0,0.0,0.0,0.0,-2.0673,-2.0751,-2.0334,0.0,0.0,0.0,0.0,0.0,0.0,0.0,0.0,0.0,-3.228,-3.4188,-3.5913,-3.7639,-3.79,-3.7952,-3.79,-3.7377,-3.6619,-3.5547,-3.5678,-3.4868,0.0,0.0,0.0,0.0,0.0,0.0,0.0,0.0,0.0,0.0,0.0,0.0,0.0,0.0,0.0,0.0,0.0,0.0,0.0,0.0,0.0,0.0,0.0,0.0,0.0,0.0,0.0,-2.24,-2.1538,0.0,0.0,0.0,0.0,0.0,0.0,0.0,0.0,0.0,0.0,0.0,-3.1339,-3.3038,0.0,0.0,0.0,0.0,0.0,0.0,0.0,0.0,0.0,0.0,0.0,0.0,-3.2672,-3.7795,-4.1455,-4.3781,-4.4696,-4.4931,-4.4931,-4.4668,-4.3807,-4.169,-3.8266,0.0,0.0,0.0,0.0,0.0,0.0,0.0,0.0,0.0,0.0,0.0,0.0,0.0,0.0,0.0,0.0,0.0,0.0,0.0,0.0,0.0,0.0,0.0,0.0,0.0,-2.0622,0.0,0.0,0.0,0.0,0.0,0.0,0.0,0.0,0.0,0.0,-2.8961,-3.2019,-3.4136,-3.6227,-3.7795,-3.837,-3.8789,-3.8893,0.0,0.0,0.0,0.0,0.0,0.0,0.0,0.0,0.0,0.0,0.0,0.0,0.0,0.0,-3.7213,-3.0705,-2.8996,-2.8711,-2.9109,0.0,0.0,0.0,0.0,0.0,0.0,0.0,0.0,0.0,0.0,0.0,0.0,0.0,0.0,-2.6681,-2.6132,-2.5354,0.0,0.0,0.0,0.0,0.0,0.0,0.0,0.0,-3.2711,-3.4946,-3.5757,-3.7403,-3.7403,-3.5966,-3.5208,-3.2202,0.0,0.0,0.0,0.0,0.0,0.0,0.0,0.0,-3.3875,-3.8397,-4.169,-4.3781,-4.4642,-4.4694,-4.4694,-4.4668,-4.3781,-4.1768,-3.8579,-3.553,-3.3143,0.0,0.0,0.0,0.0,0.0,0.0,0.0,0.0,0.0,0.0,0.0,0.0,0.0,0.0,0.0,0.0,0.0,0.0,0.0,0.0,0.0,0.0,0.0,-2.1956,0.0,0.0,0.0,0.0,0.0,0.0,0.0,0.0,0.0,-2.8752,-3.1731,-3.4659,-3.6802,-3.8031,-3.8919,-3.9547,0.0,0.0,0.0,0.0,0.0,0.0,0.0,-3.6319,-3.7241,-3.7805,-3.8435,-3.9327,-4.1662,-4.298,-4.167,0.0,0.0,-3.5679,-3.3968,-3.3608,-3.3849,-3.4634,-3.5177,-3.4841,-3.5651,-3.6217,0.0,0.0,0.0,0.0,-2.7242,0.0,0.0,0.0,-2.9536,-3.0059,0.0,-2.9222,0.0,0.0,0.0,0.0,-2.6289,-3.0022,0.0,0.0,-3.7482,-3.9677,-3.973,-4.0252,-4.0514,-4.0592,-4.1507,-3.9965,-3.5966,-3.0111,0.0,0.0,0.0,0.0,0.0,0.0,-3.6175,-3.9625,-4.2422,-4.4147,-4.4642,-4.4694,-4.4694,-4.4696,-4.3101,-4.1455,-3.9782,-3.8553,-3.6123,-3.2241,-3.0857,0.0,0.0,0.0,0.0,0.0,0.0,0.0,0.0,0.0,0.0,0.0,0.0,0.0,0.0,0.0,0.0,0.0,0.0,0.0,0.0,-2.3417,0.0,0.0,0.0,0.0,0.0,0.0,0.0,0.0,0.0,-3.3144,-3.1765,-3.4245,-3.7246,-4.0039,0.0,0.0,0.0,0.0,-3.8972,-3.9568,-3.9128,-3.8579,-3.8103,-3.9211,-3.9492,-3.7588,0.0,0.0,-4.1901,-4.3738,-4.4597,-4.2303,-4.3349,-4.4197,-4.3409,-4.155,-4.0641,-4.1189,-4.0347,-4.0016,-4.0558,-4.0838,-4.1332,-3.8501,0.0,0.0,0.0,0.0,-3.458,-3.6175,-3.8789,-3.8135,-3.7246,-3.6175,-3.5051,0.0,0.0,0.0,0.0,0.0,0.0,-3.526,-3.709,-3.9651,-4.1272,-4.2056,-4.2631,-4.2866,-4.2918,-4.2396,-4.135,-3.9782,-3.7586,-3.3404,-2.7583,0.0,0.0,0.0,0.0,-3.7769,-4.0749,-4.284,-4.4147,-4.4722,-4.4694,-4.4694,-4.4668,-4.3467,-4.2526,-4.203,-4.0174,-3.8397,-3.6776,-3.4084,0.0,0.0,0.0,0.0,0.0,0.0,0.0,0.0,0.0,0.0,0.0,0.0,0.0,0.0,0.0,0.0,0.0,0.0,0.0,-2.2818,-2.3652,-2.4174,0.0,0.0,0.0,0.0,0.0,0.0,0.0,0.0,0.0,-3.9156,-3.8854,-3.9333,0.0,0.0,-4.0228,-4.1025,-4.0447,-4.0123,-4.0616,-4.0235,0.0,-4.016,-4.0302,-4.0669,-4.1432,-4.4064,-4.5733,-4.4758,-4.5776,-4.6471,-4.5747,-4.6094,-4.6381,-4.6082,-4.4167,-4.274,-4.2839,-4.2899,-4.298,-4.3219,-4.3758,-4.4167,-4.4931,-4.1089,-3.9155,-3.9102,-4.0252,-4.0122,-4.1455,-4.3597,-4.2971,-4.2213,-4.1376,-4.0226,-3.8004,-3.4999,-3.3509,0.0,0.0,0.0,-3.8553,-4.0801,-4.1847,-4.2814,-4.3702,-4.4068,-4.4199,-4.4173,-4.352,-4.2997,-4.2657,-4.2317,-3.9233,-3.3692,0.0,-3.4162,-3.4476,-3.7273,-3.9782,-4.1951,-4.3467,-4.4382,-4.4668,-4.4694,-4.4643,-4.4356,-4.3493,-4.2918,-4.2657,-4.1141,-3.9913,-3.9076,-3.6671,-3.377,0.0,0.0,0.0,0.0,0.0,0.0,0.0,0.0,0.0,0.0,0.0,-2.1511,-1.9107,0.0,0.0,0.0,-2.2426,-2.4073,-2.5767,-2.6478,0.0,0.0,0.0,0.0,0.0,0.0,0.0,-3.7234,-3.9081,-4.1196,-4.418,-4.246,-4.1686,-4.3712,-4.2293,-4.1433,-4.2343,0.0,-4.0841,-4.1149,-4.0931,-4.0841,-4.1122,-4.1295,-4.2098,-4.4027,-4.5607,-4.6682,-4.6506,-4.6931,-4.7309,-4.7309,-4.7309,-4.7309,-4.7309,-4.5963,-4.4874,-4.4945,-4.5244,-4.5484,-4.5484,-4.5813,-4.6082,-4.974,-4.8956,-4.5245,-4.3938,-4.433,-4.4853,-4.5033,-4.5114,-4.5036,-4.5242,-4.5663,-4.4513,-4.3101,-4.1428,-3.8867,0.0,-4.0827,-4.0827,-4.1977,-4.4016,-4.4017,-4.4225,-4.4668,-4.4668,-4.4694,-4.4668,-4.4694,-4.4694,-4.4668,-4.4642,-4.3597,-4.1585,-3.9991,-3.939,-3.9782,-4.0906,-4.2056,-4.3154,-4.4146,-4.4694,-4.4694,-4.467,-4.4408,-4.3885,-4.3258,-4.2683,-4.2159,-4.1533,-4.0723,-3.9651,-3.8475,-3.6096,-3.2267,0.0,0.0,0.0,0.0,0.0,0.0,0.0,0.0,0.0,0.0,0.0,0.0,0.0,0.0,0.0,-2.6419,0.0,-3.0153,-3.0817,0.0,0.0,0.0,-3.1914,-3.3247,-3.5678,-3.8479,-4.1627,0.0,0.0,-4.7242,-4.5266,-4.4425,-4.6867,-4.4327,-4.2856,-4.4474,-4.2814,-4.1455,-4.1629,-4.1505,-4.1479,-4.1872,-4.2517,-4.3667,-4.5331,-4.5869,-4.6299,-4.6931,-4.7266,-4.7266,-4.7309,-4.7309,-4.7309,-4.7309,-4.7189,-4.7309,-4.716,-4.7219,-4.7249,-4.716,-4.7189,-4.7189,-5.1126,-5.0917,-4.9949,-4.8904,-4.7858,-4.7989,-4.8277,-4.8564,-4.7728,-4.7205,-4.6782,-4.5715,-4.4722,-4.3885,-4.3676,-4.3832,-4.4382,-4.4382,-4.467,-4.5166,-4.4748,-4.4591,-4.4722,-4.4694,-4.4694,-4.4694,-4.4694,-4.4694,-4.4694,-4.4694,-4.446,-4.3912,-4.3441,-4.25,-4.1036,-4.2474,-4.3624,-4.433,-4.4537,-4.4694,-4.4668,-4.4304,-4.4016,-4.3859,-4.2892,-4.2108,-4.1533,-4.0932,-4.0305,-3.9599,-3.8083,-3.6384,-3.4528,-3.0022,0.0,0.0,0.0,0.0,0.0,0.0,0.0,0.0,0.0,-2.6039,-2.125,0.0,-2.734,0.0,-2.8804,-3.0686,-3.1967,-3.2202,0.0,0.0,-3.5443,-3.6044,-3.8919,-3.9468,-4.0834,-4.406,-4.5302,-4.6525,-4.8172,-4.8198,-4.795,-4.7763,-4.4921,-4.3484,-4.5327,-4.3939,-4.2887,-4.3445,-4.3014,-4.2984,-4.3938,-4.4734,-4.519,-4.5734,-4.6462,-4.677,-4.6255,-4.68,-4.7309,-4.7309,-4.7309,-4.7309,-4.7309,-4.7309,-4.7309,-4.7309,-4.7309,-4.7309,-4.7309,-4.7309,-4.7309,-5.1596,-5.1596,-5.1596,-5.1047,-5.0211,-5.0211,-5.0237,-5.0237,-4.9636,-4.9008,-4.8407,-4.7257,-4.6578,-4.6238,-4.6081,-4.6159,-4.6286,-4.579,-4.5767,-4.595,-4.5114,-4.4694,-4.4694,-4.4694,-4.4694,-4.4694,-4.4694,-4.4694,-4.4694,-4.4929,-4.4955,-4.4694,-4.4929,-4.4302,-4.2944,-4.3781,-4.4408,-4.4668,-4.4694,-4.4433,-4.399,-4.3912,-4.352,-4.2762,-4.2134,-4.1272,-4.02,-3.9599,-3.9024,-3.8449,-3.7037,-3.5835,-3.4894,-3.1406,-2.89,0.0,0.0,0.0,0.0,0.0,0.0,0.0,0.0,0.0,0.0,0.0,-3.0006,-3.0215,-3.2306,-3.4136,-3.526,-3.607,-3.7325,-3.9233,-3.9285,-3.9965,-4.1873,-4.2004,-4.2926,-4.5476,-4.5911,-4.6601,-4.8105,-4.7819,-4.7638,-4.7915,-4.5545,-4.4229,-4.5399,-4.4454,-4.352,-4.3748,-4.336,-4.3303,-4.4407,-4.4847,-4.5281,-4.5779,-4.6638,-4.7106,-4.6594,-4.6931,-4.7309,-4.7309,-4.7309,-4.7309,-4.7309,-4.7309,-4.7309,-4.7309,-4.7309,-4.7309,-4.7309,-4.7309,-4.7309,-5.1701,-5.1727,-5.1701,-5.1701,-5.1701,-5.1622,-5.1335,-5.089,-5.0812,-5.0446,-4.9819,-4.8747,-4.8303,-4.8224,-4.7179,-4.697,-4.7304,-4.6264,-4.6003,-4.6395,-4.5271,-4.4694,-4.4694,-4.4694,-4.4694,-4.4694,-4.4694,-4.4694,-4.4694,-4.5216,-4.519,-4.472,-4.5216,-4.519,-4.4694,-4.4694,-4.4642,-4.4617,-4.4539,-4.3963,-4.2997,-4.3441,-4.2918,-4.1402,-4.1167,-4.0278,-3.8579,-3.8161,-3.7639,-3.6907,-3.607,-3.5312,-3.4633,-3.2946,-3.1484,0.0,-2.9144,0.0,0.0,0.0,0.0,0.0,0.0,0.0,0.0,-3.2502,-3.3181,-3.4162,-3.6253,-3.7952,-3.8945,-4.0488,-4.1481,-4.1664,-4.2526,-4.3154,-4.318,-4.3676,-4.4626,-4.6215,-4.5555,-4.5688,-4.7406,-4.6137,-4.59,-4.7047,-4.6057,-4.5077,-4.5203,-4.4599,-4.3886,-4.3284,-4.3414,-4.3975,-4.4256,-4.4637,-4.5213,-4.5837,-4.6638,-4.7266,-4.7266,-4.7266,-4.7309,-4.7309,-4.7309,-4.7309,-4.7309,-4.7309,-4.7309,-4.7309,-4.7309,-4.7309,-4.7309,-4.7309,-4.7309,-5.2328,-5.2328,-5.2328,-5.2328,-5.2276,-5.1805,-5.1544,-5.1413,-5.0995,-5.0446,-4.9845,-4.9191,-4.8904,-4.8852,-4.8172,-4.7937,-4.7963,-4.6839,-4.6369,-4.6421,-4.5271,-4.4694,-4.4694,-4.4694,-4.4694,-4.4694,-4.4694,-4.4694,-4.4694,-4.4798,-4.4826,-4.4694,-4.4798,-4.4853,-4.4694,0.0,0.0,0.0,-4.3572,-4.3232,-4.3023,-4.2657,-4.2159,-4.1324,-4.0409,0.0,-3.7456,-3.8109,-3.7848,-3.641,-3.7011,0.0,0.0,0.0,0.0,0.0,0.0,0.0,0.0,0.0,0.0,0.0,-3.4136,-3.3666,-3.3404,-3.6253,-3.8031,-3.7821,-3.9416,-4.0592,-4.0801,-4.1533,-4.2369,-4.3284,-4.3598,-4.3885,-4.4276,-4.4459,-4.5022,-4.6242,-4.6191,-4.6216,-4.6556,-4.7023,-4.6816,-4.5635,-4.5741,-4.5714,-4.4942,-4.4701,-4.4513,-4.4436,-4.5146,-4.5929,-4.5741,-4.6598,-4.6722,-4.6342,-4.6638,-4.7266,-4.7309,-4.7309,-4.7309,-4.7309,-4.7309,-4.7309,-4.7309,-4.7309,-4.7309,-4.7309,-4.7309,-4.7309,-4.7309,-4.7309,-4.7309,-5.2485,-5.2511,-5.2825,-5.2955,0.0,-5.2616,-5.2485,-5.2433,-5.157,-5.1021,-5.0707,-5.0159,-4.9766,-4.9453,-4.8878,-4.8486,-4.8146,-4.7283,-4.6734,-4.6421,-4.5584,-4.5009,-4.4694,-4.4694,-4.4694,-4.4694,-4.4694,-4.4694,-4.4694,-4.4694,-4.4694,-4.4694,-4.4694,-4.4694,-4.4668,-4.4173,-4.3729,-4.3441,-4.3154,-4.271,-4.2213,-4.216,-4.1742,-4.088,-4.0043,0.0,0.0,0.0,0.0,0.0,0.0,0.0,0.0,-3.5574,0.0,-3.4816,-3.4267,-3.4058,-3.4371,-3.492,-3.5992,-3.7691,-3.8632,-3.8397,-3.6698,-3.9207,-4.088,-4.088,-4.1899,-4.2579,-4.2579,-4.3101,-4.3676,-4.4225,-4.4278,-4.4408,-4.467,-4.4694,-4.4938,-4.5395,-4.5555,-4.5555,-4.5555,-4.6006,-4.5953,-4.4938,-4.5207,-4.5342,-4.483,-4.4694,-4.4694,-4.4722,-4.4996,-4.5727,-4.6392,-4.6519,-4.7027,-4.6917,-4.7183,-4.7296,-4.7309,-4.7309,-4.7309,-4.7309,-4.7309,-4.7309,-4.7309,-4.7309,-4.7309,-4.7309,-4.7309,-4.7309,-4.7309,-4.7309,-4.7309,-5.2798,-5.2851,-5.3347,-5.353,-5.353,-5.3426,-5.3321,-5.3164,-5.2171,0.0,0.0,-5.1021,-5.0446,-4.9871,-4.9322,-4.8747,-4.8172,-4.7597,-4.7074,-4.6604,-4.5924,-4.5375,-4.4824,-4.48,-4.4694,-4.4694,-4.4694,-4.4694,-4.4694,-4.4694,-4.4694,-4.4694,-4.4694,-4.4694,-4.467,-4.3702,-4.3127,-4.2971,-4.2762,-4.2265,-4.1376,-4.1768,-4.1507,-4.0435,-3.9886,-3.9285,-3.8579,-3.7377,-3.6619,-3.6436,-3.6279,-3.6305,-3.6567,-3.7142,-3.7821,-3.8632,-3.8815,-3.8893,-3.8998,-3.9468,-3.9808,-3.9886,-4.1821,-4.2265,-4.0461,-4.1742,-4.2814,-4.3284,-4.3755,-4.4016,-4.4016,-4.4434,-4.4694,-4.4694,-4.4694,-4.4668,-4.4694,-4.4694,-4.4722,-4.4694,-4.4776,-4.4748,-4.4722,-4.4776,-4.4694,-4.4722,-4.4802,-4.4694,-4.4694,-4.4694,-4.483,-4.5047,-4.5023,-4.5071,-4.6105,-4.6118,-4.5978,-4.6874,-4.6844,-4.6873,-4.6975,-4.7019,-4.7106,-4.7309,-4.7309,-4.7309,-4.7309,-4.7309,-4.7309,-4.7309,-4.7309,-4.7309,-4.7309,-4.7309,-4.7309,-5.3949,-5.3975,-5.4053,-5.4079,-5.4053,-5.3583,-5.3112,-5.2616,-5.2433,-5.2093,-5.1544,-5.1021,-5.0446,-4.9871,-4.9322,-4.8747,-4.8146,-4.7597,-4.7226,-4.7153,-4.6051,-4.5529,-4.5425,-4.4983,-4.4694,-4.4694,-4.4694,-4.4694,-4.4694,-4.4694,-4.4694,-4.4694,-4.4694,-4.4668,-4.467,-4.4095,-4.352,-4.3023,-4.2056,-4.1481,-4.1324,-4.1402,-4.1115,-4.0435,-3.9913,-3.9102,-3.8057,-3.871,-3.8658,-3.7743,-3.8972,-3.9285,-3.8423,-3.8893,-3.9102,-3.8762,-3.9207,-3.9677,-4.0122,-4.0252,-4.054,-4.1063,-4.224,-4.3075,-4.3284,-4.3938,-4.4354,-4.4487,-4.4539,-4.4617,-4.4617,-4.4696,-4.4694,-4.4694,-4.4694,-4.4694,-4.4694,-4.4694,-4.4694,-4.4694,-4.4694,-4.4694,-4.4694,-4.4694,-4.4694,-4.4694,-4.4694,-4.4694,-4.4694,-4.4694,-4.5154,-4.5927,-4.611,-4.5996,-4.5895,-4.5912,-4.5588,-4.4456,-4.4781,-4.519,-4.5869,-4.6003,-4.6299,-4.7106,-4.7179,-4.7266,-4.7266,-4.7309,-4.7309,-4.7309,-4.7309,-4.7309,-4.7309,-4.7309,-4.7309,-5.421,-5.4236,-5.455,-5.468,-5.4654,-5.4419,-5.3975,-5.34,-5.3112,-5.2459,-5.1622,-5.1335,-5.0734,-4.9897,-4.9636,-4.9035,-4.8172,-4.7911,-4.7623,-4.731,-4.673,-4.6395,-4.6055,-4.548,-4.5375,-4.5611,-4.5009,-4.5062,-4.5611,-4.5375,-4.5218,-4.5192,-4.4824,-4.4565,-4.4251,-4.4016,-4.3598,-4.3023,-4.2186,-4.1638,-4.1324,-4.1324,-4.1193,-4.0906,-4.0357,-3.9991,-3.9756,-3.9651,-3.9494,-3.9259,-3.9991,-4.0174,-3.9677,-4.02,-4.0409,-4.0148,-4.0383,-4.0644,-4.088,-4.0906,-4.1298,-4.2109,-4.2735,-4.3415,-4.4278,-4.4591,-4.4668,-4.4694,-4.4694,-4.4694,-4.4694,-4.4694,-4.4694,-4.4694,-4.4694,-4.4694,-4.4694,-4.4694,-4.4694,-4.4694,-4.4694,-4.4694,-4.4694,-4.4694,-4.4694,-4.4694,-4.4694,-4.4694,-4.4694,-4.4748,-4.4884,-4.5342,-4.5449,-4.5661,-4.5863,-4.5508,-4.5178,-4.4946,-4.4598,-4.4537,-4.4961,-4.5007,-4.5417,-4.6255,-4.6477,-4.6726,-4.7106,-4.7309,-4.7309,-4.7309,-4.7309,-4.7309,-4.7309,-4.7309,-4.7309,-5.4393,-5.4445,-5.4916,-5.5099,-5.5072,-5.4837,-5.4445,-5.3975,-5.3269,-5.2459,-5.1675,-5.1596,-5.1021,-5.0159,-5.0106,-4.9479,-4.8486,-4.8381,-4.8094,-4.7545,-4.733,-4.7022,-4.6473,-4.6029,-4.5976,-4.6186,-4.548,-4.5584,-4.6342,-4.6029,-4.5741,-4.5529,-4.5111,-4.4643,-4.4122,-4.4068,-4.3781,-4.3232,-4.2657,-4.2082,-4.1533,-4.1376,-4.1324,-4.1272,-4.0853,-4.0778,-4.1246,-4.0461,-4.02,-4.0592,-4.0618,-4.0618,-4.0618,-4.1063,-4.1324,-4.1324,-4.1324,-4.1324,-4.1324,-4.1324,-4.169,-4.2552,-4.2762,-4.3206,-4.4016,-4.4224,-4.446,-4.4615,-4.4617,-4.4565,-4.4642,-4.4694,-4.4694,-4.4694,-4.4694,-4.4694,-4.4694,-4.4694,-4.4694,-4.4694,-4.4694,-4.4694,-4.4694,-4.4694,-4.4694,-4.4694,-4.4694,-4.4694,-4.4694,-4.4694,-4.4694,-4.4694,-4.4694,-4.4941,-4.5659,-4.4877,-4.4482,-4.5216,-4.4277,-4.3745,-4.3843,-4.3984,-4.4359,-4.519,-4.5463,-4.5689,-4.6417,-4.655,-4.6594,-4.6726,-4.6844,-4.6931,-4.6887,-4.6887,-4.6931,-5.4994,-5.502,-5.5072,-5.5099,-5.4994,-5.4027,-5.3583,-5.34,-5.2276,-5.1727,-5.1675,-5.1596,-5.1282,-5.076,-5.0681,-5.0054,-4.9035,-4.9008,-4.8669,-4.8068,-4.7571,-4.7022,-4.6578,-4.6421,-4.6159,-4.5872,-4.6107,-4.6316,-4.6578,-4.6447,-4.6159,-4.5689,-4.5503,-4.5245,-4.4722,-4.4589,-4.4356,-4.3807,-4.3232,-4.2657,-4.2159,-4.1585,-4.1324,-4.1324,-4.1272,-4.1272,-4.1324,-4.1169,-4.1167,-4.1219,-4.1219,-4.1219,-4.1219,-4.1298,-4.1324,-4.1324,-4.1324,-4.1324,-4.1324,-4.1324,-4.1376,-4.1481,-4.2004,-4.2343,-4.2526,-4.2944,-4.365,-4.4356,-4.4251,-4.4199,-4.4643,-4.4694,-4.4694,-4.4694,-4.4694,-4.4694,-4.4694,-4.4694,-4.4694,-4.4694,-4.4694,-4.4694,-4.4694,-4.4694,-4.4694,-4.4694,-4.4694,-4.4694,-4.4694,-4.4694,-4.4696,-4.4642,-4.4668,-4.4487,-4.4308,-4.3599,-4.3227,-4.2827,-4.2145,-4.2195,-4.2722,-4.2985,-4.3273,-4.4144,-4.4452,-4.4545,-4.4684,-4.4638,-4.5007,-4.5734,-4.5943,-4.5913,-4.5913,-4.5913,-4.5913,-5.5099,-5.5099,-5.5099,-5.5099,-5.4968,-5.421,-5.4079,-5.4288,-5.3164,-5.2668,-5.2616,-5.2276,-5.1622,-5.0812,-5.0786,-5.0342,-4.9557,-4.9244,-4.8956,-4.8669,-4.812,-4.7702,-4.7492,-4.7127,-4.7022,-4.7074,-4.6708,-4.6839,-4.7336,-4.7153,-4.6865,-4.6578,-4.5976,-4.5451,-4.519,-4.4905,-4.4617,-4.4356,-4.3467,-4.2892,-4.2605,-4.1794,-4.1324,-4.1324,-4.1324,-4.1324,-4.1324,-4.1324,-4.1324,-4.1324,-4.1324,-4.1324,-4.1324,-4.1324,-4.1324,-4.1324,-4.1324,-4.1324,-4.1324,-4.1324,-4.1455,-4.1794,-4.2081,-4.2291,-4.2657,-4.2892,-4.3363,-4.4016,-4.4016,-4.4095,-4.4643,-4.4694,-4.4694,-4.4694,-4.4694,-4.4694,-4.4694,-4.4694,-4.4694,-4.4694,-4.4694,-4.4694,-4.4694,-4.4694,-4.4694,-4.4694,-4.4694,-4.4694,-4.4694,-4.4694,-4.4591,-4.4304,-4.4225,-4.4147,-4.3807,-4.3127,-4.2526,-4.216,-4.169,-4.1623,-4.1769,-4.1918,-4.2235,-4.3273,-4.3368,-4.3701,-4.4312,-4.4266,-4.4499,-4.4915,-4.4869,-4.4776,-4.4144,-4.4517,-4.461,-5.5099,-5.5099,-5.5099,-5.5099,-5.5046,-5.4445,-5.4445,-5.468,-5.3635,-5.3164,-5.3086,-5.2511,-5.1805,-5.11,-5.0995,-5.0707,-5.0132,-4.974,-4.9374,-4.9087,-4.8616,-4.825,-4.7963,-4.7728,-4.7702,-4.7806,-4.7283,-4.7388,-4.8068,-4.7806,-4.7492,-4.7205,-4.6342,-4.5767,-4.5503,-4.4981,-4.4694,-4.4643,-4.3729,-4.3258,-4.3101,-4.2134,-4.1481,-4.1324,-4.1324,-4.1324,-4.1324,-4.1324,-4.1324,-4.1324,-4.1324,-4.1324,-4.1324,-4.1324,-4.1324,-4.1324,-4.1324,-4.1324,-4.1324,-4.1324,-4.1481,-4.1873,-4.1925,-4.2108,-4.2474,-4.2683,-4.3049,-4.3572,-4.3781,-4.4095,-4.4617,-4.4694,-4.4694,-4.4694,-4.4694,-4.4694,-4.4694,-4.4694,-4.4694,-4.4694,-4.4694,-4.4694,-4.4694,-4.4694,-4.4694,-4.4694,-4.4694,-4.4694,-4.4694,-4.4668,-4.4539,-4.3964,-4.3755,-4.3546,-4.3389,-4.2839,-4.2264,-4.1873,-4.1507,-4.1324,-4.1324,-4.1324,-4.1348,-4.2333,-4.2382,-4.2479,-4.2867,-4.3225,-4.3701,-4.389,-4.3984,-4.389,-4.3273,-4.3559,-4.3368,-5.5099,-5.5099,-5.5099,-5.5099,-5.5046,-5.4445,-5.4236,-5.4288,-5.3112,-5.2589,-5.2563,-5.2014,-5.1648,-5.1544,-5.1518,-5.1256,-5.0786,-5.0655,-5.0106,-4.9244,-4.9087,-4.846,-4.744,-4.7885,-4.7911,-4.7675,-4.7858,-4.8041,-4.8172,-4.8146,-4.7885,-4.7336,-4.6708,-4.6133,-4.5663,-4.5007,-4.4694,-4.467,-4.4068,-4.3781,-4.3703,-4.2735,-4.1847,-4.1402,-4.1324,-4.1324,-4.1324,-4.1324,-4.1324,-4.1324,-4.1324,-4.1324,-4.1324,-4.1324,-4.1324,-4.1324,-4.1324,-4.1324,-4.1324,-4.1324,-4.135,-4.1376,-4.1428,-4.1402,-4.1664,-4.2082,-4.2579,-4.3023,-4.365,-4.4173,-4.4565,-4.4696,-4.4694,-4.4694,-4.4694,-4.4694,-4.4694,-4.4694,-4.4694,-4.4694,-4.4694,-4.4694,-4.4694,-4.4694,-4.4694,-4.4694,-4.4694,-4.4694,-4.4694,-4.4694,-4.446,-4.3912,-4.3389,-4.2892,-4.2447,-4.2185,-4.1873,-4.1638,-4.1455,-4.1324,-4.1324,-4.1324,-4.1348,-4.1398,-4.1547,-4.1597,-4.1498,-4.1696,-4.2164,-4.2674,-4.3416,-4.3321,-4.2577,-4.2695,-4.255,-5.5099,-5.5099,-5.5099,-5.5099,-5.502,-5.4445,-5.4419,-5.4707,-5.3949,-5.34,-5.306,-5.2825,-5.2328,-5.1596,-5.1596,-5.1492,-5.1282,-5.0943,-5.0577,-5.0132,-4.9766,-4.9374,-4.9008,-4.8852,-4.8669,-4.846,-4.8277,-4.8172,-4.8172,-4.8172,-4.8094,-4.7754,-4.6917,-4.6369,-4.6029,-4.5218,-4.4694,-4.4643,-4.3807,-4.3337,-4.331,-4.2552,-4.2056,-4.1847,-4.1507,-4.1324,-4.1324,-4.1324,-4.1324,-4.1324,-4.1324,-4.1324,-4.1324,-4.1324,-4.1324,-4.1324,-4.1324,-4.1324,-4.1324,-4.1324,-4.1324,-4.1324,-4.1324,-4.1507,-4.1873,-4.2369,-4.2814,-4.3127,-4.3912,-4.4382,-4.4251,-4.4487,-4.4694,-4.4694,-4.4694,-4.4694,-4.4694,-4.4694,-4.4694,-4.4694,-4.4694,-4.4694,-4.4694,-4.4694,-4.4694,-4.4694,-4.4694,-4.4694,-4.4694,-4.4694,-4.438,-4.3572,-4.3127,-4.2683,-4.1716,-4.1638,-4.1533,-4.1428,-4.1324,-4.1324,-4.1324,-4.1324,-4.1348,-4.1348,-4.1324,-4.1324,-4.1348,-4.1398,-4.1647,-4.1769,-4.2577,-4.2625,-4.1918,-4.2039,-4.1819,-5.5099,-5.5099,-5.5099,-5.5099,-5.5046,-5.468,-5.4733,-5.502,-5.4471,-5.4001,-5.3687,-5.3478,-5.2825,-5.2014,-5.1884,-5.1884,-5.1831,-5.1309,-5.0969,-5.076,-5.0368,-5.008,-4.9819,-4.9348,-4.9087,-4.8982,-4.846,-4.8172,-4.8172,-4.8172,-4.8172,-4.8094,-4.7048,-4.6499,-4.629,-4.5297,-4.4694,-4.4485,-4.3781,-4.3389,-4.3441,-4.2631,-4.2421,-4.2578,-4.1821,-4.1402,-4.1559,-4.1428,-4.1324,-4.1324,-4.1324,-4.1324,-4.1324,-4.1324,-4.1324,-4.1324,-4.1324,-4.1324,-4.1324,-4.1324,-4.1402,-4.1585,-4.1585,-4.1794,-4.216,-4.2683,-4.2892,-4.3023,-4.3546,-4.399,-4.3781,-4.3938,-4.433,-4.4617,-4.4694,-4.4694,-4.4668,-4.4539,-4.4434,-4.4434,-4.4617,-4.4668,-4.4694,-4.4694,-4.4694,-4.4694,-4.4694,-4.4694,-4.4694,-4.4642,-4.4276,-4.3232,-4.3049,-4.25,-4.1742,-4.1428,-4.1428,-4.135,-4.1324,-4.1324,-4.1324,-4.1324,-4.1324,-4.1324,-4.1324,-4.1324,-4.1324,-4.1324,-4.1324,-4.1324,-4.1547,-4.1769,-4.1448,-4.1348,-4.1298,-5.5099,-5.5099,-5.5099,-5.5099,-5.5099,-5.5046,-5.5072,-5.4994,-5.4497,-5.4236,-5.4053,-5.3635,-5.3034,-5.2537,-5.238,-5.2433,-5.225,-5.1805,-5.1387,-5.0969,-5.0838,-5.0472,-4.9976,-4.9427,-4.9087,-4.8982,-4.846,-4.8172,-4.8172,-4.8172,-4.8172,-4.7963,-4.6996,-4.6447,-4.6447,-4.5323,-4.4694,-4.4591,-4.4095,-4.4068,-4.4434,-4.3101,-4.2787,-4.3415,-4.2239,-4.1664,-4.2159,-4.1611,-4.1324,-4.1324,-4.1324,-4.1324,-4.1324,-4.1324,-4.1324,-4.1324,-4.1324,-4.1324,-4.1324,-4.1324,-4.1533,-4.1847,-4.2082,-4.203,-4.2213,-4.2631,-4.2735,-4.2448,-4.2788,-4.3075,-4.3049,-4.3127,-4.3546,-4.4407,-4.4513,-4.4459,-4.4487,-4.4199,-4.3885,-4.399,-4.4382,-4.4668,-4.4694,-4.4694,-4.4694,-4.4694,-4.4694,-4.4694,-4.4722,-4.467,-4.4173,-4.331,-4.2866,-4.2369,-4.1794,-4.1324,-4.1324,-4.1324,-4.1324,-4.1324,-4.1324,-4.1324,-4.1324,-4.1324,-4.1324,-4.1324,-4.1324,-4.1324,-4.1324,-4.1324,-4.1324,-4.1324,-4.1324,-4.1324,-4.1324,-5.5099,-5.5099,-5.5099,-5.5099,-5.5099,-5.5099,-5.5099,-5.5072,-5.4889,-5.4602,-5.4158,-5.3635,-5.306,-5.2616,-5.2485,-5.2276,-5.191,-5.2067,-5.2093,-5.1884,-5.1518,-5.1021,-5.0472,-4.9897,-4.9218,-4.8564,-4.8303,-4.8172,-4.8172,-4.8172,-4.8015,-4.7519,-4.6865,-4.629,-4.5898,-4.514,-4.4694,-4.4615,-4.4173,-4.399,-4.4095,-4.3624,-4.3337,-4.3206,-4.2762,-4.2422,-4.2211,-4.1611,-4.1324,-4.1324,-4.1324,-4.1324,-4.1324,-4.1324,-4.1324,-4.1324,-4.1324,-4.1324,-4.1324,-4.1324,-4.1376,-4.1559,-4.1611,-4.1794,-4.2159,-4.2317,-4.2369,-4.2264,-4.2683,-4.2892,-4.2579,-4.2814,-4.3154,-4.352,-4.3572,-4.3545,-4.3624,-4.3755,-4.3859,-4.3938,-4.4382,-4.4642,-4.4694,-4.4694,-4.4694,-4.4694,-4.4748,-4.4722,-4.467,-4.4382,-4.3912,-4.318,-4.2762,-4.2265,-4.1664,-4.1324,-4.1324,-4.1324,-4.1324,-4.1324,-4.1324,-4.1324,-4.1324,-4.1324,-4.1324,-4.1324,-4.1324,-4.1324,-4.1324,-4.1324,-4.1324,-4.1324,-4.1324,-4.1324,-4.1324,-5.5099,-5.5099,-5.5099,-5.5099,-5.5099,-5.5099,-5.5099,-5.5072,-5.4863,-5.4654,-5.4393,-5.3713,-5.3321,-5.3112,-5.2929,-5.2642,-5.2302,-5.2459,-5.2485,-5.2406,-5.1884,-5.1309,-5.0707,-4.9949,-4.9139,-4.8355,-4.8172,-4.8172,-4.8172,-4.7963,-4.7702,-4.7283,-4.6552,-4.6003,-4.5555,-4.5036,-4.4694,-4.4643,-4.4173,-4.399,-4.4068,-4.3781,-4.3598,-4.3519,-4.3206,-4.2866,-4.2474,-4.1925,-4.1533,-4.1376,-4.1324,-4.1324,-4.1324,-4.1324,-4.1324,-4.1324,-4.1324,-4.1324,-4.1324,-4.1324,-4.1428,-4.1585,-4.1638,-4.1768,-4.2159,-4.2211,-4.2159,-4.1951,-4.2134,-4.2239,-4.1977,-4.2134,-4.2369,-4.2396,-4.284,-4.2892,-4.2866,-4.3206,-4.352,-4.365,-4.4042,-4.4434,-4.467,-4.4694,-4.4694,-4.4694,-4.4722,-4.4565,-4.4434,-4.4095,-4.3546,-4.2997,-4.25,-4.1977,-4.1481,-4.1324,-4.1324,-4.1324,-4.1324,-4.1324,-4.1324,-4.1324,-4.1324,-4.1324,-4.1324,-4.1324,-4.1324,-4.1324,-4.1324,-4.1324,-4.1324,-4.1324,-4.1324,-4.1324,-4.1324,-5.5099,-5.5099,-5.5099,-5.5099,-5.5099,-5.5099,-5.5046,-5.4916,-5.4497,-5.4524,-5.4654,-5.3844,-5.3661,-5.3949,-5.353,-5.3217,-5.3217,-5.2694,-5.2406,-5.225,-5.1831,-5.1282,-5.0577,-4.9531,-4.8721,-4.825,-4.8172,-4.8172,-4.8146,-4.7675,-4.7278,-4.7174,-4.6369,-4.566,-4.5663,-4.5059,-4.4931,-4.48,-4.433,-4.433,-4.4643,-4.3781,-4.3598,-4.438,-4.3572,-4.2971,-4.2735,-4.2239,-4.1768,-4.1402,-4.1324,-4.1324,-4.1324,-4.1324,-4.1324,-4.1324,-4.1324,-4.1324,-4.1324,-4.1324,-4.1481,-4.1873,-4.1925,-4.2159,-4.2081,-4.2004,-4.1847,-4.1455,-4.1455,-4.1428,-4.1402,-4.1428,-4.1455,-4.143,-4.2186,-4.25,-4.2239,-4.2631,-4.2918,-4.3075,-4.3467,-4.399,-4.4434,-4.4539,-4.4617,-4.4643,-4.4643,-4.4539,-4.4199,-4.3885,-4.331,-4.2788,-4.2317,-4.1821,-4.135,-4.1324,-4.1324,-4.1324,-4.1324,-4.1324,-4.1324,-4.1324,-4.1324,-4.1324,-4.1324,-4.1324,-4.1324,-4.1324,-4.1324,-4.1324,-4.1324,-4.1324,-4.1324,-4.1324,-4.1324,-5.5099,-5.5099,-5.5099,-5.5099,-5.5099,-5.5099,-5.4837,-5.4445,-5.4288,-5.4314,-5.4288,-5.3713,-5.3713,-5.4105,-5.3635,-5.3164,-5.2825,-5.2589,-5.2197,-5.1858,-5.1701,-5.1021,-5.008,-4.9008,-4.8381,-4.8198,-4.8224,-4.8172,-4.8146,-4.7597,-4.7304,-4.731,-4.6604,-4.6212,-4.6212,-4.6003,-4.5794,-4.5454,-4.5245,-4.4931,-4.4696,-4.4407,-4.4199,-4.3964,-4.3441,-4.2866,-4.2422,-4.1847,-4.1507,-4.135,-4.1324,-4.1324,-4.1324,-4.1324,-4.1324,-4.1324,-4.1324,-4.1324,-4.1324,-4.1324,-4.1402,-4.1507,-4.1611,-4.1533,-4.1533,-4.1533,-4.1455,-4.1324,-4.1324,-4.1324,-4.1324,-4.1324,-4.1324,-4.135,-4.1742,-4.1847,-4.1716,-4.203,-4.2396,-4.2448,-4.2918,-4.3284,-4.3572,-4.3859,-4.4095,-4.4199,-4.4408,-4.4617,-4.4251,-4.365,-4.3075,-4.2709,-4.2265,-4.1716,-4.135,-4.1324,-4.1324,-4.1324,-4.1324,-4.1324,-4.1324,-4.1324,-4.1324,-4.1324,-4.1324,-4.1324,-4.1324,-4.1324,-4.1324,-4.1324,-4.1324,-4.1324,-4.1324,-4.1324,-4.1324,-5.5099,-5.5099,-5.5099,-5.5099,-5.5099,-5.5099,-5.4889,-5.4576,-5.4314,-5.4367,-5.4367,-5.3713,-5.3844,-5.4471,-5.3766,-5.3217,-5.2877,-5.2616,-5.2171,-5.1622,-5.1361,-5.0734,-4.9897,-4.9139,-4.8669,-4.825,-4.846,-4.8407,-4.812,-4.7597,-4.7304,-4.7231,-4.6761,-4.6369,-4.6055,-4.6107,-4.5846,-4.5294,-4.5245,-4.5007,-4.4694,-4.4694,-4.4591,-4.4225,-4.3859,-4.3389,-4.2605,-4.1768,-4.1324,-4.1324,-4.1324,-4.1324,-4.1324,-4.1324,-4.1324,-4.1324,-4.1324,-4.1324,-4.1324,-4.1324,-4.1324,-4.1324,-4.1324,-4.1324,-4.1324,-4.1324,-4.1324,-4.1324,-4.1324,-4.1324,-4.135,-4.1507,-4.1664,-4.1716,-4.1664,-4.1585,-4.135,-4.1611,-4.195,-4.2211,-4.2448,-4.2788,-4.2971,-4.3337,-4.3598,-4.3859,-4.4147,-4.4278,-4.4199,-4.3493,-4.2892,-4.2526,-4.2108,-4.1585,-4.135,-4.1324,-4.1324,-4.1324,-4.1324,-4.1324,-4.1324,-4.1324,-4.1324,-4.1324,-4.1324,-4.1324,-4.1324,-4.1324,-4.1324,-4.1324,-4.1324,-4.1324,-4.1324,-4.1324,-4.1324,-5.5099,-5.5099,-5.5099,-5.5099,-5.5099,-5.5099,-5.502,-5.4863,-5.4419,-5.4471,-5.4628,-5.3896,-5.4131,-5.502,-5.3896,-5.3373,-5.3321,-5.2616,-5.2093,-5.1596,-5.1178,-5.0655,-5.0132,-4.9819,-4.9191,-4.8564,-4.8878,-4.8669,-4.8172,-4.7597,-4.7414,-4.7336,-4.6917,-4.6447,-4.6316,-4.6055,-4.5451,-4.5218,-4.5062,-4.4877,-4.472,-4.4694,-4.4642,-4.4617,-4.4408,-4.3859,-4.2971,-4.2134,-4.1611,-4.1507,-4.1428,-4.1402,-4.1376,-4.1324,-4.135,-4.1324,-4.1324,-4.1324,-4.1324,-4.1324,-4.1324,-4.1324,-4.1324,-4.1324,-4.1324,-4.1324,-4.1324,-4.1324,-4.1324,-4.1324,-4.1376,-4.1742,-4.2028,-4.2054,-4.2159,-4.1899,-4.1559,-4.135,-4.1533,-4.2107,-4.2185,-4.2343,-4.2735,-4.2971,-4.3101,-4.3258,-4.3546,-4.3755,-4.365,-4.3127,-4.2657,-4.2317,-4.1873,-4.1402,-4.1324,-4.1324,-4.1324,-4.1324,-4.1324,-4.1324,-4.1324,-4.1324,-4.1324,-4.1324,-4.1324,-4.1324,-4.1324,-4.1324,-4.1324,-4.1324,-4.1324,-4.1324,-4.1324,-4.1324,-4.1324,-5.5099,-5.5099,-5.5099,-5.5099,-5.5099,-5.5072,-5.4837,-5.4419,-5.4288,-5.4341,-5.4341,-5.4131,-5.4445,-5.5046,-5.3949,-5.34,-5.3243,-5.238,-5.1701,-5.1622,-5.1518,-5.1126,-5.0577,-5.0185,-4.9557,-4.9061,-4.9008,-4.8799,-4.825,-4.7858,-4.7597,-4.7885,-4.7545,-4.7283,-4.7414,-4.6865,-4.6656,-4.6133,-4.5637,-4.5114,-4.472,-4.4694,-4.4694,-4.4642,-4.433,-4.3755,-4.318,-4.2736,-4.2605,-4.2552,-4.2239,-4.1873,-4.1559,-4.1716,-4.1664,-4.1402,-4.1324,-4.1324,-4.1324,-4.1376,-4.1324,-4.1428,-4.1402,-4.1324,-4.1324,-4.1324,-4.1324,-4.1324,-4.1324,-4.1324,-4.1481,-4.1455,-4.1847,-4.2238,-4.2342,-4.2186,-4.1951,-4.1585,-4.1664,-4.1899,-4.1794,-4.1716,-4.2265,-4.2343,-4.2474,-4.2656,-4.2866,-4.3154,-4.3023,-4.2762,-4.2474,-4.2211,-4.1742,-4.1324,-4.1324,-4.1324,-4.1324,-4.1324,-4.1324,-4.1324,-4.1324,-4.1324,-4.1324,-4.1324,-4.1324,-4.1324,-4.1324,-4.1324,-4.1324,-4.1324,-4.1324,-4.1324,-4.1324,-4.1324,-4.1324,-5.4562,-5.4604,-5.4537,-5.4604,-5.4604,-5.4604,-5.4489,-5.4363,-5.4337,-5.447,-5.4628,-5.4628,-5.4811,-5.4994,-5.3949,-5.34,-5.3112,-5.2171,-5.1596,-5.1596,-5.1596,-5.1439,-5.123,-5.0786,-5.0315,-4.9636,-4.9793,-4.9531,-4.9035,-4.8669,-4.8616,-4.859,-4.825,-4.7728,-4.744,-4.71,-4.6395,-4.5689,-4.5401,-4.5036,-4.472,-4.4694,-4.4694,-4.4643,-4.4199,-4.3702,-4.3467,-4.3127,-4.3023,-4.3023,-4.2971,-4.2552,-4.1821,-4.1742,-4.1585,-4.1402,-4.1324,-4.1481,-4.1611,-4.1742,-4.1847,-4.2056,-4.1873,-4.1742,-4.1611,-4.1507,-4.1324,-4.1324,-4.1376,-4.1481,-4.203,-4.2134,-4.2396,-4.2866,-4.2996,-4.2866,-4.2526,-4.2056,-4.1664,-4.1768,-4.1507,-4.1507,-4.1664,-4.1873,-4.203,-4.2265,-4.2421,-4.2657,-4.2944,-4.2683,-4.2447,-4.2107,-4.1611,-4.135,-4.1324,-4.1324,-4.1324,-4.1324,-4.1324,-4.1324,-4.1324,-4.1324,-4.1324,-4.1324,-4.1324,-4.1324,-4.1324,-4.1324,-4.1324,-4.1324,-4.1324,-4.1324,-4.1324,-4.1324,-4.1324,-5.3997,-5.3997,-5.3997,-5.3997,-5.3997,-5.3997,-5.4174,-5.435,-5.4443,-5.4526,-5.4939,-5.5032,-5.4901,-5.4733,-5.387,-5.3373,-5.2825,-5.2223,-5.1596,-5.1596,-5.1596,-5.157,-5.1492,-5.1361,-5.1047,-5.0263,-5.0472,-5.0342,-4.9923,-4.9845,-4.9348,-4.9139,-4.9061,-4.8329,-4.7127,-4.6499,-4.6186,-4.5454,-4.5009,-4.48,-4.4694,-4.4694,-4.4694,-4.4643,-4.4356,-4.4095,-4.3938,-4.365,-4.3363,-4.331,-4.3676,-4.331,-4.2605,-4.1899,-4.1402,-4.1402,-4.1428,-4.1716,-4.203,-4.2239,-4.25,-4.2971,-4.2605,-4.2317,-4.2186,-4.1977,-4.1716,-4.1533,-4.1559,-4.1768,-4.2631,-4.2605,-4.2918,-4.331,-4.3572,-4.3415,-4.3075,-4.2579,-4.2186,-4.1847,-4.1742,-4.1716,-4.1585,-4.1611,-4.1768,-4.1899,-4.2004,-4.2134,-4.2422,-4.25,-4.2108,-4.195,-4.1507,-4.135,-4.1324,-4.1324,-4.1324,-4.1324,-4.1324,-4.1324,-4.1324,-4.1324,-4.1324,-4.1324,-4.1324,-4.1324,-4.1324,-4.1324,-4.1324,-4.1324,-4.1324,-4.1324,-4.1324,-4.1324,-4.1324,-5.3997,-5.3997,-5.3997,-5.3997,-5.3997,-5.3997,-5.3997,-5.4064,-5.4064,-5.4309,-5.4578,-5.4578,-5.4545,-5.4275,-5.3739,-5.2877,-5.2171,-5.1638,-5.1596,-5.1596,-5.1596,-5.1534,-5.1596,-5.1471,-5.1351,-5.1282,-5.1047,-5.0489,-5.0132,-4.9845,-4.9688,-4.9244,-4.9087,-4.8538,-4.7702,-4.7022,-4.6369,-4.5767,-4.514,-4.4694,-4.4694,-4.4694,-4.4694,-4.4668,-4.4565,-4.4513,-4.4539,-4.4487,-4.4407,-4.4408,-4.4068,-4.3807,-4.3441,-4.2944,-4.2291,-4.1742,-4.1768,-4.2056,-4.2395,-4.2657,-4.2866,-4.2997,-4.2944,-4.2892,-4.2866,-4.2735,-4.2396,-4.2134,-4.1977,-4.1977,-4.1611,-4.2317,-4.2447,-4.2578,-4.2762,-4.284,-4.2997,-4.3023,-4.2866,-4.2631,-4.2343,-4.1951,-4.1794,-4.1559,-4.1507,-4.1585,-4.1638,-4.1664,-4.1794,-4.1794,-4.1585,-4.1481,-4.1376,-4.1324,-4.1324,-4.1324,-4.1324,-4.1324,-4.1324,-4.1324,-4.1324,-4.1324,-4.1324,-4.1324,-4.1324,-4.1324,-4.1324,-4.1324,-4.1324,-4.1324,-4.1324,-4.1324,-4.1324,-4.1324,-4.1324,-5.3452,-5.3452,-5.3452,-5.3452,-5.3478,-5.3452,-5.3521,-5.3725,-5.3725,-5.3929,-5.4174,-5.4241,-5.4314,-5.4141,-5.3426,-5.2528,-5.1795,-5.1408,-5.1408,-5.1534,-5.1408,-5.1471,-5.1471,-5.1283,-5.1346,-5.1393,-5.1122,-5.0949,-5.076,-5.0498,-5.0028,-4.9557,-4.9244,-4.8643,-4.778,-4.6891,-4.6369,-4.595,-4.5245,-4.4694,-4.4694,-4.4694,-4.4694,-4.4694,-4.4694,-4.4694,-4.4694,-4.4694,-4.4668,-4.467,-4.446,-4.4173,-4.3885,-4.3572,-4.3101,-4.2396,-4.2239,-4.2552,-4.297,-4.3363,-4.3572,-4.3859,-4.365,-4.3467,-4.3389,-4.318,-4.2944,-4.2709,-4.2631,-4.2657,-4.2735,-4.2892,-4.3075,-4.3154,-4.3258,-4.3337,-4.3493,-4.3702,-4.3624,-4.3363,-4.2709,-4.229,-4.2004,-4.1742,-4.1428,-4.1324,-4.1324,-4.1324,-4.1324,-4.1324,-4.1324,-4.1324,-4.1324,-4.1324,-4.1324,-4.1324,-4.1324,-4.1324,-4.1324,-4.1324,-4.1324,-4.1324,-4.1324,-4.1324,-4.1324,-4.1324,-4.1324,-4.1324,-4.1324,-4.1324,-4.1324,-4.1324,-4.1324,-4.1324,-4.1324,-5.2861,-5.2861,-5.2861,-5.2861,-5.2861,-5.2861,-5.3067,-5.3341,-5.341,-5.3614,-5.3861,-5.3903,-5.391,-5.369,-5.2892,-5.1922,-5.1346,-5.112,-5.1183,-5.122,-5.1094,-5.1183,-5.1157,-5.1005,-5.0827,-5.1085,-5.1168,-5.1283,-5.1299,-5.0969,-5.0446,-4.9845,-4.9322,-4.859,-4.7649,-4.7074,-4.6369,-4.5794,-4.5164,-4.485,-4.472,-4.4694,-4.4694,-4.4694,-4.4694,-4.4694,-4.4694,-4.4694,-4.4694,-4.4694,-4.467,-4.4513,-4.4121,-4.3938,-4.3729,-4.3337,-4.284,-4.318,-4.3598,-4.4016,-4.4199,-4.4433,-4.4251,-4.4095,-4.3912,-4.3624,-4.3232,-4.3206,-4.3206,-4.3206,-4.3363,-4.3782,-4.3702,-4.3598,-4.3781,-4.4095,-4.3912,-4.3912,-4.399,-4.3598,-4.297,-4.2552,-4.2239,-4.1742,-4.135,-4.1324,-4.1324,-4.1324,-4.1324,-4.1324,-4.1324,-4.1324,-4.1324,-4.1324,-4.1324,-4.1324,-4.1324,-4.1324,-4.1324,-4.1324,-4.1324,-4.1324,-4.1324,-4.1324,-4.1324,-4.1324,-4.1324,-4.1324,-4.1324,-4.1324,-4.1324,-4.1324,-4.1324,-4.1324,-4.1324,-5.2861,-5.2861,-5.2861,-5.2861,-5.2861,-5.2861,-5.2929,-5.2998,-5.2998,-5.3204,-5.3546,-5.3445,-5.3164,-5.251,-5.1524,-5.0883,-5.0741,-5.0715,-5.0741,-5.0778,-5.0715,-5.0689,-5.0689,-5.0652,-5.0407,-5.0602,-5.0887,-5.1257,-5.1262,-5.0969,-5.0446,-4.9845,-4.9244,-4.8721,-4.7989,-4.7388,-4.697,-4.6369,-4.5767,-4.5164,-4.4772,-4.4694,-4.4694,-4.4694,-4.4694,-4.4694,-4.4694,-4.4694,-4.4694,-4.4694,-4.4694,-4.4696,-4.4539,-4.4121,-4.4225,-4.4199,-4.4068,-4.3782,-4.3964,-4.4278,-4.4539,-4.4668,-4.4591,-4.4617,-4.4408,-4.4121,-4.3781,-4.3781,-4.3781,-4.365,-4.3572,-4.3676,-4.3572,-4.3363,-4.3284,-4.3546,-4.365,-4.4095,-4.4173,-4.4147,-4.3598,-4.2918,-4.2422,-4.1821,-4.1324,-4.1324,-4.1324,-4.135,-4.1324,-4.1324,-4.1324,-4.1324,-4.1324,-4.1324,-4.1324,-4.1324,-4.1324,-4.1324,-4.1324,-4.1324,-4.1324,-4.1324,-4.1324,-4.1324,-4.1324,-4.1324,-4.1324,-4.1324,-4.1324,-4.1324,-4.1324,-4.1324,-4.1324,-4.1324,-4.1324,-5.2861,-5.2861,-5.2861,-5.2861,-5.2861,-5.2861,-5.2861,-5.2861,-5.2861,-5.2998,-5.306,-5.2851,-5.2253,-5.1478,-5.0997,-5.0793,-5.0601,-5.0423,-5.0423,-5.0461,-5.0372,-5.0244,-5.0027,-4.9812,-4.9633,-4.997,-5.0223,-5.0452,-5.0633,-5.0463,-5.0002,-4.9453,-4.8904,-4.846,-4.8172,-4.7623,-4.7048,-4.6369,-4.5637,-4.4955,-4.4746,-4.4694,-4.4694,-4.4694,-4.4694,-4.4694,-4.4694,-4.4694,-4.4694,-4.4694,-4.4694,-4.4694,-4.4696,-4.4513,-4.4487,-4.4617,-4.4513,-4.4356,-4.4408,-4.4617,-4.4696,-4.4694,-4.4694,-4.4668,-4.467,-4.4513,-4.433,-4.4356,-4.4356,-4.4199,-4.4016,-4.4225,-4.3964,-4.365,-4.3363,-4.3493,-4.3833,-4.4042,-4.425,-4.4304,-4.4225,-4.3441,-4.2735,-4.2213,-4.169,-4.1376,-4.1481,-4.1638,-4.1481,-4.1324,-4.1324,-4.1324,-4.1324,-4.1324,-4.1324,-4.1324,-4.1324,-4.1324,-4.1324,-4.1324,-4.1324,-4.1324,-4.1324,-4.1324,-4.1324,-4.1324,-4.1324,-4.1324,-4.1324,-4.1324,-4.1324,-4.1324,-4.1324,-4.1324,-4.1324,-5.2861,-5.2861,-5.2861,-5.2861,-5.2904,-5.2779,-5.2703,-5.2703,-5.2528,-5.2477,-5.2377,-5.19,-5.1305,-5.0872,-5.0634,-5.0408,-5.0295,-5.0104,-5.0168,-5.0142,-4.999,-4.9711,-4.9368,-4.9027,-4.8837,-4.9296,-4.9398,-4.943,-4.9367,-4.943,-4.9299,-4.9061,-4.8564,-4.825,-4.8094,-4.778,-4.7283,-4.6447,-4.5375,-4.4826,-4.4694,-4.4694,-4.4694,-4.4694,-4.4694,-4.4694,-4.4694,-4.4694,-4.4694,-4.4694,-4.4694,-4.4694,-4.4722,-4.4696,-4.4615,-4.4668,-4.4643,-4.467,-4.4643,-4.4668,-4.4694,-4.4694,-4.4694,-4.4694,-4.4668,-4.4694,-4.4668,-4.467,-4.467,-4.4642,-4.4668,-4.4696,-4.446,-4.4278,-4.4173,-4.4173,-4.4173,-4.4225,-4.4328,-4.4459,-4.433,-4.3807,-4.3154,-4.2683,-4.216,-4.1585,-4.1585,-4.1924,-4.1794,-4.1585,-4.1402,-4.1428,-4.1324,-4.1324,-4.1324,-4.1324,-4.1324,-4.1324,-4.1324,-4.1324,-4.1324,-4.1324,-4.1324,-4.1324,-4.1324,-4.1324,-4.1324,-4.1324,-4.1324,-4.1324,-4.1324,-4.1324,-4.1324,-4.1324,-4.1324,-5.2861,-5.2861,-5.2929,-5.2836,-5.2854,-5.2377,-5.2176,-5.2126,-5.1649,-5.1473,-5.1398,-5.087,-5.0619,-5.0358,-5.0006,-4.9819,-4.9719,-4.9654,-4.9719,-4.9543,-4.9177,-4.8989,-4.8687,-4.8309,-4.7968,-4.7998,-4.8375,-4.8227,-4.7872,-4.8463,-4.8635,-4.8949,-4.8375,-4.825,-4.812,-4.7937,-4.7362,-4.6473,-4.5401,-4.4826,-4.4694,-4.4694,-4.4694,-4.4694,-4.4694,-4.4694,-4.4694,-4.4694,-4.4694,-4.4694,-4.4694,-4.4694,-4.4694,-4.4694,-4.4694,-4.4694,-4.4694,-4.4694,-4.4694,-4.4694,-4.4694,-4.4694,-4.4694,-4.4694,-4.4694,-4.4694,-4.4694,-4.4694,-4.4694,-4.4694,-4.4694,-4.4722,-4.4643,-4.4565,-4.446,-4.4408,-4.4304,-4.4173,-4.433,-4.4617,-4.4434,-4.4016,-4.3598,-4.3127,-4.2239,-4.1611,-4.1821,-4.2133,-4.2291,-4.2108,-4.1742,-4.1559,-4.1376,-4.1324,-4.1324,-4.1324,-4.1324,-4.1324,-4.1324,-4.1324,-4.1324,-4.1324,-4.1324,-4.1324,-4.1324,-4.1324,-4.1324,-4.1324,-4.1324,-4.1324,-4.1324,-4.1324,-4.1324,-4.1324,-4.1324,-5.2729,-5.2427,-5.2427,-5.2427,-5.2377,-5.1825,-5.1599,-5.1574,-5.1373,-5.1071,-5.0745,-5.0519,-5.0218,-4.9916,-4.9766,-4.959,-4.959,-4.959,-4.959,-4.9414,-4.9088,-4.8611,-4.8209,-4.7732,-4.7367,-4.7424,-4.7698,-4.7882,-4.7622,-4.7742,-4.7983,-4.8125,-4.7983,-4.8107,-4.8061,-4.7858,-4.7231,-4.6578,-4.5715,-4.514,-4.4694,-4.4694,-4.4694,-4.4694,-4.4694,-4.4694,-4.4694,-4.4694,-4.4694,-4.4694,-4.4694,-4.4694,-4.4694,-4.4694,-4.4694,-4.4694,-4.4694,-4.4694,-4.4694,-4.4694,-4.4694,-4.4694,-4.4694,-4.4694,-4.4694,-4.4694,-4.4694,-4.4694,-4.4694,-4.4694,-4.4694,-4.4694,-4.4696,-4.467,-4.4617,-4.4565,-4.4487,-4.4356,-4.4356,-4.467,-4.4617,-4.4356,-4.3964,-4.3572,-4.2552,-4.169,-4.2004,-4.2395,-4.2579,-4.2552,-4.2134,-4.1716,-4.1507,-4.1324,-4.1324,-4.1324,-4.1324,-4.1324,-4.1324,-4.1324,-4.1324,-4.1324,-4.1324,-4.1324,-4.1324,-4.1324,-4.1324,-4.1324,-4.1324,-4.1324,-4.1324,-4.1324,-4.1324,-4.1324,-4.1324,-5.2201,-5.185,-5.1674,-5.1724,-5.1774,-5.1247,-5.1021,-5.0996,-5.082,-5.0594,-5.0167,-5.0142,-4.9967,-4.9665,-4.959,-4.959,-4.954,-4.9414,-4.9339,-4.9038,-4.856,-4.8109,-4.7606,-4.7205,-4.6853,-4.6939,-4.7061,-4.7167,-4.7116,-4.7399,-4.7556,-4.7537,-4.7586,-4.7762,-4.7983,-4.7623,-4.7127,-4.6682,-4.5976,-4.548,-4.4981,-4.4772,-4.4694,-4.4694,-4.4694,-4.4694,-4.4694,-4.4694,-4.4694,-4.4694,-4.4694,-4.4694,-4.4694,-4.4694,-4.4694,-4.4694,-4.4694,-4.4694,-4.4694,-4.4694,-4.4694,-4.4694,-4.4694,-4.4694,-4.4694,-4.4694,-4.4694,-4.4694,-4.4694,-4.4694,-4.4694,-4.4694,-4.4694,-4.4696,-4.4696,-4.467,-4.467,-4.4591,-4.4617,-4.4668,-4.4617,-4.4513,-4.399,-4.3598,-4.3232,-4.2526,-4.284,-4.3154,-4.3258,-4.2997,-4.2422,-4.2004,-4.1638,-4.1455,-4.1324,-4.1324,-4.1324,-4.1324,-4.1324,-4.1324,-4.1324,-4.1324,-4.1324,-4.1324,-4.1324,-4.1324,-4.1324,-4.1324,-4.1324,-4.1324,-4.1324,-4.1324,-4.1324,-4.1324,-4.1324,-5.1322,-5.1222,-5.0745,-5.082,-5.1147,-5.067,-5.0444,-5.0393,-4.9967,-4.9741,-4.9715,-4.969,-4.969,-4.959,-4.954,-4.9464,-4.9339,-4.9012,-4.8786,-4.856,-4.7908,-4.733,-4.7054,-4.6753,-4.6502,-4.6376,-4.6487,-4.6537,-4.6461,-4.6657,-4.6831,-4.7197,-4.7383,-4.7619,-4.8061,-4.7623,-4.7336,-4.7096,-4.6186,-4.579,-4.5373,-4.5007,-4.485,-4.4694,-4.4694,-4.4694,-4.4694,-4.4694,-4.472,-4.485,-4.472,-4.472,-4.4824,-4.472,-4.4694,-4.4694,-4.4694,-4.4694,-4.4694,-4.4694,-4.4694,-4.4694,-4.4694,-4.4694,-4.4694,-4.4694,-4.4694,-4.4694,-4.4694,-4.4694,-4.4694,-4.4694,-4.4694,-4.4694,-4.4694,-4.4694,-4.4694,-4.4694,-4.4694,-4.4694,-4.4696,-4.4539,-4.399,-4.3572,-4.3572,-4.3493,-4.3729,-4.3833,-4.3833,-4.3337,-4.2709,-4.2291,-4.1847,-4.1455,-4.1324,-4.1324,-4.1324,-4.1324,-4.1324,-4.1324,-4.1324,-4.1324,-4.1324,-4.1324,-4.1324,-4.1324,-4.1324,-4.1324,-4.1324,-4.1324,-4.1324,-4.1324,-4.1324,-4.1324,-4.1324,-5.1046,-5.0695,-5.0494,-5.0318,-5.0167,-4.9967,-4.9866,-4.9841,-4.969,-4.959,-4.959,-4.959,-4.959,-4.9515,-4.9238,-4.9088,-4.8962,-4.8485,-4.8209,-4.8083,-4.7405,-4.7168,-4.6892,-4.6602,-4.6326,-4.6326,-4.6326,-4.6326,-4.6326,-4.6326,-4.6481,-4.69,-4.7349,-4.7762,-4.8029,-4.7911,-4.778,-4.7362,-4.6865,-4.6391,-4.5715,-4.5373,-4.5111,-4.4772,-4.4826,-4.4746,-4.472,-4.4746,-4.4824,-4.5007,-4.4903,-4.4824,-4.4981,-4.4983,-4.4694,-4.4694,-4.4694,-4.4694,-4.4694,-4.4694,-4.4694,-4.4694,-4.4694,-4.4694,-4.4694,-4.4694,-4.4694,-4.4694,-4.4694,-4.4694,-4.4694,-4.4694,-4.4694,-4.4694,-4.4694,-4.4694,-4.4694,-4.4694,-4.4694,-4.4694,-4.4696,-4.4696,-4.4356,-4.3807,-4.3676,-4.3624,-4.3755,-4.4042,-4.4095,-4.3493,-4.2866,-4.25,-4.2108,-4.1611,-4.1324,-4.1324,-4.1324,-4.1324,-4.1324,-4.1324,-4.1324,-4.1324,-4.1324,-4.1324,-4.1324,-4.1324,-4.1324,-4.1324,-4.1324,-4.1324,-4.1324,-4.1324,-4.1324,-4.1324,-4.1324,-4.9719,-4.9463,-4.9922,-4.9941,-4.9615,-4.959,-4.959,-4.959,-4.959,-4.959,-4.959,-4.959,-4.959,-4.9439,-4.9063,-4.8786,-4.8686,-4.7983,-4.7631,-4.7556,-4.7079,-4.6853,-4.6677,-4.6527,-4.6351,-4.6326,-4.6326,-4.6326,-4.6326,-4.6326,-4.6481,-4.69,-4.7349,-4.7703,-4.7997,-4.7977,-4.8015,-4.7649,-4.7336,-4.6944,-4.6395,-4.6029,-4.5741,-4.5454,-4.5245,-4.5088,-4.4929,-4.4877,-4.485,-4.5059,-4.5033,-4.4877,-4.5088,-4.5009,-4.4694,-4.4694,-4.4694,-4.4694,-4.4694,-4.4694,-4.4694,-4.4694,-4.4694,-4.4694,-4.4694,-4.4694,-4.4694,-4.4694,-4.4694,-4.4694,-4.4694,-4.4694,-4.4694,-4.4694,-4.4694,-4.4694,-4.4694,-4.4694,-4.4694,-4.4694,-4.4694,-4.4694,-4.467,-4.4225,-4.3807,-4.3755,-4.3702,-4.3912,-4.4042,-4.3389,-4.2788,-4.25,-4.2108,-4.1585,-4.1324,-4.1324,-4.1324,-4.1324,-4.1324,-4.1324,-4.1324,-4.1324,-4.1324,-4.1324,-4.1324,-4.1324,-4.1324,-4.1324,-4.1324,-4.1324,-4.1324,-4.1324,-4.1324,-4.1324,-4.1324,-4.7359,-4.7533,-4.8918,-4.9461,-4.9411,-4.9425,-4.954,-4.954,-4.954,-4.9515,-4.949,-4.9439,-4.9464,-4.9414,-4.8962,-4.8686,-4.8435,-4.7581,-4.7205,-4.7004,-4.6652,-4.6476,-4.6401,-4.6351,-4.6326,-4.6326,-4.6326,-4.6326,-4.6326,-4.6326,-4.6481,-4.684,-4.7349,-4.7645,-4.7821,-4.7997,-4.812,-4.7937,-4.7702,-4.7362,-4.697,-4.6682,-4.6421,-4.6133,-4.5872,-4.5611,-4.5401,-4.5138,-4.4957,-4.4905,-4.4746,-4.472,-4.472,-4.4694,-4.4694,-4.4694,-4.4694,-4.4694,-4.4694,-4.4694,-4.4694,-4.4694,-4.4694,-4.4694,-4.4694,-4.4694,-4.4694,-4.4694,-4.4694,-4.4694,-4.4694,-4.4694,-4.4694,-4.4694,-4.4694,-4.4694,-4.4694,-4.4694,-4.4694,-4.4694,-4.4694,-4.4668,-4.4563,-4.4278,-4.3676,-4.3389,-4.318,-4.284,-4.2918,-4.2866,-4.2369,-4.2291,-4.1899,-4.1481,-4.1324,-4.1324,-4.1324,-4.1324,-4.1324,-4.1324,-4.1324,-4.1324,-4.1324,-4.1324,-4.1324,-4.1324,-4.1324,-4.1324,-4.1324,-4.1324,-4.1324,-4.1324,-4.1324,-4.1324,-4.1324,-4.5655,-4.5575,-4.7323,-4.7889,-4.7678,-4.8604,-4.9012,-4.9012,-4.9012,-4.8812,-4.841,-4.8837,-4.9012,-4.8962,-4.841,-4.8209,-4.7757,-4.7179,-4.6702,-4.6451,-4.6426,-4.6351,-4.6326,-4.6326,-4.6326,-4.6326,-4.6326,-4.6326,-4.6326,-4.6326,-4.6506,-4.6866,-4.7172,-4.7468,-4.7762,-4.8055,-4.8114,-4.8146,-4.7937,-4.7728,-4.7466,-4.7205,-4.6917,-4.663,-4.6395,-4.6107,-4.5689,-4.548,-4.5297,-4.5216,-4.485,-4.4824,-4.5294,-4.4955,-4.4694,-4.4694,-4.4694,-4.4694,-4.4694,-4.4694,-4.4694,-4.4694,-4.4694,-4.4694,-4.4694,-4.4694,-4.4694,-4.4694,-4.4694,-4.4694,-4.4694,-4.4694,-4.4694,-4.4694,-4.4694,-4.4694,-4.4694,-4.4694,-4.4694,-4.4694,-4.4694,-4.4668,-4.4537,-4.3964,-4.3415,-4.3049,-4.2683,-4.2265,-4.2004,-4.203,-4.2004,-4.1976,-4.1768,-4.1376,-4.1324,-4.1324,-4.1324,-4.1324,-4.1324,-4.1324,-4.1324,-4.1324,-4.1324,-4.1324,-4.1324,-4.1324,-4.1324,-4.1324,-4.1324,-4.1324,-4.1324,-4.1324,-4.1324,-4.1324,-4.1324,-4.3669,-4.3801,-4.5912,-4.6908,-4.7356,-4.8344,-4.856,-4.8234,-4.8335,-4.8209,-4.7983,-4.8284,-4.8435,-4.8335,-4.7883,-4.7581,-4.7506,-4.6828,-4.6376,-4.6376,-4.6326,-4.6326,-4.6326,-4.6326,-4.6326,-4.6326,-4.6326,-4.6326,-4.6326,-4.6301,-4.6446,-4.6601,-4.6993,-4.7265,-4.756,-4.7938,-4.8172,-4.8172,-4.812,-4.7963,-4.778,-4.7649,-4.7414,-4.7153,-4.697,-4.6499,-4.6003,-4.5846,-4.5558,-4.5294,-4.4772,-4.4824,-4.5242,-4.5033,-4.5033,-4.5085,-4.514,-4.4957,-4.4826,-4.4694,-4.4694,-4.4694,-4.4694,-4.4694,-4.4694,-4.4694,-4.4694,-4.4694,-4.4694,-4.4694,-4.4694,-4.4694,-4.4694,-4.4694,-4.4694,-4.4694,-4.4694,-4.4694,-4.4694,-4.4694,-4.4694,-4.4694,-4.4382,-4.3729,-4.3206,-4.2944,-4.2526,-4.2004,-4.1742,-4.1664,-4.1664,-4.1638,-4.1507,-4.1324,-4.1248,-4.1248,-4.1248,-4.1248,-4.1324,-4.1324,-4.1324,-4.1324,-4.1324,-4.1324,-4.1324,-4.1324,-4.1324,-4.1324,-4.1324,-4.1324,-4.1324,-4.1324,-4.1324,-4.1324,-4.1324,-4.1499,-4.1724,-4.4542,-4.6499,-4.7858,-4.8385,-4.8058,-4.723,-4.7581,-4.7757,-4.7732,-4.7832,-4.7857,-4.7782,-4.7431,-4.7193,-4.7079,-4.6602,-4.6326,-4.6326,-4.6326,-4.6326,-4.6326,-4.6326,-4.6326,-4.6326,-4.6326,-4.6326,-4.6326,-4.6301,-4.6301,-4.6361,-4.6934,-4.7265,-4.7383,-4.7938,-4.8172,-4.8172,-4.8172,-4.8094,-4.812,-4.8146,-4.8172,-4.8015,-4.7623,-4.7127,-4.6552,-4.6029,-4.5428,-4.5036,-4.4694,-4.472,-4.5007,-4.5242,-4.5451,-4.5503,-4.548,-4.5166,-4.4879,-4.4694,-4.4694,-4.4694,-4.4694,-4.4694,-4.4694,-4.4694,-4.4694,-4.4694,-4.4694,-4.4694,-4.4694,-4.4694,-4.4694,-4.4694,-4.4694,-4.4639,-4.4585,-4.4531,-4.4422,-4.4422,-4.4422,-4.4422,-4.4292,-4.3669,-4.3073,-4.2814,-4.2345,-4.1746,-4.1434,-4.1278,-4.1302,-4.1328,-4.1376,-4.1248,-4.1147,-4.1147,-4.1147,-4.1198,-4.1147,-4.1198,-4.1147,-4.1198,-4.1324,-4.1324,-4.1324,-4.1324,-4.1324,-4.1324,-4.1324,-4.1324,-4.1324,-4.1324,-4.1324,-4.1324,-4.1324,-3.9788,-3.9791,-4.258,-4.5326,-4.7708,-4.7631,-4.7344,-4.7043,-4.6803,-4.6753,-4.6778,-4.7104,-4.7305,-4.7255,-4.7154,-4.6993,-4.6954,-4.6577,-4.6351,-4.6326,-4.6326,-4.6326,-4.6326,-4.6326,-4.6326,-4.6326,-4.6326,-4.6326,-4.6326,-4.6326,-4.6301,-4.6361,-4.6874,-4.7146,-4.7205,-4.7821,-4.8114,-4.8114,-4.8172,-4.8172,-4.8172,-4.8172,-4.8172,-4.8146,-4.7885,-4.7597,-4.7074,-4.6578,-4.6003,-4.5506,-4.4957,-4.5009,-4.5401,-4.5558,-4.5611,-4.5637,-4.5663,-4.5349,-4.4931,-4.4694,-4.4694,-4.4694,-4.4694,-4.4694,-4.4694,-4.4694,-4.4694,-4.4694,-4.4694,-4.4694,-4.4694,-4.4694,-4.4694,-4.4694,-4.4694,-4.4531,-4.4422,-4.4258,-4.4174,-4.4119,-4.4094,-4.4042,-4.4045,-4.3684,-4.3038,-4.2471,-4.1852,-4.1338,-4.1003,-4.0848,-4.1049,-4.1099,-4.13,-4.1198,-4.1097,-4.0997,-4.0946,-4.0846,-4.0795,-4.0846,-4.0997,-4.1097,-4.1198,-4.1248,-4.1324,-4.1324,-4.1324,-4.1324,-4.1324,-4.1324,-4.1324,-4.1324,-4.1324,-4.1324,-4.1324,-3.8792,-3.8833,-4.1155,-4.3776,-4.5993,-4.6217,-4.6427,-4.6667,-4.6426,-4.6326,-4.6326,-4.6627,-4.6778,-4.6778,-4.6778,-4.6803,-4.6753,-4.6476,-4.6351,-4.6326,-4.6326,-4.6326,-4.6326,-4.6326,-4.6326,-4.6326,-4.6326,-4.6326,-4.6326,-4.6326,-4.6301,-4.6361,-4.6815,-4.7053,-4.7112,-4.7586,-4.7997,-4.7997,-4.8114,-4.8172,-4.8172,-4.8172,-4.8172,-4.8172,-4.8094,-4.7832,-4.7466,-4.697,-4.6578,-4.6029,-4.548,-4.5558,-4.5846,-4.6029,-4.6029,-4.6029,-4.595,-4.5637,-4.5062,-4.4694,-4.4694,-4.4694,-4.4694,-4.4694,-4.4694,-4.4694,-4.4694,-4.4694,-4.4694,-4.4694,-4.4694,-4.4694,-4.4585,-4.4531,-4.4476,-4.4367,-4.4203,-4.4064,-4.401,-4.401,-4.401,-4.3984,-4.3932,-4.3907,-4.3316,-4.2749,-4.208,-4.1438,-4.1003,-4.0466,-4.0618,-4.0795,-4.0896,-4.0972,-4.0795,-4.0694,-4.0694,-4.0593,-4.0466,-4.0643,-4.0846,-4.0997,-4.1097,-4.1147,-4.1224,-4.1324,-4.1324,-4.1224,-4.1274,-4.1324,-4.1324,-4.1324,-4.1324,-4.1324,-4.1324,-3.8345,-3.8699,-4.0255,-4.2124,-4.3912,-4.4544,-4.5205,-4.5928,-4.6059,-4.612,-4.6301,-4.6326,-4.6326,-4.6326,-4.6326,-4.6326,-4.6326,-4.6351,-4.6326,-4.6326,-4.6326,-4.6326,-4.6326,-4.6326,-4.6326,-4.6326,-4.6326,-4.6326,-4.6326,-4.6326,-4.6301,-4.6361,-4.6541,-4.6806,-4.6959,-4.7349,-4.7762,-4.788,-4.7997,-4.8172,-4.8172,-4.8172,-4.8172,-4.8172,-4.8146,-4.7911,-4.7597,-4.7283,-4.7022,-4.6434,-4.5857,-4.5793,-4.6,-4.6181,-4.6238,-4.6238,-4.6338,-4.579,-4.5192,-4.48,-4.472,-4.4694,-4.4694,-4.4694,-4.4639,-4.4639,-4.4639,-4.4585,-4.4585,-4.4639,-4.4639,-4.4585,-4.4422,-4.4258,-4.4203,-4.4094,-4.3929,-4.3789,-4.3789,-4.3734,-4.3734,-4.3734,-4.3789,-4.3764,-4.3457,-4.2971,-4.2434,-4.1872,-4.1258,-4.0541,-4.0262,-4.0287,-4.0364,-4.0415,-4.0389,-4.044,-4.044,-4.0313,-4.0211,-4.0491,-4.0694,-4.0795,-4.0896,-4.1047,-4.1123,-4.1047,-4.1073,-4.1023,-4.1123,-4.1198,-4.1147,-4.1147,-4.1324,-4.1324,-4.1324,-3.8814,-3.9823,-4.0258,-4.1229,-4.25,-4.2719,-4.349,-4.4583,-4.4767,-4.5281,-4.612,-4.6326,-4.6326,-4.6326,-4.6326,-4.6326,-4.6326,-4.6326,-4.6326,-4.6326,-4.6326,-4.6326,-4.6326,-4.6326,-4.6326,-4.6326,-4.6326,-4.6326,-4.6326,-4.6326,-4.6301,-4.6301,-4.6626,-4.6806,-4.69,-4.729,-4.7703,-4.7762,-4.788,-4.7997,-4.8055,-4.8114,-4.8172,-4.8172,-4.8172,-4.812,-4.7937,-4.7571,-4.7336,-4.6794,-4.5917,-4.563,-4.5642,-4.5879,-4.5904,-4.5982,-4.6145,-4.5875,-4.5278,-4.4678,-4.4439,-4.4307,-4.4281,-4.4419,-4.4364,-4.439,-4.431,-4.4174,-4.4203,-4.4313,-4.4313,-4.4174,-4.4064,-4.3929,-4.3819,-4.3683,-4.3517,-4.3376,-4.3265,-4.3265,-4.3265,-4.3265,-4.3265,-4.3189,-4.3063,-4.2557,-4.2077,-4.1521,-4.1069,-4.0485,-3.9928,-3.9903,-3.9955,-3.9981,-4.0134,-4.0134,-4.0134,-3.9981,-3.9955,-4.0185,-4.0338,-4.0491,-4.0593,-4.0795,-4.0744,-4.0694,-4.072,-4.0821,-4.0846,-4.0896,-4.0946,-4.0997,-4.1147,-4.1274,-4.1248]}]]